[[{"header":{"parameterUnit":"m.s-1","parameterCategory":1,"la1":30.6,"la2":29.2853,"lo1":-89.7004,"lo2":-87.6739,"dy":0.0162,"dx":0.0183,"nx":112,"ny":82,"refTime":"2024-04-01T18:00:00:Z","depth":0,"parameterNumber":2,"parameterNumberName":"U-component_of_WINDS"},"data":[0.0,0.0,0.0,0.0,0.0,0.0,0.0,0.0,0.0,0.0,0.0,0.0,0.0,0.0,0.0,0.0,0.0,0.0,0.0,0.0,0.0,0.0,0.0,0.0,0.0,0.0,0.0,0.0,0.0,0.0,0.0,0.0,0.0,0.0,0.0,0.0,0.0,0.0,0.0,0.0,0.0,0.0,0.0,0.0,0.0,0.0,0.0,0.0,0.0,0.0,0.0,0.0,0.0,0.0,0.0,0.0,0.0,0.0,0.0,0.0,0.0,0.0,0.0,0.0,0.0,0.0,0.0,0.0,0.0,0.0,0.0,0.0,0.0,0.0,0.0,0.0,0.0,0.0,0.0,0.0,0.0,0.0,0.0,0.0,0.0,0.0,0.0,0.0,0.0,0.0,0.0,2.4086,2.4744,2.511,2.5066,2.5052,2.4774,2.413,0.0,0.0,0.0,0.0,0.0,0.0,0.0,0.0,0.0,0.0,0.0,0.0,0.0,0.0,0.0,0.0,0.0,0.0,0.0,0.0,0.0,0.0,0.0,0.0,0.0,0.0,0.0,0.0,0.0,0.0,0.0,0.0,0.0,0.0,0.0,0.0,0.0,0.0,0.0,0.0,0.0,0.0,0.0,0.0,0.0,0.0,0.0,0.0,0.0,0.0,0.0,0.0,0.0,0.0,0.0,0.0,0.0,0.0,0.0,0.0,0.0,0.0,0.0,0.0,0.0,0.0,0.0,0.0,0.0,0.0,0.0,0.0,0.0,0.0,0.0,0.0,0.0,0.0,0.0,0.0,0.0,0.0,0.0,0.0,0.0,0.0,0.0,0.0,0.0,0.0,0.0,0.0,0.0,0.0,0.0,0.0,0.0,0.0,0.0,0.0,0.0,0.0,0.0,0.0,2.3471,2.4393,2.5066,2.5344,2.5081,2.5052,2.4774,2.413,0.0,0.0,0.0,0.0,0.0,0.0,0.0,0.0,0.0,0.0,0.0,0.0,0.0,0.0,0.0,0.0,0.0,0.0,0.0,0.0,0.0,0.0,0.0,0.0,0.0,0.0,0.0,0.0,0.0,0.0,0.0,0.0,0.0,0.0,0.0,0.0,0.0,0.0,0.0,0.0,0.0,0.0,0.0,0.0,0.0,0.0,0.0,0.0,0.0,0.0,0.0,0.0,0.0,0.0,0.0,0.0,0.0,0.0,0.0,0.0,0.0,0.0,0.0,0.0,0.0,0.0,0.0,0.0,0.0,0.0,0.0,0.0,0.0,0.0,0.0,0.0,0.0,0.0,0.0,0.0,0.0,0.0,0.0,0.0,0.0,0.0,0.0,0.0,0.0,0.0,0.0,0.0,0.0,0.0,0.0,0.0,0.0,0.0,0.0,0.0,0.0,0.0,0.0,2.3792,2.3881,2.451,2.4993,2.5213,2.5066,2.4891,2.4583,2.4115,2.4057,0.0,0.0,0.0,0.0,0.0,0.0,0.0,0.0,0.0,0.0,0.0,0.0,0.0,0.0,0.0,0.0,0.0,0.0,0.0,0.0,0.0,0.0,0.0,0.0,0.0,0.0,0.0,0.0,0.0,0.0,0.0,0.0,0.0,0.0,0.0,0.0,0.0,0.0,0.0,0.0,0.0,0.0,0.0,0.0,0.0,0.0,0.0,0.0,0.0,0.0,0.0,0.0,0.0,0.0,0.0,0.0,0.0,0.0,0.0,0.0,0.0,0.0,0.0,0.0,0.0,0.0,0.0,0.0,0.0,0.0,0.0,0.0,0.0,0.0,0.0,0.0,0.0,0.0,0.0,0.0,0.0,0.0,0.0,0.0,0.0,0.0,0.0,0.0,0.0,0.0,0.0,0.0,0.0,0.0,0.0,0.0,0.0,0.0,0.0,0.0,0.0,0.0,2.3676,2.4232,2.4642,2.4905,2.5022,2.4949,2.4642,2.432,2.3984,2.3662,0.0,0.0,0.0,0.0,0.0,0.0,0.0,0.0,0.0,0.0,0.0,0.0,0.0,0.0,0.0,0.0,0.0,0.0,0.0,0.0,0.0,0.0,0.0,0.0,0.0,0.0,0.0,0.0,0.0,0.0,0.0,0.0,0.0,0.0,0.0,0.0,0.0,0.0,0.0,0.0,0.0,0.0,0.0,0.0,0.0,0.0,0.0,0.0,0.0,0.0,0.0,0.0,0.0,0.0,0.0,0.0,0.0,0.0,0.0,0.0,0.0,0.0,0.0,0.0,0.0,0.0,0.0,0.0,0.0,0.0,0.0,0.0,0.0,0.0,0.0,0.0,0.0,0.0,0.0,0.0,0.0,0.0,0.0,0.0,0.0,0.0,0.0,0.0,0.0,0.0,0.0,0.0,0.0,0.0,0.0,0.0,0.0,0.0,0.0,0.0,0.0,0.0,2.3676,2.432,2.4949,2.5052,2.4935,2.4627,2.4305,2.3984,2.3647,2.3325,0.0,0.0,0.0,0.0,0.0,0.0,0.0,0.0,0.0,0.0,0.0,0.0,0.0,0.0,0.0,0.0,0.0,0.0,0.0,0.0,0.0,0.0,0.0,0.0,0.0,0.0,0.0,0.0,0.0,0.0,0.0,0.0,0.0,0.0,0.0,0.0,0.0,0.0,0.0,0.0,0.0,0.0,0.0,0.0,0.0,0.0,0.0,0.0,0.0,0.0,0.0,0.0,0.0,0.0,0.0,0.0,0.0,0.0,0.0,0.0,0.0,0.0,0.0,0.0,0.0,0.0,0.0,0.0,0.0,0.0,0.0,0.0,0.0,0.0,0.0,0.0,0.0,0.0,0.0,0.0,0.0,0.0,0.0,0.0,0.0,0.0,0.0,0.0,0.0,0.0,0.0,0.0,0.0,0.0,0.0,0.0,0.0,0.0,0.0,0.0,0.0,0.0,2.3676,2.4335,0.0,2.5052,2.492,2.4598,2.4276,2.394,2.3618,0.0,0.0,0.0,0.0,0.0,0.0,0.0,0.0,0.0,0.0,0.0,0.0,0.0,0.0,0.0,0.0,0.0,0.0,0.0,0.0,0.0,0.0,0.0,0.0,0.0,0.0,0.0,0.0,0.0,0.0,0.0,0.0,0.0,0.0,0.0,0.0,0.0,0.0,0.0,0.0,0.0,0.0,0.0,0.0,0.0,0.0,0.0,0.0,0.0,0.0,0.0,0.0,0.0,0.0,0.0,0.0,0.0,0.0,0.0,0.0,0.0,0.0,0.0,0.0,0.0,0.0,0.0,0.0,0.0,0.0,0.0,0.0,0.0,0.0,0.0,0.0,0.0,0.0,0.0,0.0,0.0,0.0,0.0,0.0,0.0,0.0,0.0,0.0,0.0,0.0,0.0,0.0,0.0,0.0,0.0,0.0,0.0,0.0,0.0,0.0,0.0,0.0,2.3062,2.3676,2.4335,0.0,2.4964,2.4774,2.4437,2.4115,2.3793,2.3457,0.0,0.0,0.0,0.0,0.0,0.0,0.0,0.0,0.0,0.0,0.0,0.0,0.0,0.0,0.0,0.0,0.0,0.0,0.0,0.0,0.0,0.0,0.0,0.0,0.0,0.0,0.0,0.0,0.0,0.0,0.0,0.0,0.0,0.0,0.0,0.0,0.0,0.0,0.0,0.0,0.0,0.0,0.0,0.0,0.0,0.0,0.0,0.0,0.0,0.0,0.0,0.0,0.0,0.0,0.0,0.0,0.0,0.0,0.0,0.0,0.0,0.0,0.0,0.0,0.0,0.0,0.0,0.0,0.0,0.0,0.0,0.0,0.0,0.0,0.0,0.0,0.0,0.0,0.0,0.0,0.0,0.0,0.0,0.0,0.0,0.0,0.0,0.0,0.0,0.0,0.0,0.0,0.0,0.0,0.0,0.0,0.0,0.0,0.0,0.0,0.0,0.0,2.3062,2.3676,2.4335,2.4993,2.4759,2.4437,2.4115,2.3779,2.3457,0.0,0.0,0.0,0.0,0.0,0.0,0.0,0.0,0.0,0.0,0.0,0.0,0.0,0.0,0.0,0.0,0.0,0.0,0.0,0.0,0.0,0.0,0.0,0.0,0.0,0.0,0.0,0.0,0.0,0.0,0.0,0.0,0.0,0.0,0.0,0.0,0.0,0.0,0.0,0.0,0.0,0.0,0.0,0.0,0.0,0.0,0.0,0.0,0.0,0.0,0.0,0.0,0.0,0.0,0.0,0.0,0.0,0.0,0.0,0.0,0.0,0.0,0.0,0.0,0.0,0.0,0.0,0.0,0.0,0.0,0.0,0.0,0.0,0.0,0.0,0.0,0.0,0.0,0.0,0.0,0.0,0.0,0.0,0.0,0.0,0.0,0.0,0.0,0.0,0.0,0.0,0.0,0.0,0.0,0.0,0.0,0.0,0.0,0.0,0.0,0.0,0.0,0.0,2.3047,2.3471,2.4071,2.4964,2.4554,2.4188,2.4086,2.3779,2.3457,2.3135,0.0,0.0,0.0,0.0,0.0,0.0,0.0,0.0,0.0,0.0,0.0,0.0,0.0,0.0,0.0,0.0,0.0,0.0,0.0,0.0,0.0,0.0,0.0,0.0,0.0,0.0,0.0,0.0,0.0,0.0,0.0,0.0,0.0,0.0,0.0,0.0,0.0,0.0,0.0,0.0,0.0,0.0,0.0,0.0,0.0,0.0,0.0,0.0,0.0,0.0,0.0,0.0,0.0,0.0,0.0,0.0,0.0,0.0,0.0,0.0,0.0,0.0,0.0,0.0,0.0,0.0,0.0,0.0,0.0,0.0,0.0,0.0,0.0,0.0,0.0,0.0,0.0,0.0,0.0,0.0,0.0,0.0,0.0,0.0,0.0,0.0,0.0,0.0,0.0,0.0,0.0,0.0,0.0,0.0,0.0,0.0,0.0,0.0,0.0,0.0,0.0,0.0,2.3018,2.3281,2.3779,2.4759,2.4276,2.3881,2.3881,2.3706,2.3457,2.3135,0.0,0.0,0.0,0.0,0.0,0.0,0.0,0.0,0.0,0.0,0.0,0.0,0.0,0.0,0.0,0.0,0.0,0.0,0.0,0.0,0.0,0.0,0.0,0.0,0.0,0.0,0.0,0.0,0.0,0.0,0.0,0.0,0.0,0.0,0.0,0.0,0.0,0.0,0.0,0.0,0.0,0.0,0.0,0.0,0.0,0.0,0.0,0.0,0.0,0.0,0.0,0.0,0.0,0.0,0.0,0.0,0.0,0.0,0.0,0.0,0.0,0.0,0.0,0.0,0.0,0.0,0.0,0.0,0.0,0.0,0.0,0.0,0.0,0.0,0.0,0.0,0.0,0.0,0.0,0.0,0.0,0.0,0.0,0.0,0.0,0.0,0.0,0.0,0.0,0.0,0.0,0.0,0.0,0.0,0.0,0.0,0.0,0.0,0.0,0.0,0.0,0.0,2.2988,2.3076,2.3457,2.4466,2.3954,2.3559,2.3588,2.3574,2.3442,2.3164,0.0,0.0,0.0,0.0,0.0,0.0,0.0,0.0,0.0,0.0,0.0,0.0,0.0,0.0,0.0,0.0,0.0,0.0,0.0,0.0,0.0,0.0,0.0,0.0,0.0,0.0,0.0,0.0,0.0,0.0,0.0,0.0,0.0,0.0,0.0,0.0,0.0,0.0,0.0,0.0,0.0,0.0,0.0,0.0,0.0,0.0,0.0,0.0,0.0,0.0,0.0,0.0,0.0,0.0,0.0,0.0,0.0,0.0,0.0,0.0,2.4193,0.0,0.0,0.0,0.0,0.0,0.0,0.0,0.0,0.0,0.0,0.0,0.0,0.0,0.0,0.0,0.0,0.0,0.0,0.0,0.0,0.0,0.0,0.0,0.0,0.0,0.0,0.0,0.0,0.0,0.0,0.0,0.0,0.0,0.0,0.0,0.0,0.0,0.0,0.0,0.0,0.0,2.2988,2.2886,2.3193,2.4437,2.3749,2.331,2.3574,2.3354,2.3296,2.3471,2.3252,0.0,0.0,0.0,0.0,0.0,0.0,0.0,0.0,0.0,0.0,0.0,0.0,0.0,0.0,0.0,0.0,0.0,0.0,0.0,0.0,0.0,0.0,0.0,0.0,0.0,0.0,0.0,0.0,0.0,0.0,0.0,0.0,0.0,0.0,0.0,0.0,0.0,0.0,0.0,0.0,0.0,0.0,0.0,0.0,0.0,0.0,0.0,0.0,0.0,0.0,0.0,0.0,0.0,0.0,0.0,0.0,0.0,0.0,0.0,0.0,2.4657,0.0,0.0,0.0,0.0,0.0,0.0,0.0,0.0,0.0,0.0,0.0,0.0,0.0,0.0,0.0,0.0,0.0,0.0,0.0,0.0,0.0,0.0,0.0,0.0,0.0,0.0,0.0,0.0,0.0,0.0,0.0,0.0,0.0,0.0,0.0,0.0,0.0,0.0,0.0,0.0,2.2754,2.2608,2.2842,2.3984,2.3501,2.3179,2.3354,2.3354,2.3413,2.3588,2.3442,0.0,0.0,0.0,0.0,0.0,0.0,0.0,0.0,0.0,0.0,0.0,0.0,0.0,0.0,0.0,0.0,0.0,0.0,0.0,0.0,0.0,0.0,0.0,0.0,0.0,0.0,0.0,0.0,0.0,0.0,0.0,0.0,0.0,0.0,0.0,0.0,0.0,0.0,0.0,0.0,0.0,0.0,0.0,0.0,0.0,0.0,0.0,0.0,0.0,0.0,0.0,0.0,0.0,2.5574,2.5737,2.5329,2.6424,2.6552,2.6215,2.6056,2.6226,2.6379,2.4998,0.0,0.0,0.0,0.0,0.0,0.0,0.0,0.0,0.0,0.0,0.0,0.0,0.0,0.0,0.0,0.0,0.0,0.0,0.0,0.0,0.0,0.0,0.0,0.0,2.3837,2.3574,0.0,0.0,0.0,0.0,0.0,0.0,0.0,0.0,0.0,0.0,0.0,0.0,2.2506,2.2418,2.2608,2.3501,2.331,2.3106,2.3106,2.3354,2.353,2.3588,2.3545,2.3662,0.0,0.0,0.0,0.0,0.0,0.0,0.0,0.0,0.0,0.0,0.0,0.0,0.0,0.0,0.0,0.0,0.0,0.0,0.0,0.0,0.0,0.0,0.0,0.0,0.0,0.0,0.0,0.0,0.0,0.0,0.0,0.0,2.8955,2.9456,0.0,0.0,0.0,0.0,0.0,0.0,0.0,0.0,0.0,0.0,0.0,0.0,0.0,2.5219,2.5098,2.5516,2.5545,2.5428,2.5267,2.5329,2.555,2.539,2.5794,2.6597,2.7198,0.0,2.5737,2.4351,0.0,0.0,0.0,0.0,0.0,0.0,0.0,0.0,0.0,0.0,0.0,0.0,0.0,0.0,0.0,0.0,0.0,0.0,0.0,0.0,0.0,0.0,2.3954,2.372,2.3837,2.3852,0.0,2.2857,2.2535,2.2242,2.192,0.0,0.0,0.0,0.0,0.0,0.0,0.0,2.2535,2.2593,2.2828,2.3515,2.331,2.3106,2.3106,2.3149,2.3296,2.3574,2.3325,2.3325,2.3647,2.3574,0.0,0.0,0.0,0.0,0.0,0.0,0.0,0.0,0.0,0.0,0.0,0.0,0.0,0.0,0.0,0.0,0.0,0.0,0.0,0.0,0.0,0.0,0.0,0.0,0.0,0.0,0.0,0.0,0.0,2.9119,2.8527,2.9112,2.8541,2.7953,0.0,0.0,0.0,0.0,0.0,0.0,0.0,0.0,0.0,2.5798,2.5298,2.5336,2.5804,2.5936,2.6238,2.6713,2.6956,2.7083,2.7129,2.7777,2.7927,2.755,2.7804,2.7403,2.647,2.5432,2.4822,2.45,0.0,0.0,0.0,0.0,2.3257,2.2849,2.2412,2.1881,0.0,2.1067,0.0,0.0,0.0,0.0,0.0,0.0,0.0,0.0,0.0,0.0,2.2127,2.2155,2.2141,2.2046,2.1774,2.1488,2.1438,0.0,2.2184,2.1862,2.154,0.0,0.0,0.0,0.0,0.0,2.2315,2.252,2.2798,2.3267,2.3193,2.3106,2.3106,2.3106,2.3252,2.3574,2.3457,2.353,2.3852,2.4042,2.4057,0.0,0.0,0.0,0.0,0.0,0.0,0.0,0.0,0.0,0.0,0.0,0.0,0.0,0.0,0.0,0.0,0.0,0.0,0.0,0.0,0.0,0.0,0.0,0.0,0.0,0.0,0.0,0.0,2.8792,2.8197,2.8694,2.8043,2.7356,0.0,0.0,0.0,0.0,0.0,0.0,2.5993,2.5771,2.6134,2.7158,2.626,2.6072,2.6634,2.6771,2.7031,2.7554,2.7889,2.7968,2.7803,2.8818,2.8907,2.8217,2.8217,2.8205,2.7927,2.6577,2.5767,2.5486,2.4471,2.3955,2.3888,2.3745,2.3321,2.2636,2.1915,2.1182,2.0477,2.0093,0.0,1.9221,1.9221,0.0,0.0,0.0,0.0,2.0284,2.078,2.0806,2.0755,2.0882,2.0819,2.081,2.0526,2.0323,2.0462,0.0,2.1704,2.1435,2.1289,0.0,0.0,0.0,0.0,2.1935,2.2257,2.2564,2.2842,2.3091,2.3106,2.3106,2.3106,2.3106,2.3208,2.3457,2.3471,2.3618,2.394,2.4188,2.4247,2.4086,0.0,0.0,0.0,0.0,0.0,0.0,0.0,0.0,0.0,0.0,0.0,0.0,0.0,0.0,0.0,0.0,0.0,0.0,0.0,0.0,0.0,0.0,0.0,0.0,0.0,0.0,0.0,0.0,0.0,2.8209,2.7826,0.0,0.0,0.0,0.0,2.5721,2.5389,2.5716,2.6711,2.5959,2.6424,2.8106,2.8688,2.875,2.7879,2.8757,2.8485,2.7055,2.6746,2.6599,2.6614,2.629,2.6983,2.8217,2.8217,2.9028,3.0038,2.6614,2.5158,2.5206,2.5206,2.5463,2.5832,2.4545,2.4416,2.4531,2.258,2.2055,2.2002,2.1201,2.0348,1.9511,1.9511,1.9649,0.0,0.0,2.0333,2.0396,2.0712,2.0977,2.1238,2.0851,2.0977,2.1149,2.0472,2.0345,2.0297,0.0,1.976,1.9827,2.0237,0.0,2.0614,2.1554,2.195,2.2271,2.2564,2.2886,2.3091,2.3106,2.3106,2.3106,2.3106,2.3106,2.312,2.3135,2.3135,2.3281,2.3603,2.3632,2.3779,2.4071,2.3793,0.0,0.0,0.0,0.0,0.0,0.0,0.0,0.0,0.0,0.0,0.0,0.0,0.0,0.0,0.0,0.0,0.0,0.0,0.0,0.0,0.0,0.0,0.0,0.0,0.0,0.0,0.0,0.0,2.8545,2.8871,0.0,2.8685,2.8466,2.8156,2.7736,2.7603,2.7713,2.8472,2.79,2.8142,2.945,2.9123,2.8894,2.8786,2.8278,2.8026,2.8026,2.8274,2.7962,2.7515,2.838,2.89,2.8916,2.8333,2.8632,2.9249,2.6919,2.6421,2.705,2.6145,2.6012,2.6168,2.5872,2.4743,2.312,2.2268,2.0876,1.9511,1.8997,1.8553,1.8182,1.833,1.8376,1.8456,1.8799,1.8776,1.8707,1.897,1.8981,1.8901,1.881,1.8741,1.8726,1.8369,1.8159,1.8056,1.7851,1.8921,1.9927,1.9788,1.9846,1.9902,1.996,2.0307,2.0535,2.0628,2.0909,2.1475,2.2104,2.2104,2.2355,2.2981,2.3106,2.3106,2.3106,2.3106,2.3164,2.3281,2.3486,2.3647,2.3764,2.3866,2.3706,0.0,0.0,0.0,0.0,0.0,0.0,0.0,0.0,0.0,0.0,0.0,0.0,0.0,0.0,0.0,0.0,0.0,0.0,0.0,0.0,0.0,0.0,0.0,0.0,0.0,0.0,2.9008,2.9145,2.9932,3.0276,3.0004,2.9733,2.9581,2.929,2.8995,2.9241,2.988,2.9405,2.9457,3.0082,2.9881,2.9672,2.9305,2.8792,2.858,2.8633,2.8711,2.8397,2.771,2.8835,2.9138,2.8866,2.8274,2.8377,2.8632,2.7214,2.7092,2.7729,2.6816,2.6503,2.6501,2.609,2.4451,2.2215,2.1258,1.9681,1.8172,1.7798,1.7561,1.7421,1.7647,1.7669,1.7669,1.8003,1.797,1.7906,1.8142,1.8089,1.7959,1.7959,1.7841,1.7647,1.7313,1.7249,1.7184,1.6947,1.8104,1.9066,1.8963,1.9013,1.8951,1.9145,1.9271,1.9585,1.9776,1.9966,2.0335,2.0969,2.1362,2.1727,2.2104,2.2355,2.248,2.2104,2.2104,2.2104,2.2104,2.2202,2.23,2.2398,2.2608,2.251,2.2104,0.0,0.0,0.0,0.0,0.0,0.0,0.0,0.0,0.0,0.0,0.0,0.0,0.0,0.0,0.0,0.0,0.0,0.0,0.0,0.0,0.0,0.0,0.0,2.7689,2.8631,2.9521,2.9915,3.0943,3.1192,3.026,3.026,3.0326,3.0103,2.9709,2.9921,3.097,3.0276,2.986,2.9762,3.1308,3.1308,2.9641,3.04,3.0072,2.8664,2.7925,2.7305,2.6969,2.6969,2.7405,2.8114,2.8114,2.8377,2.8632,2.7199,2.6653,2.6709,2.691,2.7035,2.6839,2.5026,2.3509,2.1958,1.953,1.8627,1.8457,1.7944,1.7583,1.7443,1.7669,1.7583,1.7507,1.797,1.8099,1.8153,1.8379,1.8433,1.8433,1.8433,1.8433,1.8293,1.7819,1.7723,1.7647,1.7421,1.7184,1.7139,1.7665,1.7696,1.8066,1.9048,1.917,0.0,1.9903,1.9966,2.0094,2.0094,2.0982,2.1109,2.0208,2.0982,2.1109,2.0208,2.0081,2.0081,2.0081,1.9814,1.9801,2.0068,2.0068,2.0068,2.0068,0.0,0.0,0.0,0.0,0.0,0.0,0.0,0.0,0.0,0.0,0.0,0.0,0.0,0.0,0.0,0.0,0.0,0.0,0.0,0.0,0.0,0.0,2.8254,2.8426,2.9658,3.0789,3.1439,3.2278,3.2758,3.2363,3.2448,3.2465,3.2363,3.1695,3.1647,3.2651,3.216,3.1658,3.1275,3.1988,3.1999,3.093,3.0373,2.9729,2.9,2.8459,2.7759,2.6632,2.7206,2.7906,2.8633,2.8048,2.7983,2.8233,2.7003,2.6081,2.5351,2.4955,2.4996,2.5291,2.4804,2.363,2.1971,1.9793,1.8902,1.8616,1.8686,1.8347,1.8074,1.8854,1.86,1.8175,1.8582,1.8476,1.8358,1.8422,1.8433,1.8433,1.8714,1.8443,1.8237,1.8193,1.7847,1.7647,1.7421,1.7453,1.7608,1.7741,1.7719,1.7851,1.8114,1.8114,0.0,1.8294,1.829,1.845,1.909,1.948,1.9911,2.0475,2.0644,2.067,2.0462,2.0208,2.0081,2.0081,2.0005,1.9992,2.0081,1.9877,1.9776,0.0,0.0,0.0,0.0,0.0,0.0,0.0,0.0,0.0,0.0,0.0,0.0,0.0,0.0,0.0,0.0,0.0,0.0,0.0,0.0,0.0,0.0,2.8768,2.9436,3.0292,3.1028,3.1765,3.2518,3.3546,3.4145,3.4008,3.3822,3.3839,3.3991,3.3061,3.2657,3.3281,3.318,3.2724,3.2032,3.2724,3.2757,3.184,3.0725,3.0,2.9501,2.8734,2.7931,2.7122,2.7829,2.8334,2.8773,2.8491,2.8206,2.8098,2.6482,2.5371,0.0,0.0,0.0,0.0,0.0,2.2062,2.1009,1.9632,1.9107,1.9037,1.921,1.8902,1.8683,1.9333,1.9194,1.886,1.91,1.9055,1.8721,1.8821,1.8776,1.886,1.91,1.8883,1.844,1.8461,1.8281,1.8101,1.797,1.8182,0.0,1.8276,1.7912,1.7572,1.7705,1.7705,1.7615,1.797,1.7738,1.7784,1.857,1.8742,1.9137,1.9628,1.9782,0.0,0.0,0.0,1.8884,1.8649,1.8744,0.0,0.0,0.0,1.8566,1.8566,0.0,0.0,0.0,1.9018,1.9103,0.0,0.0,0.0,0.0,0.0,0.0,0.0,0.0,0.0,0.0,0.0,0.0,0.0,0.0,0.0,0.0,3.0069,3.108,3.2604,3.2604,3.2724,3.3443,3.4693,3.5378,3.507,3.4693,3.4568,3.5001,3.4037,3.3387,3.3387,0.0,0.0,0.0,0.0,3.3416,3.2604,3.1533,3.0734,2.9901,2.8826,2.8206,2.8274,2.8633,2.8726,2.885,2.9186,2.8805,2.8079,2.607,2.5043,2.444,2.3735,2.3079,2.2408,2.0731,1.9922,1.9769,1.9426,0.0,0.0,1.9393,1.9324,1.9255,1.9611,1.9531,1.9255,1.9623,1.9519,1.9267,1.9484,1.9358,1.9233,1.9623,1.939,1.9033,1.8854,1.8809,1.8672,1.8672,1.8947,1.9152,1.9089,1.8178,1.763,1.8017,1.7763,1.7839,1.8306,1.8047,1.8025,1.8295,0.0,0.0,1.8433,1.8771,1.8618,1.7658,1.7529,1.7301,1.6838,1.7022,1.7033,1.6838,1.7033,1.7001,1.7001,1.7033,1.7044,1.7044,1.7927,1.7911,0.0,0.0,0.0,0.0,0.0,0.0,0.0,0.0,0.0,0.0,0.0,0.0,0.0,0.0,0.0,2.9967,3.0857,3.1885,3.3391,3.4076,3.459,3.5018,3.5326,3.5481,3.5412,3.5305,3.5202,3.5001,3.4742,3.4708,3.4708,3.4796,3.4486,3.3923,3.4163,3.3669,3.2604,3.2369,3.1669,3.0648,0.0,0.0,2.9122,2.8916,2.9035,2.9313,2.9379,2.8915,2.8047,2.7473,2.6345,2.466,2.2076,2.1021,2.102,2.0195,2.0143,2.0395,1.9975,1.9858,2.0074,2.009,1.9863,1.9623,2.0225,2.0063,0.0,1.9959,1.9796,1.9484,1.9529,1.9358,1.937,1.9912,1.9531,1.929,1.9727,1.9611,1.9472,1.9472,1.9472,1.9484,1.9529,1.901,1.8772,1.8783,1.8783,1.8794,1.8838,1.8947,1.8823,1.8561,1.8925,1.9002,1.8467,1.8703,1.8611,1.7939,1.7905,1.7882,1.7708,1.7753,1.7753,1.7708,1.7507,1.74,1.74,1.7337,1.7303,1.7303,1.7228,1.7163,0.0,0.0,0.0,0.0,0.0,0.0,0.0,0.0,0.0,0.0,0.0,2.8066,2.8648,0.0,2.9864,3.1576,3.233,3.3169,3.4487,3.5001,3.5309,3.5481,3.5686,3.5806,3.5806,3.5806,3.572,3.5549,3.5361,3.5241,3.5241,3.507,3.4881,3.4693,3.4487,3.4146,3.3482,3.2657,3.1992,3.1199,3.0648,3.0195,2.9965,2.9905,3.0076,3.0169,3.0169,2.9776,2.9149,2.8076,2.6421,2.4191,2.2245,2.1543,2.1394,2.0588,2.0364,2.0448,2.0327,2.0311,2.0364,2.0521,2.0281,2.0249,2.0527,2.0388,2.0098,2.0388,2.0154,1.9945,2.0074,1.991,1.9929,2.0328,2.0016,1.9681,2.0086,1.997,1.9831,1.9831,1.997,2.011,1.9831,1.9588,1.9415,1.9529,1.9413,1.9401,1.9552,1.9438,1.9358,1.937,1.9255,1.9209,1.937,1.9201,1.8847,1.8337,1.8289,1.817,1.8045,1.8159,1.8216,1.8216,1.8222,1.8027,1.7895,1.7884,1.7817,1.755,1.7421,1.7432,0.0,0.0,0.0,0.0,0.0,0.0,0.0,0.0,2.8614,2.8545,2.87,2.9128,3.0052,3.0583,3.1439,3.3203,3.3802,3.4419,3.5481,3.5618,3.5618,3.5618,3.5909,3.6097,3.6097,3.6097,3.6097,3.6097,3.5806,3.5618,3.5618,3.5275,3.5052,3.4984,3.459,3.435,3.4128,3.2827,3.2044,3.1614,3.1032,3.0667,3.0793,3.1005,3.108,3.1011,3.0857,3.0617,3.0156,2.8672,2.6771,2.4735,2.3969,2.3486,2.3158,2.1333,2.0496,2.0376,2.0533,2.0629,2.0665,2.0665,2.0665,2.0665,2.0665,2.0665,2.0678,2.0726,2.0557,2.0412,2.0678,2.0509,2.034,2.0605,2.0352,2.019,2.0249,2.0249,2.0249,2.0249,2.0527,2.0515,2.019,2.0048,1.9875,2.0086,1.9785,1.9773,2.011,1.997,1.9831,2.011,1.9784,1.9781,2.0279,1.9757,1.9291,1.8877,1.8734,1.8484,1.8323,1.8592,1.8696,1.8742,1.8829,1.8799,1.8519,1.8429,1.8328,1.7922,1.8101,1.8053,2.5703,2.5395,0.0,2.6199,2.6987,2.7775,0.0,0.0,3.0087,2.9778,3.0498,3.1234,3.1354,3.1953,3.2826,3.4059,3.459,3.5121,3.5909,3.6029,3.6029,3.6029,3.6063,3.6097,3.6097,3.6097,3.6097,3.6097,3.6063,3.6029,3.6029,3.5652,3.5309,3.4984,3.459,3.3924,3.2806,3.3027,3.2774,3.196,3.198,3.1929,3.1912,3.1679,3.1319,3.0977,3.0309,3.0001,2.9932,2.9389,2.899,2.861,2.7185,2.6737,2.6126,2.1862,2.0448,2.0593,2.0388,2.0472,2.0665,2.0665,2.0665,2.0665,2.0665,2.0665,2.0714,2.0943,2.0822,2.069,2.0943,2.0653,2.034,2.0605,2.0496,2.0388,2.0617,2.0665,2.0665,2.0665,2.0665,2.0593,2.0364,2.0484,2.0503,2.011,1.9922,1.9863,2.0086,2.0388,2.0388,2.011,2.0364,2.0533,2.0291,1.9757,1.9444,1.9796,1.946,1.9436,1.9651,1.9448,1.9448,1.9699,1.9456,1.9334,1.9334,1.9151,1.913,1.9005,1.922,1.882,2.5823,0.0,0.0,0.0,2.8545,2.9676,3.0001,3.06,3.1114,3.1183,3.1576,3.2107,3.2758,3.3323,3.3974,0.0,3.5361,3.5737,3.6046,3.6097,3.6011,3.5772,3.5755,3.584,3.6063,3.6097,3.6097,3.6097,3.6097,3.6097,3.6097,3.572,3.5344,3.4984,3.4385,3.3736,3.3044,3.2765,3.2458,3.2002,3.1912,3.1799,3.1799,3.1628,3.1371,3.0977,3.0224,3.0018,3.0155,2.9556,2.8891,2.8243,2.7515,2.662,2.5532,2.2821,2.1782,2.1721,2.0808,2.0581,2.0665,2.0665,2.0665,2.0665,2.0665,2.0665,2.069,2.0798,2.075,2.069,2.0798,2.0665,2.0533,2.0641,2.0472,2.0352,2.0617,2.0545,2.0484,2.0641,2.0665,2.0629,2.0521,2.0472,2.0496,2.0503,2.0304,2.0269,2.0376,2.0665,2.0605,2.0185,2.0167,2.0098,1.9833,1.9855,1.9843,1.9664,1.9833,1.9929,1.9881,1.9917,1.9989,2.011,2.0909,2.086,1.9793,2.0561,2.0884,2.061,2.0719,2.0509,2.6028,0.0,0.0,2.8391,2.9761,3.1063,3.1285,3.1696,3.2107,3.2381,3.2535,3.2895,3.382,3.4299,0.0,3.5412,3.584,3.6097,3.6097,3.5994,3.5789,3.5412,3.5258,3.5309,3.56,3.5806,3.5977,3.608,3.6097,3.6046,3.5943,3.5566,3.5189,3.483,3.4179,3.37,3.3426,3.2672,3.233,3.245,3.1953,3.1713,3.1713,3.1611,3.1371,3.0994,3.0446,3.0241,3.0241,2.9693,2.8876,2.8174,2.793,2.7169,2.595,2.4588,2.3774,2.3215,2.2069,2.1546,2.1195,2.1121,2.0882,2.0665,2.0665,2.0665,2.069,2.0762,2.0774,2.0774,2.0774,2.0774,2.0762,2.069,2.0472,2.0352,2.0617,2.046,2.0352,2.0617,2.0665,2.0641,2.0569,2.046,2.0424,2.0545,2.0617,2.0665,2.0665,2.0665,2.0569,2.0303,2.011,1.9881,1.9603,2.0014,2.011,1.9712,2.0453,2.0884,2.0759,2.1276,2.1513,2.159,2.2726,2.2832,2.1471,2.2559,2.2682,2.1996,2.1996,2.1872,0.0,0.0,2.7467,2.8905,3.0155,3.12,3.1936,3.2672,3.322,3.3237,3.3528,3.3905,3.4299,3.4693,3.507,3.5446,3.584,3.6097,3.6097,3.5772,3.5395,3.5035,3.4659,3.4419,0.0,3.5104,3.5686,3.6063,3.6097,3.5926,3.5549,3.5189,3.4813,3.4419,3.4042,3.3837,3.382,3.3049,3.2861,3.322,3.2467,3.2107,3.2107,3.173,3.1371,3.1011,3.0994,3.0583,2.9915,2.9881,2.9658,2.9185,2.9185,2.9185,2.9036,2.7567,2.6218,2.4829,2.4494,2.3658,2.2642,2.2377,2.1531,2.0665,2.0665,2.0665,2.0726,2.0979,2.1052,2.1052,2.1052,2.1052,2.0979,2.0726,2.0472,2.0352,2.0617,2.046,2.0352,2.0617,2.0665,2.0593,2.0327,2.0496,2.0569,2.0327,2.0509,2.0665,2.0665,2.0665,2.0569,2.0303,2.0267,2.0158,1.9893,2.0122,2.0267,2.0255,2.1584,2.2512,2.2642,2.3856,2.4657,2.4858,2.4873,2.4873,2.4873,2.4873,2.4181,2.2819,2.2819,2.2009,0.0,0.0,2.9248,3.0498,3.1662,3.2638,3.3152,3.346,3.3648,3.3648,3.3152,3.2809,3.3186,3.3357,3.358,3.3957,3.4779,3.5344,3.5344,3.5446,3.5275,3.4659,3.447,0.0,0.0,0.0,0.0,3.5652,3.5703,3.5652,3.5515,3.4915,3.4522,3.4385,3.3528,3.3203,3.346,3.2946,3.2758,3.2878,3.2364,3.2141,3.2107,3.1491,3.1131,3.0994,3.0498,3.0138,2.9881,2.9607,2.9436,2.9316,2.9316,2.9316,2.9168,2.8774,2.823,2.7535,2.5546,2.4501,2.4303,2.4068,2.384,2.3515,2.3515,2.3515,2.3584,2.4011,2.4095,2.4095,2.4095,2.4095,2.3748,2.2349,2.1939,2.159,2.1102,2.0726,2.0617,2.0871,2.0931,2.0847,2.0581,2.0605,2.1044,2.1893,2.1283,2.0665,2.0665,2.0364,2.0183,2.0267,2.0876,2.1214,2.1304,2.2484,2.3181,2.3181,2.3448,2.3856,2.4181,2.4419,2.4671,2.4993,2.595,2.595,2.5008,2.595,2.6218,2.5667,2.5667,2.5532,0.0,2.9128,3.0395,3.1645,3.2724,3.3546,3.3785,3.3939,3.3957,3.3683,3.2826,3.2159,3.2261,3.2278,3.233,3.245,3.3426,3.4213,3.435,3.4556,3.4573,3.4231,3.4076,3.3991,0.0,0.0,0.0,3.5241,3.5429,3.5446,3.5326,3.4984,3.4659,3.4402,3.3683,3.3357,3.3477,3.3083,3.2826,3.2672,3.245,3.2261,3.2107,3.1354,3.0943,3.0789,3.0292,2.9932,2.9676,2.9573,2.9436,2.9316,2.9316,2.9316,2.9316,2.9316,2.9316,2.902,2.7026,2.6126,2.5801,2.5665,2.5308,2.5008,2.5008,2.5081,2.5213,2.5555,2.5775,2.5923,2.582,2.5864,2.56,2.4316,2.3721,2.3502,2.3047,2.2571,2.2375,2.2662,2.2636,2.2545,2.2467,2.2454,2.2677,2.3515,2.2832,2.2297,2.2297,2.1984,2.1789,2.1854,2.2322,2.2641,2.2724,2.3926,2.4628,2.4628,2.5143,2.5589,2.5816,2.6004,2.6253,2.6486,2.7435,2.7435,2.6486,2.7435,2.77,2.7169,2.7169,2.6902,2.9275,3.0083,3.1029,3.2492,3.3272,3.3837,3.3837,3.4094,3.4111,3.3374,3.257,3.1902,0.0,0.0,3.1371,3.1046,3.197,3.2878,3.3237,3.3357,3.3511,0.0,0.0,0.0,0.0,0.0,0.0,3.4864,0.0,3.5309,3.5018,3.5292,3.5138,3.4436,3.435,3.4179,3.3871,3.3477,3.3083,3.2707,3.2672,3.2467,3.2073,3.1354,3.0789,3.0395,3.0395,2.9984,2.9333,2.971,2.9641,2.9316,2.9316,2.9316,2.9316,2.9316,2.9316,2.9265,2.8922,2.8096,2.7238,2.6887,2.6075,2.5278,2.5292,2.5514,2.5888,2.5933,2.6224,2.6624,2.6343,2.6476,2.6624,2.6313,2.5988,2.5855,2.6055,2.5643,2.5305,2.5599,2.5257,2.5125,2.5555,2.5599,2.5633,2.5202,2.5158,2.5143,2.5008,2.4993,2.4862,2.4687,2.4643,2.4656,2.4361,2.4612,2.479,2.479,2.6417,2.7286,2.7302,2.8625,2.9299,2.9316,2.9316,2.9316,2.9316,2.9316,2.8642,2.7302,2.7302,2.662,3.2842,3.3248,3.3554,3.4231,3.4057,3.3837,3.3837,3.37,3.334,3.2587,3.1388,3.0275,0.0,0.0,0.0,3.0549,3.2244,0.0,3.3683,3.4419,0.0,0.0,0.0,3.4539,3.4539,3.4179,0.0,0.0,3.4796,3.4881,3.5344,3.4933,3.4727,3.483,3.4008,3.3785,3.4248,3.3597,3.322,3.3117,3.2552,3.2073,3.1696,3.1234,3.0652,3.0035,3.0035,2.9761,2.9316,2.9419,2.9402,2.9316,2.9316,2.9316,2.9316,2.9316,2.9316,2.9299,2.9196,2.8969,2.8757,2.8656,2.8427,2.8279,2.8576,2.8708,2.8906,2.9435,2.9517,2.9484,2.9682,2.9583,2.9143,2.794,2.7708,2.7462,2.652,2.632,2.6232,2.632,2.5878,2.5511,2.5599,2.6239,2.6806,2.6962,2.7729,2.7419,2.5278,2.4788,2.4701,2.4862,2.5733,2.6315,2.6471,2.7506,2.8081,2.8081,2.8341,2.8504,2.8757,2.8912,2.9042,2.9299,2.9316,2.9316,2.9316,2.9316,2.9168,2.8774,2.8774,2.851,3.4948,3.5294,3.5628,3.6035,3.5294,3.4399,3.3716,3.3085,3.2415,3.1148,3.0104,0.0,0.0,0.0,0.0,0.0,0.0,0.0,3.3066,3.3922,3.4436,0.0,3.4487,0.0,3.471,3.4522,3.4624,0.0,3.5001,3.507,3.5481,3.5275,3.5155,3.5207,3.4436,3.4059,3.4145,3.3563,3.3186,3.2998,3.2415,3.185,3.1302,3.0926,3.0446,2.9881,0.0,2.9521,2.9316,2.9316,2.9316,2.9316,2.9316,2.9316,2.9316,2.9316,2.9316,2.9316,2.9316,2.9316,2.9316,2.9316,2.9436,2.9607,2.983,3.0121,3.0446,3.0686,3.084,3.0943,3.0994,3.0977,3.0787,2.9937,2.9798,2.9568,2.89,2.8538,2.8397,2.8224,2.7878,2.7763,2.7763,2.8148,2.859,2.864,2.916,2.8959,2.7185,2.6713,2.6666,2.6871,2.7522,2.8015,2.8081,2.8905,2.9316,2.9316,2.9128,2.9111,2.9299,2.9111,2.9042,2.9076,2.923,2.923,2.9076,2.923,2.9316,2.9316,2.9316,2.9316,3.6495,3.6923,3.7181,3.7563,3.6737,3.5412,3.3848,3.272,3.1511,2.9602,0.0,0.0,2.8049,0.0,2.8768,2.8974,0.0,3.1816,3.2296,3.3066,3.3648,3.3888,3.4333,3.459,3.4539,3.459,3.4881,3.5532,3.5583,3.5583,3.5583,3.5857,3.5823,3.5378,3.5104,3.459,3.3768,3.3374,3.2998,3.2604,3.2227,3.1662,3.0926,3.0583,3.0206,2.9795,2.9453,0.0,2.9316,2.9316,2.9316,2.9316,2.9316,2.9316,2.9316,2.9316,2.9316,2.9316,2.9316,2.9316,2.9316,2.9316,2.9539,2.983,2.9881,3.0343,3.0823,3.0583,3.0943,3.1354,3.1148,3.1285,3.1508,3.1559,3.1559,3.1559,3.1559,3.1319,3.0977,3.0583,3.0463,3.0429,3.0429,3.0395,3.0275,3.0001,2.9932,2.9795,2.9504,2.9419,2.9367,2.9316,2.9402,2.9419,2.9316,2.9367,2.9367,2.9316,2.9316,2.9316,2.9316,2.9316,2.9162,2.8854,2.9145,2.9162,2.8854,2.9162,2.9316,2.9316,2.9316,2.9316,3.9351,3.9109,3.8728,3.8806,3.7682,3.6062,3.4752,3.3166,0.0,0.0,0.0,2.7604,2.6919,0.0,0.0,2.995,0.0,0.0,0.0,0.0,3.4915,0.0,0.0,0.0,0.0,0.0,0.0,0.0,0.0,3.5994,3.5994,3.5755,3.5292,3.4607,3.4847,3.4453,3.3374,3.2981,3.2604,3.2227,3.185,3.1268,3.0532,3.0463,3.0052,2.9402,2.9333,0.0,2.9316,2.9316,2.9316,2.9316,2.9316,2.9316,2.9316,2.9316,2.9316,2.9316,2.9316,2.9316,2.9316,2.9316,2.935,2.947,2.9795,2.9984,3.0206,3.0754,3.0772,3.0754,3.1319,3.1285,3.1183,3.1491,3.1559,3.1559,3.1559,3.1508,3.1354,3.0994,3.0652,3.0429,3.0429,3.0189,3.0069,3.0309,3.0087,2.9984,3.0206,2.9984,2.9676,2.935,2.9864,2.9984,2.9367,2.9607,2.9658,2.9333,2.9316,2.9316,2.9316,2.9316,2.9282,2.9213,2.9282,2.9282,2.9213,2.9282,2.9316,2.9316,2.9316,2.9316,4.0386,4.0269,3.9941,3.9718,3.8283,3.6441,3.4464,0.0,0.0,0.0,0.0,2.7848,2.7335,0.0,0.0,0.0,0.0,0.0,0.0,0.0,0.0,0.0,0.0,0.0,0.0,0.0,0.0,0.0,0.0,3.6097,3.6097,3.572,3.5258,3.471,3.4676,3.4213,3.3272,3.2878,3.2501,3.2124,3.1748,3.1165,3.0429,3.0635,3.0206,2.9316,2.9521,0.0,2.9316,2.9316,2.9316,2.9316,2.9316,2.9316,2.9316,2.9316,2.9436,2.9607,2.9607,2.9607,2.9607,2.9607,2.9607,2.9658,2.9847,3.0172,3.0515,3.0669,3.0857,3.1063,3.1234,3.1285,3.1337,3.1525,3.1559,3.1508,3.1319,3.1422,3.1388,3.0823,3.072,3.0737,3.0737,3.06,3.0532,3.0703,3.0583,3.0463,3.0429,3.0275,3.0035,2.9658,2.9761,2.9693,2.9333,2.9676,2.9813,2.9624,2.9607,2.9607,2.9607,2.9419,2.923,2.9042,2.9213,2.9128,2.8734,2.9128,2.9213,2.9042,2.923,2.9419,4.051,4.08,4.0779,4.0344,3.8824,3.6904,3.4363,3.2466,0.0,0.0,0.0,0.0,0.0,0.0,0.0,0.0,0.0,0.0,0.0,0.0,0.0,0.0,0.0,0.0,0.0,0.0,0.0,0.0,0.0,0.0,3.5977,3.5669,3.5309,3.4864,3.447,3.3905,3.3152,3.2758,3.2381,3.2004,3.1713,3.12,3.0566,3.0874,3.0429,2.9453,2.9761,0.0,0.0,2.9402,2.9436,2.9436,2.9521,2.9504,2.9436,2.9436,2.9573,2.9778,2.9778,2.983,2.9898,2.9898,2.9847,2.9795,2.9881,3.0258,3.0617,3.0463,3.0857,3.1268,3.1063,3.1285,3.1559,3.1559,3.1628,3.1611,3.1319,3.1542,3.1576,3.0823,3.0994,3.1234,3.1148,3.1063,3.1063,3.1234,3.1046,3.084,3.0686,3.0463,3.0275,3.0155,2.9778,2.9487,2.9316,2.9744,2.9984,2.9898,2.9967,3.0018,3.0018,2.971,2.9419,2.9145,2.9402,2.923,2.8563,2.9145,2.9299,2.9025,2.9316,2.9641,4.0158,4.0572,4.0779,4.0344,3.9399,3.7996,3.5253,0.0,0.0,0.0,0.0,0.0,0.0,0.0,0.0,0.0,0.0,0.0,0.0,0.0,0.0,0.0,0.0,0.0,0.0,0.0,0.0,0.0,0.0,0.0,3.5583,3.5532,3.5172,3.447,3.4076,3.3511,3.2741,3.2364,3.1987,3.1611,3.1576,3.1354,3.096,3.0994,3.0583,2.9847,2.9881,0.0,0.0,2.9693,2.9847,2.9881,3.0206,3.0121,2.9847,2.9847,2.9641,2.9367,2.9367,2.959,2.9898,2.9898,2.9658,2.9436,2.9795,2.9693,2.9607,3.0241,3.048,3.06,3.0926,3.1285,3.1559,3.1559,3.1833,3.2073,3.2039,3.2313,3.2364,3.1611,3.1765,3.1919,3.1576,3.1234,3.1251,3.1936,3.1148,3.072,3.1371,3.0583,3.0189,3.084,3.0566,3.0052,2.9367,2.9967,3.0241,2.9915,3.0206,3.0378,3.0378,3.0343,3.0309,3.0275,3.0309,3.0138,2.9744,2.9813,2.983,2.9795,2.983,3.0035,3.9537,4.0323,4.0696,3.9992,3.8916,3.7384,3.49,0.0,0.0,0.0,0.0,0.0,2.9303,0.0,0.0,0.0,0.0,0.0,0.0,0.0,0.0,0.0,0.0,0.0,0.0,0.0,0.0,0.0,0.0,0.0,3.5207,3.5189,3.4933,3.4402,3.3802,3.3237,3.2689,3.2535,3.2159,3.1576,3.1799,3.1593,3.1028,3.1251,3.0823,2.9915,3.0121,0.0,0.0,2.983,3.0018,3.0206,3.0138,3.0018,2.9864,2.9641,2.959,2.9693,2.9915,2.995,2.9967,3.0429,3.0155,2.9693,2.9847,3.0104,3.0343,3.0412,3.0754,3.1148,3.1302,3.1456,3.1559,3.1559,3.1679,3.173,3.1508,3.1936,3.2124,3.1388,3.1902,3.2347,3.197,3.197,3.2124,3.2415,3.2073,3.1816,3.1902,3.1319,3.0926,3.1011,3.0463,3.0069,2.9984,3.048,3.072,3.0583,3.0703,3.0789,3.0789,3.0549,3.0429,3.0429,3.0224,2.9915,2.9539,2.9778,2.9778,2.9556,3.0001,3.0412,3.8605,3.9785,4.0489,3.9723,3.8502,3.6887,0.0,0.0,0.0,0.0,0.0,3.0175,3.0158,3.0369,3.0505,3.0547,0.0,3.1378,0.0,0.0,0.0,0.0,0.0,0.0,0.0,0.0,0.0,0.0,0.0,0.0,3.483,3.4796,3.4624,3.4231,3.3494,3.3015,3.2861,3.2638,3.2261,3.173,3.2004,3.1799,3.1183,3.1439,3.108,3.0241,3.0498,0.0,0.0,3.0172,3.0309,3.0412,3.0275,3.0155,3.0018,2.9744,2.9813,3.0069,3.0224,3.0258,3.0292,3.0703,3.0635,3.0361,3.0258,3.0515,3.0806,3.0652,3.0994,3.1422,3.1542,3.1559,3.1559,3.1559,3.1645,3.1696,3.1542,3.2022,3.2313,3.1782,3.2415,3.2912,3.2535,3.2587,3.2758,3.2998,3.2741,3.2501,3.2467,3.2039,3.1679,3.1525,3.0943,3.0532,3.0429,3.0789,3.1011,3.1011,3.1114,3.1183,3.1183,3.0806,3.0652,3.0772,3.0412,3.0087,2.9813,2.9984,2.9915,2.9658,3.0069,3.048,3.726,3.8854,4.0116,3.9661,3.8502,3.6887,0.0,0.0,0.0,0.0,3.0367,3.0677,3.0698,3.1422,3.2043,3.1932,3.2323,3.2738,3.2947,0.0,0.0,0.0,0.0,0.0,0.0,0.0,0.0,0.0,0.0,0.0,3.4436,3.4402,3.4231,3.3854,3.31,3.2878,3.3254,3.2518,3.2141,3.2124,3.2141,3.1936,3.1559,3.1559,3.1354,0.0,0.0,0.0,0.0,3.084,3.0772,3.0463,3.0857,3.0772,3.0429,3.0412,3.0412,3.0378,3.0018,3.0395,3.0943,3.0566,3.0943,3.1474,3.1114,3.0737,3.0515,3.0909,3.1011,3.1114,3.1474,3.1559,3.1559,3.1559,3.185,3.2227,3.2587,3.2981,3.3254,3.3254,3.3563,3.37,3.3323,3.2929,3.2946,3.3717,3.2861,3.2415,3.3169,3.2604,3.2261,3.2621,3.233,3.1662,3.0532,3.0789,3.1011,3.1011,3.1354,3.1559,3.1559,3.12,3.1183,3.1542,3.1183,3.0994,3.0994,3.0617,3.0412,3.0412,3.0069,3.0104,3.49,3.6039,3.6908,3.6763,3.5687,3.4403,3.3389,0.0,0.0,0.0,3.0325,3.0408,3.105,3.1133,3.1319,3.194,3.2168,3.2406,0.0,0.0,0.0,0.0,0.0,0.0,0.0,0.0,0.0,0.0,0.0,0.0,3.6824,3.5779,3.4847,3.3837,3.334,3.3135,3.3272,3.2758,3.2381,3.2141,3.2141,3.1936,3.1559,3.1559,3.1371,0.0,0.0,0.0,0.0,3.096,3.1097,3.12,3.1063,3.0943,3.0789,3.0532,3.0429,3.0446,3.06,3.0635,3.0686,3.108,3.12,3.1217,3.1354,3.1302,3.1234,3.1354,3.1388,3.1422,3.1542,3.1559,3.1559,3.1559,3.185,3.2159,3.2278,3.2809,3.3272,3.3272,3.358,3.3802,3.3683,3.3563,3.3563,3.3802,3.3528,3.3289,3.3272,3.3066,3.2844,3.2689,3.2587,3.2364,3.2004,3.185,3.1782,3.1782,3.1885,3.1833,3.1576,3.1696,3.1713,3.1576,3.12,3.0874,3.0617,3.048,3.0429,3.0429,3.0583,3.072,0.0,3.47,3.5169,3.5169,3.4403,0.0,0.0,0.0,0.0,0.0,0.0,0.0,3.0781,3.0905,3.1133,3.1692,3.194,3.2271,0.0,0.0,0.0,0.0,0.0,0.0,0.0,0.0,0.0,0.0,0.0,0.0,3.7781,3.6775,3.5903,3.5157,3.3752,3.3117,3.3272,3.2741,3.2364,3.2141,3.2141,3.1936,3.1559,3.1559,3.1439,0.0,0.0,0.0,0.0,3.1234,3.1268,3.1337,3.1114,3.1011,3.0994,3.0737,3.0737,3.0874,3.0977,3.0943,3.0909,3.1251,3.1302,3.1268,3.1491,3.1559,3.1559,3.1559,3.1559,3.1559,3.1559,3.1559,3.1559,3.1559,3.185,3.2176,3.2313,3.2826,3.3306,3.346,3.3683,3.3837,3.3837,3.3837,3.3837,3.3837,3.3837,3.3751,3.3511,3.3477,3.3391,3.3152,3.3117,3.3117,3.3117,3.2638,3.2347,3.2347,3.2347,3.2176,3.1799,3.1867,3.1799,3.1576,3.12,3.096,3.0857,3.0566,3.0361,3.0241,3.048,3.0669,0.0,3.4453,3.4664,3.4565,3.4232,3.3672,0.0,0.0,0.0,0.0,0.0,0.0,0.0,3.0719,3.1298,3.1319,3.1671,3.2271,0.0,0.0,0.0,0.0,0.0,0.0,0.0,0.0,0.0,0.0,0.0,0.0,3.7677,3.7492,3.7473,3.7473,3.4519,3.3172,3.3552,3.2791,3.2268,3.2268,3.2251,3.2044,3.17,3.1559,3.1559,0.0,0.0,0.0,0.0,3.1542,3.1337,3.1063,3.1063,3.1063,3.1063,3.1063,3.1268,3.1508,3.1183,3.1285,3.1508,3.1165,3.1285,3.1559,3.1559,3.1559,3.1559,3.1559,3.1559,3.1559,3.1559,3.1559,3.1576,3.1593,3.1902,3.2278,3.2655,3.3032,3.3426,3.3768,3.3837,3.3854,3.3871,3.3854,3.3854,3.3871,3.3854,3.3837,3.3837,3.3837,3.3837,3.3837,3.3837,3.3837,3.3837,3.3152,3.2724,3.2724,3.2724,3.2552,3.2193,3.1867,3.1662,3.1611,3.1217,3.1183,3.1525,3.0789,3.0258,2.9932,2.9967,3.0155,3.4681,0.0,3.3487,3.3009,3.2534,3.2019,0.0,0.0,0.0,0.0,0.0,0.0,0.0,0.0,0.0,3.0801,3.0926,3.1443,0.0,0.0,0.0,0.0,0.0,0.0,0.0,0.0,0.0,0.0,0.0,4.0104,4.0146,3.8799,3.8171,3.8171,3.6236,3.5462,3.5869,3.5074,3.4648,3.4648,3.3495,3.2895,3.2806,3.1982,3.1559,0.0,0.0,0.0,3.1542,3.1268,3.1268,3.1439,3.1439,3.1439,3.1439,3.1439,3.1491,3.1559,3.1456,3.1491,3.1542,3.1456,3.1491,3.1559,3.1559,3.1559,3.1559,3.1559,3.1559,3.1559,3.1559,3.1559,3.1645,3.1936,3.2278,3.2655,3.3049,3.3426,3.3734,3.382,3.3837,3.3922,3.4213,3.4025,3.3939,3.4213,3.4025,3.3837,3.3837,3.3837,3.3837,3.3837,3.3837,3.3837,3.3837,3.3409,3.3135,3.3135,3.3135,3.2963,3.257,3.2758,3.2587,3.2004,3.1354,3.1063,3.1148,3.0669,3.0378,3.0309,3.0617,3.0789,3.5571,3.4385,3.317,3.2836,3.2654,3.2391,3.1634,0.0,0.0,0.0,0.0,0.0,0.0,0.0,0.0,0.0,3.1029,0.0,0.0,0.0,0.0,0.0,0.0,0.0,0.0,0.0,0.0,0.0,0.0,4.08,4.0593,3.9759,3.9091,3.8889,3.7888,3.693,3.6171,3.5527,3.5205,3.5205,3.4426,3.4038,3.39,3.2806,3.2386,0.0,0.0,0.0,3.1542,3.1354,3.1388,3.1542,3.1388,3.1319,3.1285,3.1114,3.1165,3.1319,3.1319,3.1319,3.1337,3.1508,3.1456,3.1337,3.1508,3.1559,3.1559,3.1559,3.1559,3.1559,3.1559,3.1559,3.1662,3.2039,3.2415,3.2792,3.3186,3.3563,3.3837,3.3837,3.3974,3.4094,3.4128,3.4111,3.4111,3.4128,3.3974,3.3905,3.4076,3.4094,3.4094,3.4094,3.4248,3.4213,3.3871,3.3802,3.3717,3.3546,3.3528,3.3357,3.2963,3.2981,3.2724,3.2141,3.1559,3.1268,3.1268,3.0891,3.0703,3.0703,3.1097,3.1354,3.6358,3.5066,3.3697,3.3499,3.3723,3.3742,0.0,0.0,0.0,0.0,0.0,0.0,0.0,0.0,0.0,0.0,0.0,0.0,0.0,0.0,0.0,0.0,0.0,0.0,0.0,0.0,0.0,0.0,0.0,4.051,4.0137,4.0054,3.9847,3.9454,3.9061,3.7799,3.5735,3.5566,3.5431,3.5431,3.5295,3.5139,3.5139,3.3845,3.3393,3.3255,0.0,0.0,3.2036,3.2036,3.2053,3.207,3.1704,3.1461,3.1323,3.0926,3.0892,3.1097,3.1236,3.1375,3.1427,3.1878,3.1756,3.1427,3.1738,3.17,3.1559,3.1559,3.1559,3.1559,3.1559,3.1611,3.1748,3.2124,3.2501,3.2878,3.3272,3.3614,3.3837,3.3837,3.4145,3.4282,3.3974,3.4231,3.4368,3.4059,3.4008,3.4128,3.4436,3.447,3.447,3.447,3.4779,3.4693,3.3991,3.4213,3.4231,3.3871,3.3837,3.37,3.3374,3.2981,3.2621,3.2313,3.1936,3.1713,3.1645,3.1337,3.1183,3.12,3.1508,3.185,3.6358,3.6168,3.5667,3.4775,3.4652,3.4406,0.0,0.0,0.0,0.0,0.0,0.0,0.0,0.0,0.0,0.0,0.0,0.0,0.0,0.0,0.0,0.0,0.0,0.0,0.0,0.0,0.0,0.0,0.0,3.9723,3.964,3.9268,3.9019,3.8957,3.8895,3.8347,3.7167,3.7473,3.7636,3.7636,3.6654,3.6248,3.6228,3.4776,3.4064,3.4045,0.0,3.3494,3.3792,3.3928,3.4134,3.4415,3.3867,3.3376,3.2802,3.2391,3.1826,3.1614,3.2577,3.2856,3.2995,3.402,3.3725,3.2856,3.291,3.2386,3.1559,3.1559,3.1559,3.1559,3.1559,3.1799,3.2141,3.2501,3.2895,3.3289,3.3665,3.3802,3.3837,3.3837,3.4145,3.4368,3.4316,3.4624,3.4864,3.4813,3.4796,3.483,3.4881,3.4881,3.4881,3.4881,3.4933,3.4796,3.435,3.435,3.4231,3.3871,3.3837,3.382,3.3751,3.3374,3.3152,3.31,3.2707,3.2364,3.2039,3.1987,3.197,3.197,3.2022,3.2244,3.6358,3.6358,3.6338,3.6133,3.5889,3.5379,0.0,0.0,0.0,0.0,0.0,0.0,0.0,0.0,0.0,0.0,0.0,0.0,0.0,0.0,0.0,0.0,0.0,0.0,0.0,0.0,0.0,0.0,0.0,0.0,3.9185,3.8957,3.873,3.8502,3.8253,3.7922,3.7508,3.7446,3.757,3.7819,3.7269,3.6983,3.6983,3.5677,3.4929,3.4716,0.0,3.3937,3.3803,3.4391,3.4429,3.4183,3.3993,3.3629,3.3391,3.341,3.3266,3.3157,3.3569,3.3705,3.3842,3.4388,3.4252,3.3879,3.4102,3.3762,3.3363,3.3363,3.2526,3.1611,3.1816,3.2004,3.2278,3.2861,3.3135,3.3374,3.3751,3.3837,3.3905,3.4094,3.4453,3.471,3.471,3.5018,3.5189,3.5001,3.4984,3.5052,3.5241,3.5258,3.5258,3.5258,3.5446,3.5258,3.4453,3.459,3.4453,3.3871,3.3837,3.3751,3.3546,3.3357,3.3272,3.3272,3.2878,3.2707,3.2741,3.2535,3.2433,3.2433,3.2655,3.2844,3.6358,3.6358,3.6458,3.6885,0.0,0.0,0.0,0.0,0.0,0.0,0.0,0.0,0.0,0.0,0.0,0.0,0.0,0.0,0.0,0.0,0.0,0.0,0.0,0.0,0.0,0.0,0.0,0.0,0.0,0.0,3.8709,3.8585,3.8378,3.8026,3.757,3.7281,3.7177,3.6825,3.6929,3.7488,3.7384,3.7384,3.7488,3.6426,3.5861,3.5351,3.498,3.4525,3.4178,3.495,3.4873,3.4274,3.4293,3.422,3.4089,3.4355,3.4372,3.4507,3.4661,3.4796,3.4777,3.5066,3.4931,3.4854,3.518,3.5158,3.4865,3.4865,3.3696,3.2597,3.2485,3.2694,3.2826,3.3283,3.334,3.3477,3.3768,3.3905,3.4042,3.4333,3.4779,3.507,3.4984,3.5344,3.5515,3.5155,3.5172,3.5326,3.5618,3.5635,3.5635,3.5635,3.5823,3.5532,3.447,3.459,3.447,3.3871,3.3837,3.37,3.3426,3.3409,3.3409,3.3409,3.31,3.3049,3.3272,3.2963,3.2826,3.2826,3.3135,3.3323,3.6358,3.6358,0.0,0.0,0.0,0.0,0.0,0.0,0.0,0.0,0.0,0.0,0.0,0.0,0.0,0.0,0.0,0.0,0.0,0.0,0.0,0.0,0.0,0.0,0.0,0.0,0.0,0.0,0.0,0.0,3.8253,3.7819,3.757,3.755,3.7094,3.6639,3.6225,3.6183,3.6618,3.7488,3.7053,3.7074,3.7488,3.6923,3.647,3.6057,3.6383,3.6321,3.593,3.6424,3.6609,3.6547,3.6547,3.6123,3.5599,3.5084,3.4827,3.4964,3.5918,3.6324,3.6479,3.7575,3.7173,3.6344,3.6364,3.5704,3.4865,3.4865,3.5168,3.5051,3.3961,3.4216,3.448,3.3552,3.3546,3.3802,3.3837,3.4111,3.435,3.4385,3.4967,3.5361,3.5035,3.5566,3.5909,3.5532,3.5772,3.6029,3.6046,3.6046,3.6046,3.6046,3.5755,3.5241,3.4453,3.4094,3.3905,3.3837,3.3837,3.382,3.3802,3.3802,3.3802,3.3802,3.3768,3.3597,3.3272,3.3237,3.322,3.3237,3.3254,3.346,3.6358,3.6799,0.0,0.0,0.0,0.0,0.0,0.0,0.0,0.0,0.0,0.0,0.0,0.0,0.0,0.0,0.0,0.0,0.0,0.0,0.0,0.0,0.0,0.0,0.0,0.0,0.0,0.0,0.0,0.0,3.8191,3.7736,3.7488,3.7488,3.6763,3.6287,3.6121,3.5832,3.5997,3.6639,3.6453,3.6473,3.6618,3.6453,3.6121,3.5707,3.6183,3.6121,3.5749,3.6494,3.6473,3.5997,3.6577,3.6814,3.6872,3.6918,3.6944,3.7038,3.7023,3.7258,3.7575,3.7707,3.7678,3.7616,3.7616,3.7213,3.6944,3.6944,3.7465,3.7589,3.5746,3.5731,3.607,3.5907,3.5942,3.6052,3.6052,3.6362,3.6709,3.6947,3.744,3.786,3.797,3.8244,3.839,3.8244,3.7719,3.7348,3.7348,3.6563,3.6402,3.7188,3.7373,3.733,3.702,3.6417,3.5863,3.5362,3.4412,3.3837,3.3837,3.3837,3.3837,3.3837,3.3837,3.3768,3.3631,3.3631,3.3631,3.3631,3.3631,3.37,3.6452,3.6919,3.754,3.8125,0.0,0.0,0.0,0.0,0.0,0.0,0.0,0.0,0.0,0.0,0.0,0.0,0.0,0.0,0.0,0.0,0.0,0.0,0.0,0.0,0.0,0.0,0.0,0.0,0.0,0.0,0.0,3.7301,3.7053,3.7053,3.6308,3.5894,3.5894,3.5583,3.5583,3.5894,3.5894,3.5976,3.6121,3.6121,3.5852,3.5438,3.5914,3.5852,3.548,3.6101,3.608,3.5728,3.666,3.7218,3.755,3.8026,3.8191,3.815,3.7819,3.7922,3.8129,3.7819,3.7922,3.8191,3.8191,3.8274,3.8398,3.8398,3.9061,3.9327,3.7763,3.7488,3.7441,3.7454,3.7364,3.7364,3.7364,3.78,3.8254,3.8538,3.9031,3.9504,3.9807,3.9864,3.9864,3.9864,3.9235,3.8585,3.8585,3.7809,3.7614,3.8262,3.855,3.8595,3.8595,3.7951,3.7389,3.6769,3.5344,3.4464,3.4008,3.3905,3.3837,3.3837,3.3837,3.3837,3.3837,3.3837,3.3837,3.3837,3.3957,3.4008,3.6734,3.6922,3.7262,0.0,0.0,0.0,0.0,0.0,0.0,0.0,0.0,0.0,0.0,0.0,0.0,0.0,0.0,0.0,0.0,0.0,0.0,0.0,0.0,0.0,0.0,0.0,0.0,0.0,0.0,0.0,0.0,3.637,3.6121,3.6121,3.5666,3.5418,3.5418,3.5418,3.5418,3.5418,3.5418,3.5666,3.6101,3.6101,3.5852,3.5438,3.5914,3.5852,3.5418,3.5418,3.5687,3.6204,3.7115,3.7488,3.755,3.8005,3.8171,3.8191,3.8171,3.8171,3.8191,3.8191,3.8191,3.8191,3.8191,3.8502,3.8833,3.8833,3.9516,4.022,4.022,3.9678,3.8826,3.7658,3.7364,3.7364,3.7364,3.8008,3.8576,3.8576,3.9277,3.9864,3.9864,3.9864,3.9864,3.9864,3.9864,3.9864,3.9864,3.9864,3.9694,3.9413,3.8841,3.8595,3.8747,3.8367,3.797,3.797,3.6938,3.5744,3.4538,3.4025,3.3837,3.3837,3.3837,3.3837,3.3837,3.3837,3.3837,3.3854,3.4231,3.4402,3.7216,0.0,0.0,0.0,0.0,0.0,0.0,0.0,0.0,0.0,0.0,0.0,0.0,0.0,0.0,0.0,0.0,0.0,0.0,0.0,0.0,0.0,0.0,0.0,0.0,0.0,0.0,0.0,0.0,0.0,0.0,3.637,3.6121,3.6121,3.5355,3.5107,3.5418,3.5107,3.5107,3.5418,3.5418,3.55,3.5625,3.5625,3.5562,3.5438,3.5562,3.5542,3.5418,3.5418,3.5687,3.6142,3.6411,3.6929,3.7467,3.7281,3.7632,3.815,3.7819,3.7922,3.8191,3.8191,3.8191,3.8191,3.8191,3.8274,3.8378,3.8378,3.904,3.9744,3.9744,4.0021,4.0289,4.0002,3.9858,3.9858,3.9858,4.0545,4.1191,4.1191,4.1898,4.2524,4.2524,4.2524,4.2524,4.2524,4.1713,4.0783,4.0021,4.0395,4.0625,4.0641,4.1003,4.105,4.0747,4.0585,4.0211,3.918,3.8592,3.7387,3.5335,3.4342,3.3837,3.3837,3.3837,3.3837,3.3837,3.4094,3.4231,3.4231,3.4624,3.4796,3.7705,0.0,0.0,0.0,0.0,0.0,0.0,0.0,0.0,0.0,0.0,0.0,0.0,0.0,0.0,0.0,0.0,0.0,0.0,0.0,0.0,0.0,0.0,0.0,0.0,0.0,0.0,0.0,0.0,0.0,0.0,3.5728,3.5583,3.5583,3.4859,3.461,3.4879,3.461,3.461,3.4879,3.4879,3.4983,3.5169,3.5335,3.5418,3.5418,3.5418,3.5418,3.5438,3.5625,3.5749,3.5873,3.6246,3.6618,3.6949,3.7032,3.7425,3.7902,3.7798,3.7943,3.8191,3.8191,3.8191,3.8191,3.8191,3.8316,3.846,3.846,3.9102,3.9806,3.9806,4.0344,4.0882,4.0882,4.0882,4.0882,4.0882,4.1462,4.2042,4.2228,4.2849,4.3387,4.3573,4.3615,4.3615,4.3615,4.2963,4.2196,4.1424,4.1662,4.1857,4.1857,4.1908,4.1938,4.1855,4.1669,4.1275,4.0525,3.9825,3.8711,3.707,3.5903,3.5157,3.5157,3.5157,3.5246,3.5539,3.5771,3.5968,3.6129,3.654,3.6408,0.0,0.0,0.0,0.0,0.0,0.0,0.0,0.0,0.0,0.0,0.0,0.0,0.0,0.0,0.0,0.0,0.0,0.0,0.0,0.0,0.0,0.0,0.0,0.0,0.0,0.0,0.0,0.0,0.0,0.0,0.0,3.4693,3.4693,3.4693,3.4238,3.4031,3.4072,3.4031,3.4031,3.4072,3.4072,3.432,3.4776,3.5169,3.5355,3.5355,3.5397,3.5397,3.5397,3.5852,3.579,3.55,3.6349,3.6453,3.6204,3.7053,3.7425,3.755,3.7984,3.815,3.8191,3.8191,3.8191,3.8191,3.8191,3.846,3.8792,3.8792,3.9454,4.0158,4.0158,4.053,4.0882,4.0882,4.0882,4.0882,4.0882,4.1234,4.171,4.2166,4.2621,4.3056,4.3532,4.3615,4.3615,4.3615,4.3615,4.3615,4.3615,4.3201,4.2911,4.287,4.2124,4.1772,4.2104,4.1793,4.1545,4.1503,4.0464,3.9679,3.9281,3.8097,3.7364,3.7364,3.7402,3.7611,3.797,3.8046,3.8292,3.8823,3.9241,3.8657,0.0,0.0,0.0,0.0,0.0,0.0,0.0,0.0,0.0,0.0,0.0,0.0,0.0,0.0,0.0,0.0,0.0,0.0,0.0,0.0,0.0,0.0,0.0,0.0,0.0,0.0,0.0,0.0,0.0,0.0,3.4217,3.4217,3.4217,3.4217,3.3762,3.3699,3.4072,3.3699,3.372,0.0,3.4072,3.432,3.4755,3.4859,3.49,3.4921,3.5273,3.5231,3.4941,3.5376,3.55,3.5438,3.5645,3.5873,3.6142,3.6349,3.6867,3.7508,3.7612,3.7881,3.8191,3.8191,3.8191,3.8191,3.8191,3.8253,3.8336,3.8336,3.8978,3.9682,3.9682,4.0282,4.0882,4.0882,4.0882,4.0882,4.0882,4.1234,4.171,4.2166,4.2621,4.3056,4.3532,4.3615,4.3615,4.3615,4.3615,4.3615,4.3615,4.3201,4.2787,4.2435,4.2228,4.1855,4.1234,4.1421,4.14,4.1048,4.0884,4.0679,4.0576,3.8535,3.7364,3.7364,3.7686,3.7895,3.797,3.8633,3.8993,3.9241,3.9504,3.9556,0.0,0.0,0.0,0.0,0.0,0.0,0.0,0.0,0.0,0.0,0.0,0.0,0.0,0.0,0.0,0.0,0.0,0.0,0.0,0.0,0.0,0.0,0.0,0.0,0.0,0.0,0.0,0.0,0.0,3.3859,3.4211,3.3976,3.3741,3.3741,3.3306,3.3182,3.343,3.3182,3.3182,3.343,3.343,3.3658,3.4113,3.4569,3.4879,3.5086,3.5107,3.5086,3.5086,3.5314,3.5418,3.5418,3.5418,3.5562,3.5832,3.6287,3.6742,3.7218,3.7674,3.7984,3.8191,3.8191,3.8191,3.8191,3.8191,3.8191,3.8233,3.844,3.8999,3.9599,3.9806,4.0365,4.0882,4.0882,4.0882,4.0882,4.0882,4.1069,4.1441,4.2124,4.2435,4.2807,4.3491,4.3615,4.3615,4.3615,4.3615,4.3615,4.3615,4.3201,4.2745,4.2311,4.2062,4.1648,4.0944,4.1296,4.1462,4.1214,4.1421,4.1545,4.1545,4.0358,3.9651,3.9453,3.9651,3.9969,4.0385,4.0841,4.1178,4.1396,4.146,4.1249,0.0,0.0,0.0,0.0,0.0,0.0,0.0,0.0,0.0,0.0,0.0,0.0,0.0,0.0,0.0,0.0,0.0,0.0,0.0,0.0,0.0,0.0,0.0,0.0,0.0,0.0,0.0,0.0,0.0,3.3728,3.4282,3.3822,3.3497,3.3497,3.3142,3.2955,3.2727,3.2841,3.2841,3.2727,3.2809,3.3037,3.341,3.4176,3.4714,3.5066,3.4838,3.4921,3.5211,3.5355,3.5418,3.5418,3.5418,3.5418,3.5542,3.6453,3.6763,3.6825,3.7736,3.8067,3.8067,3.8067,3.8129,3.8191,3.8191,3.8191,3.8253,3.8626,3.9123,3.962,4.0013,4.0489,4.0882,4.0882,4.0882,4.0882,4.0882,4.0882,4.1131,4.1979,4.2269,4.2642,4.347,4.3615,4.3615,4.3615,4.3615,4.3615,4.3615,4.3284,4.2849,4.2311,4.1917,4.1503,4.1027,4.1338,4.1607,4.169,4.2042,4.2249,4.2249,4.2249,4.2104,4.1814,4.1793,4.2166,4.2911,4.2994,4.3242,4.3615,4.3615,4.2984,0.0,0.0,0.0,0.0,0.0,0.0,0.0,0.0,0.0,0.0,0.0,0.0,0.0,0.0,0.0,0.0,0.0,0.0,0.0,0.0,0.0,0.0,0.0,0.0,0.0,0.0,0.0,0.0,3.3883,3.3813,3.4466,3.4354,3.4129,3.3607,3.3974,3.3706,3.2727,3.3182,3.3182,3.2727,3.312,3.3327,3.3389,3.3513,3.3596,3.3699,3.4445,3.4569,3.43,3.5086,3.5418,3.5418,3.5418,3.5418,3.5542,3.6453,3.6556,3.6349,3.726,3.7591,3.7591,3.7591,3.786,3.8191,3.8191,3.8191,3.8191,3.8253,3.8895,3.9558,3.962,4.0241,4.0882,4.0882,4.0882,4.0882,4.0882,4.0882,4.1027,4.1545,4.229,4.2994,4.3532,4.3615,4.3615,4.3615,4.3615,4.3615,4.3615,4.3553,4.3201,4.2352,4.2207,4.1979,4.1524,4.1524,4.1731,4.2145,4.2228,4.2249,4.2249,4.2249,4.2414,4.2745,4.2745,4.2787,4.2911,4.3325,4.3553,4.3615,4.3615,4.3462,0.0,0.0,0.0,0.0,0.0,0.0,0.0,0.0,0.0,0.0,0.0,0.0,0.0,0.0,0.0,0.0,0.0,0.0,0.0,0.0,0.0,0.0,0.0,0.0,0.0,0.0,0.0,0.0,3.4692,3.4379,3.4936,3.4692,3.4379,3.4155,3.4379,3.4267,3.3706,3.3614,3.3523,3.3182,3.3028,3.3132,3.3476,3.3132,3.3285,3.3782,3.4196,3.4403,3.4486,3.4879,3.519,3.5397,3.5148,3.5211,3.55,3.6163,3.6287,3.6204,3.6887,3.7281,3.7488,3.7488,3.7819,3.8191,3.8191,3.8191,3.8233,3.8481,3.904,3.9599,3.9868,4.0386,4.0882,4.0882,4.0882,4.0882,4.0882,4.0882,4.1007,4.1483,4.229,4.2994,4.318,4.3449,4.3615,4.3615,4.3615,4.3615,4.3615,4.3615,4.3366,4.2704,4.2642,4.2456,4.2,4.2186,4.2414,4.2621,4.287,4.3014,4.3014,4.3014,4.3118,4.3304,4.3056,4.3056,4.3304,4.3511,4.3615,4.3615,4.3615,4.3615,0.0,0.0,0.0,0.0,0.0,0.0,0.0,0.0,0.0,0.0,0.0,0.0,0.0,0.0,0.0,0.0,0.0,0.0,0.0,0.0,0.0,0.0,0.0,0.0,0.0,0.0,0.0,0.0,3.5663,3.5245,3.5598,3.5157,3.4936,3.4692,3.4936,3.4803,3.4469,3.4043,3.384,3.384,3.3388,3.3275,3.3636,3.3182,3.3215,3.3741,3.3844,3.4093,3.4424,3.4527,3.4776,3.5045,3.4838,3.4962,3.5314,3.5894,3.6039,3.5997,3.6473,3.6929,3.7322,3.7322,3.7715,3.8191,3.8191,3.8191,3.8253,3.8585,3.9102,3.962,3.9972,4.0468,4.0882,4.0882,4.0882,4.0882,4.0882,4.0882,4.1007,4.1483,4.2207,4.2787,4.2911,4.3304,4.3615,4.3615,4.3615,4.3615,4.3615,4.3615,4.3428,4.2973,4.2911,4.2787,4.2456,4.2725,4.2973,4.3097,4.3428,4.3615,4.3615,4.3615,4.3615,4.3615,4.3263,4.3263,4.3615,4.3615,4.3615,4.3615,4.3615,4.3615,0.0,0.0,0.0,0.0,0.0,0.0,0.0,0.0,0.0,0.0,0.0,0.0,0.0,0.0,0.0,0.0,0.0,0.0,0.0,0.0,0.0,0.0,0.0,0.0,0.0,0.0,0.0,0.0,3.6858,3.6426,3.6277,3.6277,3.5927,3.5378,3.5927,3.5708,3.4469,3.4469,3.4491,3.4491,3.4379,3.4155,3.3636,3.3523,3.3317,3.283,3.3223,3.343,3.3492,3.3927,3.4113,3.4176,3.459,3.4776,3.49,3.579,3.5832,3.5521,3.5976,3.6453,3.6846,3.6846,3.7446,3.8191,3.8191,3.8191,3.8191,3.8212,3.8854,3.9537,3.9578,4.022,4.0882,4.0882,4.0882,4.0882,4.0882,4.0882,4.1007,4.1483,4.1959,4.2435,4.2849,4.3304,4.3615,4.3615,4.3615,4.3615,4.3615,4.3615,4.3428,4.2973,4.2911,4.2911,4.289,4.2911,4.3118,4.3553,4.3594,4.3615,4.3615,4.3615,4.3615,4.3615,4.3594,4.3594,4.3615,4.3615,4.3615,4.3615,4.3615,4.3615,0.0,0.0,0.0,0.0,0.0,0.0,0.0,0.0,0.0,0.0,0.0,0.0,0.0,0.0,0.0,0.0,0.0,0.0,0.0,0.0,0.0,0.0,0.0,0.0,0.0,0.0,0.0,0.0,0.0,3.6881,3.6386,3.6277,3.6168,3.5927,3.6168,3.5927,3.5046,3.5046,3.5046,3.5046,3.4714,3.4602,3.4714,3.4379,3.4043,3.384,3.399,3.379,3.341,3.3886,3.4072,3.4113,3.4569,3.4755,3.4838,3.5438,3.5562,3.5438,3.5604,3.5976,3.6411,3.6701,3.7239,3.7798,3.8088,3.8191,3.8191,3.8191,3.8833,3.9537,3.9537,4.0199,4.0882,4.0882,4.0882,4.0882,4.0882,4.0882,4.0924,4.1089,4.1731,4.2311,4.2476,4.3118,4.3615,4.3615,4.3615,4.3615,4.3615,4.3615,4.3553,4.3387,4.3366,4.3366,4.3366,4.3366,4.3428,4.3594,4.3615,4.3615,4.3615,4.3615,4.3615,4.3615,4.3615,4.3615,4.3615,4.3615,4.3615,4.3615,4.3615,4.3615,3.5312,0.0,0.0,0.0,0.0,0.0,0.0,0.0,0.0,0.0,0.0,0.0,0.0,0.0,0.0,0.0,0.0,0.0,0.0,0.0,0.0,0.0,0.0,0.0,0.0,0.0,0.0,0.0,0.0,0.0,3.6796,3.6472,3.6277,3.6277,3.6277,3.6168,3.5708,3.5708,3.5708,3.5708,3.5268,3.5268,3.5378,3.4936,3.4692,3.4469,3.4469,3.4103,3.3529,3.3843,3.3851,3.3658,3.4113,3.4383,3.459,3.5024,3.5293,3.5418,3.5418,3.5728,3.6183,3.666,3.7115,3.7591,3.8046,3.8191,3.8191,3.8191,3.8833,3.9537,3.9537,4.0199,4.0882,4.0882,4.0882,4.0882,4.0882,4.0882,4.0882,4.0882,4.1628,4.2249,4.2249,4.3014,4.3615,4.3615,4.3615,4.3615,4.3615,4.3615,4.3615,4.3615,4.3615,4.3615,4.3615,4.3615,4.3615,4.3615,4.3615,4.3615,4.3615,4.3615,4.3615,4.3615,4.3615,4.3615,4.3615,4.3615,4.3615,4.3615,4.3615,4.3615,0.0,0.0,0.0,0.0,0.0,0.0,0.0,0.0,0.0,0.0,0.0,0.0,0.0,0.0,0.0,0.0,0.0,0.0,0.0,0.0,0.0,0.0,0.0,0.0,0.0,0.0,0.0,0.0,3.9337,3.8477,3.7607,3.6796,3.6386,3.6386,3.6386,3.6386,3.6386,3.6277,3.6277,3.6277,3.6277,3.6036,3.5488,3.5488,3.5157,3.458,3.458,3.4155,3.3614,3.3636,3.3296,3.2768,3.3244,3.3679,3.4253,3.4731,3.5045,3.5418,3.5418,3.5707,3.6163,3.6639,3.7115,3.757,3.8046,3.8191,3.8191,3.8191,3.8833,3.9537,3.9578,4.022,4.0882,4.0882,4.0882,4.0882,4.0882,4.0882,4.0882,4.0882,4.1628,4.2249,4.2249,4.3014,4.3615,4.3615,4.3615,4.3615,4.3615,4.3615,4.3615,4.3615,4.3615,4.3615,4.3615,4.3615,4.3615,4.3615,4.3615,4.3615,4.3615,4.3615,4.3615,4.3615,4.3615,4.3615,4.3615,4.3615,4.3615,4.3615,4.3615,4.3615,3.4397,0.0,0.0,0.0,0.0,0.0,0.0,3.7299,0.0,0.0,0.0,0.0,0.0,0.0,0.0,0.0,0.0,0.0,0.0,0.0,0.0,0.0,0.0,0.0,0.0,0.0,0.0,0.0,3.9853,3.9337,3.8477,3.8267,3.8161,3.8161,3.7524,3.7203,3.7203,3.658,3.6277,3.6277,3.6277,3.6168,3.6036,3.6036,3.5927,3.5817,3.5817,3.5488,3.4847,3.4749,3.448,3.4038,3.4752,3.4952,3.4867,3.5692,3.5683,3.5418,3.5932,3.5871,3.5749,3.6556,3.6887,3.7136,3.7943,3.8191,3.8191,3.8191,3.8833,3.9682,4.0344,4.0696,4.0882,4.0882,4.0882,4.0882,4.0882,4.0882,4.0882,4.0882,4.1628,4.2249,4.2249,4.3014,4.3615,4.3615,4.3615,4.3615,4.3615,4.3615,4.3615,4.3615,4.3615,4.3615,4.3615,4.3615,4.3615,4.3615,4.3615,4.3615,4.3615,4.3615,4.3615,4.3615,4.3615,4.3615,4.3615,4.3615,4.3615,4.3615,4.3615,4.3615,0.0,0.0,0.0,0.0,0.0,0.0,3.5626,3.6201,3.7063,0.0,0.0,0.0,0.0,0.0,0.0,0.0,0.0,0.0,0.0,0.0,0.0,0.0,0.0,0.0,0.0,4.1324,4.1097,4.0593,4.0287,3.975,3.8896,3.8792,3.8792,3.8792,3.8267,3.8056,3.8056,3.7524,3.712,3.6796,3.6796,3.658,3.6277,3.6277,3.6277,3.6277,3.6277,3.6145,3.573,3.5692,3.5179,3.4578,3.5302,3.5435,3.5435,3.6209,3.6353,3.6279,3.6646,3.6524,3.6304,3.7002,3.7168,3.7356,3.8034,3.8191,3.8191,3.8191,3.8833,3.9744,4.0634,4.0882,4.0882,4.0882,4.0882,4.0882,4.0882,4.0882,4.0882,4.0882,4.1628,4.2249,4.2249,4.3014,4.3615,4.3615,4.3615,4.3615,4.3615,4.3615,4.3615,4.3615,4.3615,4.3615,4.3615,4.3615,4.3615,4.3615,4.3615,4.3615,4.3615,4.3615,4.3615,4.3615,4.3615,4.3615,4.3615,4.3615,4.3615,4.3615,4.3615,4.3615,0.0,0.0,0.0,0.0,0.0,0.0,3.5155,3.5626,3.6279,0.0,0.0,0.0,0.0,0.0,0.0,0.0,0.0,0.0,0.0,0.0,0.0,0.0,0.0,0.0,4.1324,4.1324,4.1324,4.1324,4.0593,3.9853,3.9104,3.9104,3.9104,3.9104,3.9,3.8896,3.8896,3.8896,3.8372,3.7631,3.7524,3.7096,3.6472,3.6386,3.6277,3.6277,3.6277,3.6277,3.6277,3.6277,3.5708,3.4758,3.5263,3.5632,3.6114,3.6596,3.7079,3.7374,3.7495,3.7495,3.7406,3.7674,3.7763,3.7848,3.8103,3.8283,3.8191,3.8253,3.8874,3.9883,4.0572,4.0841,4.0882,4.0882,4.0882,4.0882,4.0882,4.0882,4.0882,4.0882,4.1586,4.2186,4.2249,4.2973,4.3553,4.3594,4.3615,4.3615,4.3615,4.3615,4.3615,4.3615,4.3615,4.3615,4.3615,4.3615,4.3615,4.3615,4.3615,4.3615,4.3615,4.3615,4.3615,4.3615,4.3615,4.3615,4.3615,4.3615,4.3615,4.3615,4.3615,4.3615,0.0,0.0,0.0,0.0,0.0,0.0,3.5155,3.4999,3.5208,0.0,0.0,0.0,0.0,0.0,0.0,0.0,0.0,0.0,0.0,0.0,0.0,0.0,0.0,0.0,4.1324,4.1324,4.1324,4.1324,4.1097,4.0997,4.0795,4.0795,4.0795,4.0795,4.016,3.9853,3.9853,3.9104,3.8687,3.8582,3.7844,3.7418,3.7203,3.658,3.6277,3.6277,3.6277,3.6277,3.6277,3.6277,3.6145,3.5995,3.5938,3.6204,3.6693,3.7183,3.7436,3.7495,3.7976,3.7856,3.7483,3.7928,3.7863,3.7912,3.8357,3.8277,3.8253,3.8626,3.9532,4.0351,4.0319,4.0593,4.0882,4.0882,4.0882,4.0882,4.0882,4.0882,4.0882,4.0882,4.1317,4.1814,4.2186,4.2704,4.318,4.3553,4.3615,4.3615,4.3615,4.3615,4.3615,4.3615,4.3615,4.3615,4.3615,4.3615,4.3615,4.3615,4.3615,4.3615,4.3615,4.3615,4.3615,4.3615,4.3615,4.3615,4.3615,4.3615,4.3615,4.3615,4.3615,4.3615,0.0,0.0,0.0,3.4842,0.0,0.0,0.0,3.4607,3.4816,0.0,0.0,0.0,0.0,0.0,0.0,0.0,0.0,0.0,0.0,0.0,0.0,0.0,0.0,0.0,4.1324,4.1324,4.1324,4.1324,4.1324,4.1324,4.1324,4.1324,4.1324,4.1324,4.0896,4.0694,4.0694,4.0262,3.9853,3.944,3.9,3.8372,3.7524,3.7096,3.6688,3.6277,3.6277,3.6277,3.6277,3.6277,3.6277,3.6323,3.6496,3.6884,3.7383,3.7904,3.8168,3.8335,3.8693,3.8574,3.847,3.8842,3.8869,3.8821,3.8894,3.8777,3.8807,3.965,4.0082,4.0244,4.0435,4.048,4.0551,4.0551,4.0717,4.0882,4.0882,4.0882,4.0882,4.0882,4.1069,4.1441,4.2145,4.2621,4.3077,4.3532,4.3615,4.3615,4.3615,4.3615,4.3615,4.3615,4.3615,4.3615,4.3615,4.3615,4.3615,4.3615,4.3615,4.3615,4.3615,4.3615,4.3615,4.3615,4.3615,4.3615,4.3615,4.3615,4.3615,4.3615,4.3615,4.3615,0.0,0.0,0.0,0.0,0.0,3.5314,0.0,0.0,0.0,0.0,0.0,0.0,0.0,0.0,0.0,0.0,0.0,0.0,0.0,0.0,0.0,0.0,0.0,0.0,0.0,4.1246,4.1324,4.1324,4.1324,4.1324,4.1324,4.1324,4.1324,4.1324,4.1324,4.1324,4.1324,4.1324,4.0997,4.0287,4.0185,3.9337,3.795,3.7844,3.7418,3.6796,3.658,3.6472,3.6472,3.6386,3.6277,3.6323,3.6736,3.7265,3.7839,3.8275,3.8803,3.9308,3.9308,3.9308,3.9327,3.9643,3.9803,3.9744,3.9347,3.9408,3.9821,4.0606,4.0515,4.0442,4.0779,4.0562,4.0381,4.0464,4.0755,4.0882,4.0882,4.0882,4.0882,4.0882,4.0882,4.1172,4.2104,4.2559,4.2973,4.3532,4.3615,4.3615,4.3615,4.3615,4.3615,4.3615,4.3615,4.3615,4.3615,4.3615,4.3615,4.3615,4.3615,4.3615,4.3615,4.3615,4.3615,4.3615,4.3615,4.3615,4.3615,4.3615,4.3615,4.3615,4.3615,4.3615,0.0,0.0,0.0,0.0,3.6167,0.0,0.0,0.0,0.0,0.0,0.0,0.0,0.0,0.0,0.0,0.0,0.0,0.0,0.0,0.0,0.0,0.0,0.0,0.0,0.0,4.101,4.1324,4.1324,4.1324,4.1324,4.1324,4.1324,4.1324,4.1324,4.1324,4.1324,4.1324,4.1324,4.1224,4.1123,4.0491,3.9981,3.975,3.9,3.8582,3.8477,3.7737,3.7418,3.7311,3.658,3.6277,3.6277,3.6323,3.6943,3.7793,3.7862,3.8481,3.9308,3.9308,3.9308,3.9331,3.9327,3.9606,3.9802,3.9577,4.0166,4.0928,4.0453,4.1044,4.1772,4.1568,4.1366,4.1283,4.1686,4.141,4.0882,4.0882,4.0882,4.0882,4.0882,4.0882,4.1172,4.2104,4.229,4.2621,4.3491,4.3615,4.3615,4.3615,4.3615,4.3615,4.3615,4.3615,4.3615,4.3615,4.3615,4.3615,4.3615,4.3615,4.3615,4.3615,4.3615,4.3615,4.3615,4.3615,4.3615,4.3615,4.3615,4.3615,4.3615,4.3615,4.3615,0.0,0.0,0.0,0.0,0.0,0.0,3.6406,0.0,3.6593,0.0,0.0,0.0,0.0,0.0,0.0,0.0,3.9128,0.0,0.0,0.0,0.0,0.0,0.0,0.0,0.0,0.0,0.0,0.0,4.1324,4.1324,4.1324,4.1324,4.1324,4.1324,4.1324,4.1324,4.1324,4.1324,4.1324,4.1324,4.0997,4.0593,4.0083,3.975,3.9337,3.8792,3.8372,3.8267,3.8161,3.7311,3.6989,3.6989,3.6472,3.6897,3.7793,3.7793,3.8436,3.9308,3.9308,3.9308,3.94,3.9997,4.0173,4.033,4.095,4.1264,4.1315,4.1421,4.145,4.1544,4.1483,4.1549,4.1503,4.1305,4.1334,4.1452,4.1025,4.0882,4.0882,4.0882,4.1089,4.14,4.1793,4.2083,4.2559,4.347,4.3615,4.3615,4.3615,4.3615,4.3615,4.3615,4.3615,4.3615,4.3615,4.3615,4.3615,4.3615,4.3615,4.3615,4.3615,4.3615,4.3615,4.3615,4.3615,4.3615,4.3615,4.3615,4.3615,4.3615,4.3615,4.3615,3.6374,0.0,0.0,0.0,0.0,0.0,0.0,0.0,0.0,0.0,0.0,0.0,0.0,0.0,0.0,0.0,0.0,3.9651,0.0,0.0,0.0,0.0,0.0,0.0,0.0,0.0,0.0,4.1063,4.1063,4.1063,4.1063,4.1219,4.1324,4.1324,4.1324,4.1324,4.1324,4.1324,4.1324,4.1324,4.1324,4.0997,4.0389,4.0389,4.0058,3.9415,3.9208,3.9129,3.9104,3.8267,3.7844,3.7844,3.7203,3.7645,3.8447,3.8019,3.8436,3.9308,3.9308,3.9308,3.9423,4.0158,4.0455,4.0796,4.1685,4.1729,4.1701,4.2212,4.1956,4.1595,4.173,4.1859,4.1856,4.1467,4.1839,4.2138,4.1573,4.1431,4.1431,4.1431,4.1561,4.1751,4.2001,4.2292,4.2663,4.3325,4.3532,4.3615,4.3615,4.3615,4.3615,4.3615,4.3615,4.3615,4.3615,4.3615,4.3615,4.3615,4.3615,4.3615,4.3615,4.3615,4.3615,4.3615,4.3615,4.3615,4.3615,4.3615,4.3615,4.3615,4.3615,4.3615,0.0,0.0,0.0,3.7738,0.0,0.0,0.0,0.0,3.7534,0.0,0.0,0.0,0.0,0.0,3.8893,3.9494,3.9128,0.0,0.0,0.0,0.0,0.0,0.0,0.0,0.0,0.0,0.0,4.0435,4.0435,4.0435,4.0435,4.101,4.1324,4.1324,4.1324,4.1324,4.1324,4.1324,4.1324,4.1324,4.1324,4.1324,4.1224,4.1224,4.1224,4.1224,4.0389,4.0083,3.9955,3.9104,3.8792,3.8792,3.8687,3.9349,4.0087,3.8447,3.8436,3.9308,3.9308,3.9308,3.9308,3.9331,4.002,4.0846,4.0869,4.1558,4.2212,4.2339,4.2339,4.2454,4.2936,4.2917,4.275,4.3354,4.3299,4.3097,4.3097,4.2958,4.2958,4.2958,4.2441,4.2337,4.3252,4.3046,4.2911,4.2932,4.3325,4.3615,4.3615,4.3615,4.3615,4.3615,4.3615,4.3615,4.3615,4.3615,4.3615,4.3615,4.3615,4.3615,4.3615,4.3615,4.3615,4.3615,4.3615,4.3615,4.3615,4.3615,4.3615,4.3615,4.3615,4.3615,0.0,0.0,3.7672,3.88,0.0,0.0,0.0,0.0,0.0,0.0,0.0,0.0,0.0,0.0,3.9024,3.9991,3.9965,3.9703,0.0,0.0,3.9677,0.0,0.0,0.0,0.0,0.0,0.0,4.0984,4.0644,4.0592,4.0984,4.1219,4.1324,4.1324,4.1324,4.1324,4.1324,4.1324,4.1324,4.1324,4.1324,4.1324,4.1324,4.1324,4.1324,4.1324,4.0997,4.0896,4.0795,3.9955,3.9647,3.9647,3.9,3.9455,4.0305,3.9757,3.976,4.0106,3.9544,3.9308,3.9354,3.9698,4.0043,4.0433,4.1122,4.1558,4.1903,4.2247,4.2568,4.2867,4.3051,4.3585,4.3848,4.3579,4.3733,4.3675,4.3236,4.3097,4.3097,4.3097,4.3078,4.3284,4.363,4.376,4.3635,4.3325,4.3511,4.3615,4.3615,4.3615,4.3615,4.3615,4.3615,4.3615,4.3615,4.3615,4.3615,4.3615,4.3615,4.3615,4.3615,4.3615,4.3615,4.3615,4.3615,4.3615,4.3615,4.3615,4.3615,4.3615,4.3615,4.3615,3.7456,3.8057,0.0,3.9265,3.9235,0.0,3.9471,0.0,0.0,0.0,0.0,0.0,0.0,0.0,3.939,4.054,4.0566,4.0305,0.0,3.973,3.9808,0.0,0.0,0.0,0.0,0.0,4.0383,4.0958,4.0252,4.0148,0.0,0.0,4.1089,4.1298,4.1324,4.1324,4.1324,4.1324,4.1324,4.1324,4.1324,4.1324,4.1324,4.1324,4.1324,4.1324,4.1324,4.1324,4.1224,4.0694,4.0491,4.0491,3.9955,4.0404,4.1279,4.0631,4.0546,4.0571,3.9989,3.9521,3.9377,3.9882,4.0066,4.0249,4.126,4.1581,4.1719,4.2408,4.2706,4.2913,4.3257,4.3831,4.4226,4.4006,4.4301,4.4526,4.409,4.3952,4.3952,4.3952,4.3919,4.411,4.4485,4.4337,4.4187,4.3886,4.3663,4.3615,4.3615,4.3615,4.3615,4.3615,4.3615,4.3615,4.3615,4.3615,4.3615,4.3615,4.3615,4.3615,4.3615,4.3615,4.376,4.4091,4.378,4.378,4.4112,4.378,4.3615,4.3615,4.3615,4.3615]},{"header":{"parameterUnit":"m.s-1","parameterCategory":1,"la1":30.6,"la2":29.2853,"lo1":-89.7004,"lo2":-87.6739,"dy":0.0162,"dx":0.0183,"nx":112,"ny":82,"refTime":"2024-04-01T18:00:00:Z","depth":0,"parameterNumber":3,"parameterNumberName":"V-component_of_WINDS"},"data":[0.0,0.0,0.0,0.0,0.0,0.0,0.0,0.0,0.0,0.0,0.0,0.0,0.0,0.0,0.0,0.0,0.0,0.0,0.0,0.0,0.0,0.0,0.0,0.0,0.0,0.0,0.0,0.0,0.0,0.0,0.0,0.0,0.0,0.0,0.0,0.0,0.0,0.0,0.0,0.0,0.0,0.0,0.0,0.0,0.0,0.0,0.0,0.0,0.0,0.0,0.0,0.0,0.0,0.0,0.0,0.0,0.0,0.0,0.0,0.0,0.0,0.0,0.0,0.0,0.0,0.0,0.0,0.0,0.0,0.0,0.0,0.0,0.0,0.0,0.0,0.0,0.0,0.0,0.0,0.0,0.0,0.0,0.0,0.0,0.0,0.0,0.0,0.0,0.0,0.0,0.0,-5.9615,-6.1245,-6.215,-6.2041,-6.2005,-6.1317,-5.9724,0.0,0.0,0.0,0.0,0.0,0.0,0.0,0.0,0.0,0.0,0.0,0.0,0.0,0.0,0.0,0.0,0.0,0.0,0.0,0.0,0.0,0.0,0.0,0.0,0.0,0.0,0.0,0.0,0.0,0.0,0.0,0.0,0.0,0.0,0.0,0.0,0.0,0.0,0.0,0.0,0.0,0.0,0.0,0.0,0.0,0.0,0.0,0.0,0.0,0.0,0.0,0.0,0.0,0.0,0.0,0.0,0.0,0.0,0.0,0.0,0.0,0.0,0.0,0.0,0.0,0.0,0.0,0.0,0.0,0.0,0.0,0.0,0.0,0.0,0.0,0.0,0.0,0.0,0.0,0.0,0.0,0.0,0.0,0.0,0.0,0.0,0.0,0.0,0.0,0.0,0.0,0.0,0.0,0.0,0.0,0.0,0.0,0.0,0.0,0.0,0.0,0.0,0.0,0.0,-5.8094,-6.0375,-6.2041,-6.273,-6.2078,-6.2005,-6.1317,-5.9724,0.0,0.0,0.0,0.0,0.0,0.0,0.0,0.0,0.0,0.0,0.0,0.0,0.0,0.0,0.0,0.0,0.0,0.0,0.0,0.0,0.0,0.0,0.0,0.0,0.0,0.0,0.0,0.0,0.0,0.0,0.0,0.0,0.0,0.0,0.0,0.0,0.0,0.0,0.0,0.0,0.0,0.0,0.0,0.0,0.0,0.0,0.0,0.0,0.0,0.0,0.0,0.0,0.0,0.0,0.0,0.0,0.0,0.0,0.0,0.0,0.0,0.0,0.0,0.0,0.0,0.0,0.0,0.0,0.0,0.0,0.0,0.0,0.0,0.0,0.0,0.0,0.0,0.0,0.0,0.0,0.0,0.0,0.0,0.0,0.0,0.0,0.0,0.0,0.0,0.0,0.0,0.0,0.0,0.0,0.0,0.0,0.0,0.0,0.0,0.0,0.0,0.0,0.0,-5.7794,-5.9108,-6.0665,-6.186,-6.2404,-6.2041,-6.1607,-6.0846,-5.9687,-5.9542,0.0,0.0,0.0,0.0,0.0,0.0,0.0,0.0,0.0,0.0,0.0,0.0,0.0,0.0,0.0,0.0,0.0,0.0,0.0,0.0,0.0,0.0,0.0,0.0,0.0,0.0,0.0,0.0,0.0,0.0,0.0,0.0,0.0,0.0,0.0,0.0,0.0,0.0,0.0,0.0,0.0,0.0,0.0,0.0,0.0,0.0,0.0,0.0,0.0,0.0,0.0,0.0,0.0,0.0,0.0,0.0,0.0,0.0,0.0,0.0,0.0,0.0,0.0,0.0,0.0,0.0,0.0,0.0,0.0,0.0,0.0,0.0,0.0,0.0,0.0,0.0,0.0,0.0,0.0,0.0,0.0,0.0,0.0,0.0,0.0,0.0,0.0,0.0,0.0,0.0,0.0,0.0,0.0,0.0,0.0,0.0,0.0,0.0,0.0,0.0,0.0,0.0,-5.8601,-5.9977,-6.0991,-6.1643,-6.1933,-6.1752,-6.0991,-6.0194,-5.9361,-5.8565,0.0,0.0,0.0,0.0,0.0,0.0,0.0,0.0,0.0,0.0,0.0,0.0,0.0,0.0,0.0,0.0,0.0,0.0,0.0,0.0,0.0,0.0,0.0,0.0,0.0,0.0,0.0,0.0,0.0,0.0,0.0,0.0,0.0,0.0,0.0,0.0,0.0,0.0,0.0,0.0,0.0,0.0,0.0,0.0,0.0,0.0,0.0,0.0,0.0,0.0,0.0,0.0,0.0,0.0,0.0,0.0,0.0,0.0,0.0,0.0,0.0,0.0,0.0,0.0,0.0,0.0,0.0,0.0,0.0,0.0,0.0,0.0,0.0,0.0,0.0,0.0,0.0,0.0,0.0,0.0,0.0,0.0,0.0,0.0,0.0,0.0,0.0,0.0,0.0,0.0,0.0,0.0,0.0,0.0,0.0,0.0,0.0,0.0,0.0,0.0,0.0,0.0,-5.8601,-6.0194,-6.1752,-6.2005,-6.1716,-6.0955,-6.0158,-5.9361,-5.8528,-5.7732,0.0,0.0,0.0,0.0,0.0,0.0,0.0,0.0,0.0,0.0,0.0,0.0,0.0,0.0,0.0,0.0,0.0,0.0,0.0,0.0,0.0,0.0,0.0,0.0,0.0,0.0,0.0,0.0,0.0,0.0,0.0,0.0,0.0,0.0,0.0,0.0,0.0,0.0,0.0,0.0,0.0,0.0,0.0,0.0,0.0,0.0,0.0,0.0,0.0,0.0,0.0,0.0,0.0,0.0,0.0,0.0,0.0,0.0,0.0,0.0,0.0,0.0,0.0,0.0,0.0,0.0,0.0,0.0,0.0,0.0,0.0,0.0,0.0,0.0,0.0,0.0,0.0,0.0,0.0,0.0,0.0,0.0,0.0,0.0,0.0,0.0,0.0,0.0,0.0,0.0,0.0,0.0,0.0,0.0,0.0,0.0,0.0,0.0,0.0,0.0,0.0,0.0,-5.8601,-6.0231,0.0,-6.2005,-6.1679,-6.0883,-6.0086,-5.9253,-5.8456,0.0,0.0,0.0,0.0,0.0,0.0,0.0,0.0,0.0,0.0,0.0,0.0,0.0,0.0,0.0,0.0,0.0,0.0,0.0,0.0,0.0,0.0,0.0,0.0,0.0,0.0,0.0,0.0,0.0,0.0,0.0,0.0,0.0,0.0,0.0,0.0,0.0,0.0,0.0,0.0,0.0,0.0,0.0,0.0,0.0,0.0,0.0,0.0,0.0,0.0,0.0,0.0,0.0,0.0,0.0,0.0,0.0,0.0,0.0,0.0,0.0,0.0,0.0,0.0,0.0,0.0,0.0,0.0,0.0,0.0,0.0,0.0,0.0,0.0,0.0,0.0,0.0,0.0,0.0,0.0,0.0,0.0,0.0,0.0,0.0,0.0,0.0,0.0,0.0,0.0,0.0,0.0,0.0,0.0,0.0,0.0,0.0,0.0,0.0,0.0,0.0,0.0,-5.708,-5.8601,-6.0231,0.0,-6.1788,-6.1317,-6.0484,-5.9687,-5.8891,-5.8058,0.0,0.0,0.0,0.0,0.0,0.0,0.0,0.0,0.0,0.0,0.0,0.0,0.0,0.0,0.0,0.0,0.0,0.0,0.0,0.0,0.0,0.0,0.0,0.0,0.0,0.0,0.0,0.0,0.0,0.0,0.0,0.0,0.0,0.0,0.0,0.0,0.0,0.0,0.0,0.0,0.0,0.0,0.0,0.0,0.0,0.0,0.0,0.0,0.0,0.0,0.0,0.0,0.0,0.0,0.0,0.0,0.0,0.0,0.0,0.0,0.0,0.0,0.0,0.0,0.0,0.0,0.0,0.0,0.0,0.0,0.0,0.0,0.0,0.0,0.0,0.0,0.0,0.0,0.0,0.0,0.0,0.0,0.0,0.0,0.0,0.0,0.0,0.0,0.0,0.0,0.0,0.0,0.0,0.0,0.0,0.0,0.0,0.0,0.0,0.0,0.0,0.0,-5.708,-5.8601,-6.0231,-6.186,-6.1281,-6.0484,-5.9687,-5.8854,-5.8058,0.0,0.0,0.0,0.0,0.0,0.0,0.0,0.0,0.0,0.0,0.0,0.0,0.0,0.0,0.0,0.0,0.0,0.0,0.0,0.0,0.0,0.0,0.0,0.0,0.0,0.0,0.0,0.0,0.0,0.0,0.0,0.0,0.0,0.0,0.0,0.0,0.0,0.0,0.0,0.0,0.0,0.0,0.0,0.0,0.0,0.0,0.0,0.0,0.0,0.0,0.0,0.0,0.0,0.0,0.0,0.0,0.0,0.0,0.0,0.0,0.0,0.0,0.0,0.0,0.0,0.0,0.0,0.0,0.0,0.0,0.0,0.0,0.0,0.0,0.0,0.0,0.0,0.0,0.0,0.0,0.0,0.0,0.0,0.0,0.0,0.0,0.0,0.0,0.0,0.0,0.0,0.0,0.0,0.0,0.0,0.0,0.0,0.0,0.0,0.0,0.0,0.0,0.0,-5.7043,-5.8094,-5.9579,-6.1788,-6.0774,-5.9868,-5.9615,-5.8854,-5.8058,-5.7261,0.0,0.0,0.0,0.0,0.0,0.0,0.0,0.0,0.0,0.0,0.0,0.0,0.0,0.0,0.0,0.0,0.0,0.0,0.0,0.0,0.0,0.0,0.0,0.0,0.0,0.0,0.0,0.0,0.0,0.0,0.0,0.0,0.0,0.0,0.0,0.0,0.0,0.0,0.0,0.0,0.0,0.0,0.0,0.0,0.0,0.0,0.0,0.0,0.0,0.0,0.0,0.0,0.0,0.0,0.0,0.0,0.0,0.0,0.0,0.0,0.0,0.0,0.0,0.0,0.0,0.0,0.0,0.0,0.0,0.0,0.0,0.0,0.0,0.0,0.0,0.0,0.0,0.0,0.0,0.0,0.0,0.0,0.0,0.0,0.0,0.0,0.0,0.0,0.0,0.0,0.0,0.0,0.0,0.0,0.0,0.0,0.0,0.0,0.0,0.0,0.0,0.0,-5.6971,-5.7623,-5.8854,-6.1281,-6.0086,-5.9108,-5.9108,-5.8673,-5.8058,-5.7261,0.0,0.0,0.0,0.0,0.0,0.0,0.0,0.0,0.0,0.0,0.0,0.0,0.0,0.0,0.0,0.0,0.0,0.0,0.0,0.0,0.0,0.0,0.0,0.0,0.0,0.0,0.0,0.0,0.0,0.0,0.0,0.0,0.0,0.0,0.0,0.0,0.0,0.0,0.0,0.0,0.0,0.0,0.0,0.0,0.0,0.0,0.0,0.0,0.0,0.0,0.0,0.0,0.0,0.0,0.0,0.0,0.0,0.0,0.0,0.0,0.0,0.0,0.0,0.0,0.0,0.0,0.0,0.0,0.0,0.0,0.0,0.0,0.0,0.0,0.0,0.0,0.0,0.0,0.0,0.0,0.0,0.0,0.0,0.0,0.0,0.0,0.0,0.0,0.0,0.0,0.0,0.0,0.0,0.0,0.0,0.0,0.0,0.0,0.0,0.0,0.0,0.0,-5.6899,-5.7116,-5.8058,-6.0557,-5.9289,-5.8311,-5.8383,-5.8347,-5.8021,-5.7333,0.0,0.0,0.0,0.0,0.0,0.0,0.0,0.0,0.0,0.0,0.0,0.0,0.0,0.0,0.0,0.0,0.0,0.0,0.0,0.0,0.0,0.0,0.0,0.0,0.0,0.0,0.0,0.0,0.0,0.0,0.0,0.0,0.0,0.0,0.0,0.0,0.0,0.0,0.0,0.0,0.0,0.0,0.0,0.0,0.0,0.0,0.0,0.0,0.0,0.0,0.0,0.0,0.0,0.0,0.0,0.0,0.0,0.0,0.0,0.0,-5.6652,0.0,0.0,0.0,0.0,0.0,0.0,0.0,0.0,0.0,0.0,0.0,0.0,0.0,0.0,0.0,0.0,0.0,0.0,0.0,0.0,0.0,0.0,0.0,0.0,0.0,0.0,0.0,0.0,0.0,0.0,0.0,0.0,0.0,0.0,0.0,0.0,0.0,0.0,0.0,0.0,0.0,-5.6899,-5.6645,-5.7406,-6.0484,-5.8782,-5.7695,-5.8347,-5.7804,-5.7659,-5.8094,-5.755,0.0,0.0,0.0,0.0,0.0,0.0,0.0,0.0,0.0,0.0,0.0,0.0,0.0,0.0,0.0,0.0,0.0,0.0,0.0,0.0,0.0,0.0,0.0,0.0,0.0,0.0,0.0,0.0,0.0,0.0,0.0,0.0,0.0,0.0,0.0,0.0,0.0,0.0,0.0,0.0,0.0,0.0,0.0,0.0,0.0,0.0,0.0,0.0,0.0,0.0,0.0,0.0,0.0,0.0,0.0,0.0,0.0,0.0,0.0,0.0,-5.7048,0.0,0.0,0.0,0.0,0.0,0.0,0.0,0.0,0.0,0.0,0.0,0.0,0.0,0.0,0.0,0.0,0.0,0.0,0.0,0.0,0.0,0.0,0.0,0.0,0.0,0.0,0.0,0.0,0.0,0.0,0.0,0.0,0.0,0.0,0.0,0.0,0.0,0.0,0.0,0.0,-5.6319,-5.5957,-5.6536,-5.9361,-5.8166,-5.7369,-5.7804,-5.7804,-5.7949,-5.8383,-5.8021,0.0,0.0,0.0,0.0,0.0,0.0,0.0,0.0,0.0,0.0,0.0,0.0,0.0,0.0,0.0,0.0,0.0,0.0,0.0,0.0,0.0,0.0,0.0,0.0,0.0,0.0,0.0,0.0,0.0,0.0,0.0,0.0,0.0,0.0,0.0,0.0,0.0,0.0,0.0,0.0,0.0,0.0,0.0,0.0,0.0,0.0,0.0,0.0,0.0,0.0,0.0,0.0,0.0,-5.6771,-5.7469,-5.931,-5.8659,-5.8601,-5.8881,-5.8182,-5.7548,-5.722,-5.7836,0.0,0.0,0.0,0.0,0.0,0.0,0.0,0.0,0.0,0.0,0.0,0.0,0.0,0.0,0.0,0.0,0.0,0.0,0.0,0.0,0.0,0.0,0.0,0.0,-5.8999,-5.8347,0.0,0.0,0.0,0.0,0.0,0.0,0.0,0.0,0.0,0.0,0.0,0.0,-5.5703,-5.5486,-5.5957,-5.8166,-5.7695,-5.7188,-5.7188,-5.7804,-5.8239,-5.8383,-5.8275,-5.8565,0.0,0.0,0.0,0.0,0.0,0.0,0.0,0.0,0.0,0.0,0.0,0.0,0.0,0.0,0.0,0.0,0.0,0.0,0.0,0.0,0.0,0.0,0.0,0.0,0.0,0.0,0.0,0.0,0.0,0.0,0.0,0.0,-5.2506,-5.3969,0.0,0.0,0.0,0.0,0.0,0.0,0.0,0.0,0.0,0.0,0.0,0.0,0.0,-5.7655,-5.8771,-5.8335,-5.8749,-5.9905,-5.9166,-5.931,-6.0192,-5.9454,-5.9322,-5.9737,-5.9337,0.0,-5.7469,-5.807,0.0,0.0,0.0,0.0,0.0,0.0,0.0,0.0,0.0,0.0,0.0,0.0,0.0,0.0,0.0,0.0,0.0,0.0,0.0,0.0,0.0,0.0,-5.9289,-5.8709,-5.8999,-5.9035,0.0,-5.6573,-5.5776,-5.5051,-5.4255,0.0,0.0,0.0,0.0,0.0,0.0,0.0,-5.5776,-5.5921,-5.65,-5.8202,-5.7695,-5.7188,-5.7188,-5.7297,-5.7659,-5.8347,-5.7732,-5.7732,-5.8528,-5.8347,0.0,0.0,0.0,0.0,0.0,0.0,0.0,0.0,0.0,0.0,0.0,0.0,0.0,0.0,0.0,0.0,0.0,0.0,0.0,0.0,0.0,0.0,0.0,0.0,0.0,0.0,0.0,0.0,0.0,-5.3352,-5.3936,-5.5041,-5.5119,-5.5157,0.0,0.0,0.0,0.0,0.0,0.0,0.0,0.0,0.0,-5.8979,-5.9238,-5.9689,-6.0424,-6.0367,-6.0705,-6.1436,-6.0902,-6.1188,-6.2021,-6.1305,-6.128,-6.1878,-6.1722,-6.0831,-5.9452,-5.884,-5.8125,-5.737,0.0,0.0,0.0,0.0,-5.7927,-5.8006,-5.7631,-5.7375,0.0,-5.6722,0.0,0.0,0.0,0.0,0.0,0.0,0.0,0.0,0.0,0.0,-5.9578,-5.9651,-5.9615,-5.9358,-5.8626,-5.7857,-5.6959,0.0,-5.4907,-5.411,-5.3313,0.0,0.0,0.0,0.0,0.0,-5.5233,-5.574,-5.6428,-5.7587,-5.7406,-5.7188,-5.7188,-5.7188,-5.755,-5.8347,-5.8058,-5.8239,-5.9035,-5.9506,-5.9542,0.0,0.0,0.0,0.0,0.0,0.0,0.0,0.0,0.0,0.0,0.0,0.0,0.0,0.0,0.0,0.0,0.0,0.0,0.0,0.0,0.0,0.0,0.0,0.0,0.0,0.0,0.0,0.0,-5.4724,-5.534,-5.6314,-5.6554,-5.6716,0.0,0.0,0.0,0.0,0.0,0.0,-5.8039,-5.8223,-5.9045,-6.0642,-6.1121,-6.1795,-6.2745,-6.2687,-6.2916,-6.337,-6.301,-6.3188,-6.3943,-6.3235,-6.3066,-6.3377,-6.3377,-6.2612,-6.128,-6.0045,-5.8908,-5.7922,-5.8358,-5.8192,-5.767,-5.8404,-5.8827,-5.8969,-5.8615,-5.8593,-5.8637,-5.7943,0.0,-5.6219,-5.6219,0.0,0.0,0.0,0.0,-5.891,-6.0351,-6.0424,-6.0277,-6.0646,-6.0461,-6.001,-5.9612,-5.9021,-5.8186,0.0,-5.5811,-5.5119,-5.4044,0.0,0.0,0.0,0.0,-5.4291,-5.5088,-5.5848,-5.6536,-5.7152,-5.7188,-5.7188,-5.7188,-5.7188,-5.7442,-5.8058,-5.8094,-5.8456,-5.9253,-5.9868,-6.0013,-5.9615,0.0,0.0,0.0,0.0,0.0,0.0,0.0,0.0,0.0,0.0,0.0,0.0,0.0,0.0,0.0,0.0,0.0,0.0,0.0,0.0,0.0,0.0,0.0,0.0,0.0,0.0,0.0,0.0,0.0,-5.7517,-5.7052,0.0,0.0,0.0,0.0,-5.7433,-5.8391,-5.9143,-5.9643,-6.006,-6.1135,-6.3127,-6.2951,-6.3823,-6.6078,-6.5743,-6.5904,-6.6546,-6.5786,-6.5424,-6.5461,-6.4664,-6.3955,-6.3377,-6.3377,-6.2967,-6.2275,-6.1946,-6.0738,-5.9023,-5.9023,-5.8912,-5.8709,-5.9258,-5.9311,-5.9222,-5.9993,-6.0188,-6.0041,-5.9458,-5.8268,-5.7069,-5.7069,-5.7063,0.0,0.0,-5.9472,-5.9656,-6.0581,-6.1357,-6.168,-6.0987,-6.1357,-6.1422,-5.9878,-5.9509,-5.8947,0.0,-5.6983,-5.6381,-5.4488,0.0,-5.4054,-5.3686,-5.4327,-5.5124,-5.5848,-5.6645,-5.7152,-5.7188,-5.7188,-5.7188,-5.7188,-5.7188,-5.7224,-5.7261,-5.7261,-5.7623,-5.842,-5.8492,-5.8854,-5.9579,-5.8891,0.0,0.0,0.0,0.0,0.0,0.0,0.0,0.0,0.0,0.0,0.0,0.0,0.0,0.0,0.0,0.0,0.0,0.0,0.0,0.0,0.0,0.0,0.0,0.0,0.0,0.0,0.0,0.0,-5.8527,-5.9194,0.0,-5.9804,-5.9346,-5.9364,-6.0164,-6.0569,-6.1163,-6.1761,-6.2663,-6.3581,-6.4621,-6.5411,-6.6451,-6.7815,-6.7436,-6.7245,-6.7245,-6.6207,-6.5873,-6.6019,-6.5269,-6.4912,-6.4947,-6.5161,-6.4689,-6.3811,-6.4194,-6.2623,-6.0048,-6.049,-5.9824,-5.8774,-5.9501,-6.0106,-6.0624,-6.0359,-6.1061,-6.188,-6.1181,-6.0214,-5.947,-5.9956,-6.0105,-6.0367,-6.1487,-6.1413,-6.1188,-6.2048,-6.2085,-6.1823,-6.1525,-6.13,-6.0774,-5.9617,-5.9395,-5.9059,-5.7937,-5.7802,-5.7463,-5.627,-5.6043,-5.5815,-5.5214,-5.5794,-5.6418,-5.6675,-5.7446,-5.7821,-5.7583,-5.7583,-5.7486,-5.7239,-5.7188,-5.7188,-5.7188,-5.7188,-5.7333,-5.7623,-5.813,-5.8528,-5.8818,-5.9072,-5.8673,0.0,0.0,0.0,0.0,0.0,0.0,0.0,0.0,0.0,0.0,0.0,0.0,0.0,0.0,0.0,0.0,0.0,0.0,0.0,0.0,0.0,0.0,0.0,0.0,0.0,0.0,-5.9475,-5.9756,-6.1371,-6.242,-6.2204,-6.1988,-6.2017,-6.2457,-6.2896,-6.3428,-6.4079,-6.4899,-6.5775,-6.6779,-6.7511,-6.8242,-6.9038,-6.8661,-6.8156,-6.7456,-6.6828,-6.6495,-6.6488,-6.5922,-6.5832,-6.5994,-6.6207,-6.5653,-6.4689,-6.5298,-6.3824,-6.1199,-6.1306,-6.059,-5.9523,-6.0003,-6.09,-6.1875,-6.1302,-6.1949,-6.2855,-6.2069,-6.1243,-6.0755,-6.1543,-6.1618,-6.1618,-6.2782,-6.267,-6.2444,-6.327,-6.3083,-6.2632,-6.2632,-6.2219,-6.1543,-6.0379,-6.0154,-5.9929,-5.9102,-5.8758,-5.8248,-5.7089,-5.6825,-5.664,-5.5997,-5.6367,-5.6879,-5.7433,-5.7987,-5.8231,-5.8006,-5.7904,-5.7726,-5.7583,-5.7486,-5.7437,-5.7583,-5.7583,-5.7583,-5.7583,-5.7838,-5.8093,-5.8349,-5.8896,-5.864,-5.7583,0.0,0.0,0.0,0.0,0.0,0.0,0.0,0.0,0.0,0.0,0.0,0.0,0.0,0.0,0.0,0.0,0.0,0.0,0.0,0.0,0.0,0.0,0.0,-5.6771,-5.8702,-6.0528,-6.1336,-6.3442,-6.4667,-6.416,-6.4893,-6.5035,-6.419,-6.519,-6.6037,-6.6415,-6.682,-6.7862,-6.9692,-6.9097,-6.9097,-6.9829,-6.9501,-6.875,-6.7528,-6.7836,-6.7583,-6.675,-6.675,-6.6572,-6.6233,-6.6233,-6.5653,-6.4689,-6.5262,-6.4347,-6.2543,-6.152,-6.1081,-6.0997,-6.0792,-6.1646,-6.2878,-6.2897,-6.2885,-6.2813,-6.2067,-6.1318,-6.083,-6.1618,-6.1318,-6.1055,-6.267,-6.312,-6.3308,-6.4096,-6.4284,-6.4284,-6.4284,-6.4284,-6.3796,-6.2144,-6.1806,-6.1543,-6.0755,-5.9929,-5.8803,-5.6891,-5.6554,-5.6437,-5.6113,-5.6071,0.0,-5.8215,-5.84,-5.8356,-5.8356,-5.8042,-5.7997,-5.8275,-5.8042,-5.7997,-5.8275,-5.8319,-5.8319,-5.8319,-5.7544,-5.7507,-5.8282,-5.8282,-5.8282,-5.8282,0.0,0.0,0.0,0.0,0.0,0.0,0.0,0.0,0.0,0.0,0.0,0.0,0.0,0.0,0.0,0.0,0.0,0.0,0.0,0.0,0.0,0.0,-5.793,-5.8281,-6.0809,-6.3126,-6.446,-6.6181,-6.7164,-6.7095,-6.7271,-6.7306,-6.7095,-6.7585,-6.7867,-6.7693,-6.8576,-6.9067,-6.9026,-6.9388,-6.9812,-7.0293,-6.9854,-6.9196,-6.8319,-6.7868,-6.7017,-6.5917,-6.5682,-6.5345,-6.5073,-6.5284,-6.5525,-6.5715,-6.5597,-6.496,-6.3947,-6.2549,-6.148,-6.0683,-6.063,-6.1558,-6.2915,-6.2774,-6.2803,-6.2847,-6.2582,-6.2438,-6.2518,-6.3144,-6.33,-6.3383,-6.3753,-6.3906,-6.4021,-6.4247,-6.4284,-6.4284,-6.4203,-6.3794,-6.3081,-6.1914,-6.173,-6.1543,-6.0755,-6.0867,-6.0904,-6.0377,-6.0302,-6.0263,-6.0185,-6.0185,0.0,-6.0783,-6.0295,-5.9878,-5.9636,-5.951,-5.9079,-5.8223,-5.8702,-5.8776,-5.8186,-5.8275,-5.8319,-5.8319,-5.8098,-5.8061,-5.8319,-5.7728,-5.7433,0.0,0.0,0.0,0.0,0.0,0.0,0.0,0.0,0.0,0.0,0.0,0.0,0.0,0.0,0.0,0.0,0.0,0.0,0.0,0.0,0.0,0.0,-5.8983,-6.0352,-6.2108,-6.3618,-6.5127,-6.6672,-6.8779,-7.0007,-6.9727,-7.0121,-7.0156,-6.9691,-6.9705,-6.9637,-6.9384,-6.9562,-6.9778,-6.9883,-6.9778,-6.9849,-7.0272,-6.9828,-6.8994,-6.7848,-6.7285,-6.6607,-6.5886,-6.5166,-6.4777,-6.4626,-6.5135,-6.5259,-6.5008,-6.5135,-6.4821,0.0,0.0,0.0,0.0,0.0,-6.2303,-6.2789,-6.2742,-6.2986,-6.3252,-6.2832,-6.2803,-6.3072,-6.3734,-6.3776,-6.3671,-6.3967,-6.3817,-6.3712,-6.405,-6.39,-6.3671,-6.3967,-6.3746,-6.3266,-6.2323,-6.2213,-6.2103,-6.1653,-6.1876,0.0,-6.2703,-6.1955,-6.128,-6.1242,-6.1242,-6.143,-6.1653,-6.1354,-6.1016,-6.074,-6.036,-5.9785,-5.9091,-5.9122,0.0,0.0,0.0,-5.8553,-5.826,-5.8557,0.0,0.0,0.0,-5.7999,-5.7999,0.0,0.0,0.0,-5.8099,-5.8359,0.0,0.0,0.0,0.0,0.0,0.0,0.0,0.0,0.0,0.0,0.0,0.0,0.0,0.0,0.0,0.0,-6.1652,-6.3723,-6.6848,-6.6848,-6.7093,-6.8568,-7.1131,-7.2535,-7.1903,-7.2736,-7.2882,-7.1763,-7.136,-7.1193,-7.1193,0.0,0.0,0.0,0.0,-6.9666,-6.992,-6.9596,-6.8627,-6.716,-6.6693,-6.6449,-6.6207,-6.5073,-6.4519,-6.4421,-6.5169,-6.4697,-6.3438,-6.4122,-6.3985,-6.3255,-6.2647,-6.2558,-6.2843,-6.3334,-6.3184,-6.2699,-6.2561,0.0,0.0,-6.2939,-6.2715,-6.2981,-6.3649,-6.3387,-6.2981,-6.3686,-6.335,-6.3019,-6.3729,-6.3318,-6.2907,-6.3686,-6.392,-6.3742,-6.3144,-6.2994,-6.3035,-6.3035,-6.2953,-6.3135,-6.393,-6.2366,-6.0979,-6.0825,-6.0941,-6.1203,-6.1799,-6.1916,-6.1841,-6.1761,0.0,0.0,-6.0292,-5.9533,-5.9048,-5.9139,-5.9177,-5.8878,-5.824,-5.8878,-5.8915,-5.824,-5.8915,-5.929,-5.929,-5.9403,-5.944,-5.944,-5.9098,-5.9511,0.0,0.0,0.0,0.0,0.0,0.0,0.0,0.0,0.0,0.0,0.0,0.0,0.0,0.0,0.0,-6.1441,-6.3267,-6.5373,-6.8463,-6.9867,-7.092,-7.1798,-7.243,-7.2746,-7.2606,-7.2788,-7.2577,-7.1763,-7.1628,-7.1558,-7.1558,-7.1342,-7.1101,-7.0723,-7.0433,-7.0194,-6.992,-6.9814,-6.9491,-6.8837,0.0,0.0,-6.5796,-6.4947,-6.4081,-6.3222,-6.3364,-6.3448,-6.3367,-6.2809,-6.2443,-6.2204,-6.2339,-6.2826,-6.328,-6.2153,-6.2457,-6.3238,-6.1937,-6.2507,-6.3668,-6.2761,-6.2997,-6.3686,-6.3661,-6.3631,0.0,-6.3786,-6.3755,-6.3729,-6.3878,-6.3318,-6.2865,-6.3637,-6.3387,-6.3094,-6.3531,-6.3649,-6.3691,-6.3691,-6.3691,-6.3729,-6.3878,-6.3668,-6.3372,-6.3409,-6.3409,-6.3447,-6.3597,-6.2953,-6.2541,-6.266,-6.2388,-6.167,-6.0404,-6.0699,-6.0401,-5.9136,-5.9024,-5.8949,-5.8838,-5.8988,-5.8988,-5.8838,-5.9102,-5.9215,-5.9215,-5.9966,-6.0342,-6.0342,-5.9591,-5.9366,0.0,0.0,0.0,0.0,0.0,0.0,0.0,0.0,0.0,0.0,0.0,-5.7544,-5.8737,0.0,-6.123,-6.4741,-6.6286,-6.8006,-7.071,-7.1763,-7.2395,-7.2746,-7.3167,-7.3413,-7.3413,-7.3413,-7.3238,-7.2886,-7.25,-7.2254,-7.2254,-7.1903,-7.1517,-7.1131,-7.071,-7.0398,-7.0197,-6.9637,-6.8999,-6.846,-6.7252,-6.6256,-6.5374,-6.4498,-6.3771,-6.3251,-6.3251,-6.3135,-6.2868,-6.2327,-6.2623,-6.3434,-6.2818,-6.2567,-6.2576,-6.2435,-6.2673,-6.2933,-6.2562,-6.2978,-6.3617,-6.3156,-6.3356,-6.3736,-6.3647,-6.3691,-6.3742,-6.3691,-6.3438,-6.3258,-6.3668,-6.3146,-6.273,-6.3505,-6.3482,-6.3382,-6.3705,-6.3823,-6.3867,-6.3867,-6.3823,-6.378,-6.3867,-6.3574,-6.3504,-6.3878,-6.3995,-6.3958,-6.3953,-6.3579,-6.3318,-6.3355,-6.2981,-6.2342,-6.1433,-6.1363,-6.0696,-5.9054,-5.9356,-5.9433,-5.9022,-5.9395,-5.9582,-5.9582,-6.007,-6.0374,-6.0413,-6.0864,-6.1128,-6.1205,-6.0755,-6.0792,0.0,0.0,0.0,0.0,0.0,0.0,0.0,0.0,-5.8667,-5.8527,-5.8843,-5.9721,-6.1616,-6.2705,-6.446,-6.8076,-6.9305,-7.0569,-7.2746,-7.3027,-7.3027,-7.3027,-7.3624,-7.401,-7.401,-7.401,-7.401,-7.401,-7.3413,-7.3027,-7.3027,-7.2325,-7.1868,-7.1728,-7.092,-7.0429,-7.0363,-6.9211,-6.8328,-6.7796,-6.6171,-6.5393,-6.529,-6.428,-6.3723,-6.3583,-6.3267,-6.2775,-6.2174,-6.184,-6.2687,-6.402,-6.285,-6.1989,-6.1528,-6.2845,-6.3082,-6.271,-6.3193,-6.349,-6.3602,-6.3602,-6.3602,-6.3602,-6.3602,-6.3602,-6.3639,-6.3788,-6.3267,-6.2822,-6.3639,-6.3119,-6.2599,-6.3416,-6.358,-6.355,-6.3736,-6.3736,-6.3736,-6.3736,-6.3647,-6.361,-6.355,-6.3103,-6.3035,-6.3705,-6.3718,-6.368,-6.378,-6.3823,-6.3867,-6.378,-6.3227,-6.2737,-6.2413,-6.172,-6.072,-5.9417,-5.9872,-5.999,-5.9468,-5.9875,-6.0211,-6.036,-6.111,-6.1487,-6.1531,-6.1721,-6.1874,-6.1992,-6.2103,-6.2443,-5.2699,-5.2067,0.0,-5.3717,-5.5332,-5.6947,0.0,0.0,-6.1687,-6.1055,-6.2529,-6.4039,-6.4285,-6.5514,-6.7304,-6.9832,-7.092,-7.2009,-7.3624,-7.3869,-7.3869,-7.3869,-7.394,-7.401,-7.401,-7.401,-7.401,-7.401,-7.394,-7.3869,-7.3869,-7.3097,-7.2395,-7.1728,-7.092,-7.0332,-6.9955,-6.8856,-6.8328,-6.8539,-6.6672,-6.5829,-6.5794,-6.4952,-6.4214,-6.3512,-6.2143,-6.1511,-6.1371,-6.0592,-6.0438,-6.0662,-6.1058,-6.1127,-6.1178,-6.2166,-6.2933,-6.3379,-6.2747,-6.3007,-6.3602,-6.3602,-6.3602,-6.3602,-6.3602,-6.3602,-6.375,-6.4456,-6.4085,-6.3676,-6.4456,-6.3565,-6.2599,-6.3416,-6.3082,-6.2747,-6.3453,-6.3602,-6.3602,-6.3602,-6.3602,-6.3379,-6.2673,-6.3044,-6.3572,-6.378,-6.3184,-6.2997,-6.3705,-6.3691,-6.3691,-6.378,-6.3617,-6.3193,-6.245,-6.172,-6.1204,-6.0927,-6.0338,-6.0264,-6.0933,-6.0301,-6.0301,-6.1081,-6.1241,-6.1321,-6.1321,-6.2155,-6.2571,-6.265,-6.336,-6.3031,-5.2944,0.0,0.0,0.0,-5.8527,-6.0844,-6.1511,-6.274,-6.3793,-6.3934,-6.4741,-6.5829,-6.7164,-6.8322,-6.9656,0.0,-7.25,-7.3273,-7.3905,-7.401,-7.3834,-7.3343,-7.3308,-7.3483,-7.394,-7.401,-7.401,-7.401,-7.401,-7.401,-7.401,-7.3238,-7.2465,-7.1728,-7.0499,-6.9555,-6.8891,-6.7551,-6.6919,-6.7094,-6.5794,-6.5198,-6.5198,-6.4846,-6.432,-6.3512,-6.1967,-6.1546,-6.1827,-6.0598,-6.0572,-6.1264,-6.1081,-6.1221,-6.164,-6.2278,-6.2815,-6.3084,-6.3103,-6.3342,-6.3602,-6.3602,-6.3602,-6.3602,-6.3602,-6.3602,-6.3676,-6.401,-6.3862,-6.3676,-6.401,-6.3602,-6.3193,-6.3527,-6.3007,-6.2636,-6.3453,-6.323,-6.3044,-6.3527,-6.3602,-6.349,-6.3156,-6.3007,-6.3082,-6.3572,-6.3431,-6.3319,-6.3654,-6.3602,-6.3416,-6.3059,-6.2531,-6.1856,-6.1038,-6.1565,-6.1528,-6.0518,-6.1038,-6.1336,-6.1187,-6.1298,-6.1521,-6.1893,-6.204,-6.2345,-6.2774,-6.2814,-6.2872,-6.2963,-6.3297,-6.3119,-5.3366,0.0,0.0,-5.8211,-6.102,-6.3688,-6.4144,-6.4987,-6.5829,-6.6391,-6.6707,-6.7445,-6.934,-7.0323,0.0,-7.2606,-7.3483,-7.401,-7.401,-7.3799,-7.3378,-7.2606,-7.229,-7.2395,-7.2992,-7.3413,-7.3764,-7.3975,-7.401,-7.3905,-7.3694,-7.2922,-7.2149,-7.1412,-7.0078,-6.9095,-6.8533,-6.6988,-6.6286,-6.6532,-6.5514,-6.5022,-6.5022,-6.4811,-6.432,-6.3547,-6.2424,-6.2003,-6.2003,-6.0879,-6.0882,-6.1468,-6.0935,-6.1022,-6.1508,-6.2023,-6.2339,-6.2508,-6.2756,-6.302,-6.3345,-6.3123,-6.3325,-6.3602,-6.3602,-6.3602,-6.3676,-6.3899,-6.3936,-6.3936,-6.3936,-6.3936,-6.3899,-6.3676,-6.3007,-6.2636,-6.3453,-6.297,-6.2636,-6.3453,-6.3602,-6.3527,-6.3305,-6.297,-6.2859,-6.323,-6.3453,-6.3602,-6.3602,-6.3602,-6.3305,-6.2487,-6.1893,-6.1187,-6.0333,-6.1596,-6.1893,-6.0667,-6.1575,-6.1966,-6.1596,-6.1791,-6.204,-6.2261,-6.2438,-6.2732,-6.3252,-6.2831,-6.2745,-6.2988,-6.2988,-6.3073,0.0,0.0,-5.6315,-5.9264,-6.1827,-6.3969,-6.5478,-6.6988,-6.8112,-6.8147,-6.8744,-6.9516,-7.0323,-7.1131,-7.1903,-7.2676,-7.3483,-7.401,-7.401,-7.3343,-7.257,-7.1833,-7.1061,-7.0569,0.0,-7.1974,-7.3167,-7.394,-7.401,-7.3659,-7.2886,-7.2149,-7.1377,-7.0569,-6.9797,-6.9376,-6.934,-6.776,-6.7374,-6.8112,-6.6567,-6.5829,-6.5829,-6.5057,-6.432,-6.3583,-6.3547,-6.2705,-6.1336,-6.1265,-6.0809,-6.0171,-6.0171,-6.0171,-6.0199,-6.0843,-6.1394,-6.1842,-6.1009,-6.1631,-6.2634,-6.19,-6.253,-6.3602,-6.3602,-6.3602,-6.3788,-6.4568,-6.4791,-6.4791,-6.4791,-6.4791,-6.4568,-6.3788,-6.3007,-6.2636,-6.3453,-6.297,-6.2636,-6.3453,-6.3602,-6.3379,-6.2562,-6.3082,-6.3305,-6.2562,-6.3119,-6.3602,-6.3602,-6.3602,-6.3305,-6.2487,-6.2376,-6.2041,-6.1224,-6.193,-6.2376,-6.2339,-6.1808,-6.1851,-6.2634,-6.1345,-6.1027,-6.1915,-6.1951,-6.1951,-6.1951,-6.1951,-6.2182,-6.2695,-6.2695,-6.3025,0.0,0.0,-5.9966,-6.2529,-6.4917,-6.6918,-6.7971,-6.8603,-6.8989,-6.8989,-6.7971,-6.7269,-6.8041,-6.8392,-6.8849,-6.9621,-7.1307,-7.2465,-7.2465,-7.2676,-7.2325,-7.1061,-7.0675,0.0,0.0,0.0,0.0,-7.3097,-7.3202,-7.3097,-7.2816,-7.1587,-7.078,-7.0499,-6.8744,-6.8076,-6.8603,-6.755,-6.7164,-6.7409,-6.6356,-6.59,-6.5829,-6.4566,-6.3828,-6.3547,-6.2529,-6.1792,-6.1265,-6.0704,-6.0352,-6.0107,-6.0107,-6.0107,-6.0135,-6.0325,-6.0538,-6.0772,-6.1296,-6.1805,-6.2093,-6.1891,-6.2105,-6.2479,-6.2479,-6.2479,-6.2662,-6.3377,-6.3596,-6.3596,-6.3596,-6.3596,-6.3518,-6.3113,-6.2387,-6.2261,-6.3993,-6.3788,-6.3453,-6.4233,-6.4419,-6.4159,-6.3342,-6.3416,-6.3354,-6.2693,-6.315,-6.3602,-6.3602,-6.2673,-6.2116,-6.2376,-6.1061,-6.0324,-6.0582,-6.0946,-6.1185,-6.1185,-6.1084,-6.1345,-6.2182,-6.1207,-6.1064,-6.186,-6.1508,-6.1508,-6.1897,-6.1508,-6.1394,-6.1584,-6.1584,-6.164,0.0,-5.9721,-6.2319,-6.4882,-6.7093,-6.8779,-6.927,-6.9586,-6.9621,-6.906,-6.7304,-6.5935,-6.6145,-6.6181,-6.6286,-6.6532,-6.8533,-7.0148,-7.0429,-7.085,-7.0885,-7.0183,-6.9867,-6.9691,0.0,0.0,0.0,-7.2254,-7.2641,-7.2676,-7.243,-7.1728,-7.1061,-7.0534,-6.906,-6.8392,-6.8638,-6.7831,-6.7304,-6.6988,-6.6532,-6.6145,-6.5829,-6.4285,-6.3442,-6.3126,-6.2108,-6.1371,-6.0844,-6.0633,-6.0352,-6.0107,-6.0107,-6.0107,-6.0107,-6.0107,-6.0107,-6.0164,-6.0701,-6.1178,-6.1528,-6.1204,-6.1479,-6.1897,-6.1897,-6.2078,-6.2404,-6.2855,-6.3398,-6.376,-6.3506,-6.3615,-6.3764,-6.3345,-6.261,-6.2442,-6.4191,-6.3739,-6.3186,-6.3996,-6.3923,-6.3665,-6.3444,-6.3407,-6.3162,-6.2479,-6.2732,-6.2965,-6.2965,-6.2082,-6.1529,-6.1713,-6.0506,-5.9761,-5.998,-6.0352,-6.0575,-6.0575,-6.0702,-6.1024,-6.1564,-6.0891,-6.0741,-6.1279,-6.0903,-6.0903,-6.1279,-6.0903,-6.0782,-6.1022,-6.1022,-6.114,-5.9039,-6.134,-6.3269,-6.625,-6.8217,-6.9376,-6.9376,-6.9902,-6.9937,-6.8428,-6.6777,-6.5408,0.0,0.0,-6.432,-6.3653,-6.5549,-6.7409,-6.8147,-6.8392,-6.8708,0.0,0.0,0.0,0.0,0.0,0.0,-7.1482,0.0,-7.2395,-7.1798,-7.236,-7.2044,-7.0604,-7.0429,-7.0078,-6.9446,-6.8638,-6.7831,-6.7058,-6.6988,-6.6567,-6.5759,-6.4285,-6.3126,-6.2319,-6.2319,-6.1476,-6.0142,-6.0914,-6.0774,-6.0107,-6.0107,-6.0107,-6.0107,-6.0107,-6.0107,-6.0001,-5.9299,-5.9911,-6.082,-6.0036,-6.069,-6.1787,-6.1823,-6.2365,-6.2888,-6.2996,-6.4101,-6.5077,-6.439,-6.4715,-6.5077,-6.4318,-6.3522,-6.3197,-6.4085,-6.3072,-6.224,-6.2964,-6.2512,-6.2186,-6.2855,-6.2964,-6.2655,-6.1987,-6.1878,-6.1842,-6.1897,-6.186,-6.1534,-6.072,-6.0612,-6.0268,-5.9545,-6.016,-6.0594,-6.0594,-6.0755,-6.0927,-6.0962,-6.0352,-6.0072,-6.0107,-6.0107,-6.0107,-6.0107,-6.0107,-6.0388,-6.0962,-6.0962,-6.1221,-6.0487,-6.3194,-6.5499,-6.682,-6.8309,-6.9376,-6.9376,-6.9095,-6.8357,-6.6813,-6.4355,-6.2073,0.0,0.0,0.0,-6.2635,-6.611,0.0,-6.906,-7.0569,0.0,0.0,0.0,-7.0815,-7.0815,-7.0078,0.0,0.0,-7.1342,-7.1517,-7.2465,-7.1622,-7.1201,-7.1412,-6.9727,-6.927,-7.0218,-6.8884,-6.8112,-6.7901,-6.6742,-6.5759,-6.4987,-6.4039,-6.2845,-6.1581,-6.1581,-6.102,-6.0107,-6.0317,-6.0282,-6.0107,-6.0107,-6.0107,-6.0107,-6.0107,-6.0107,-6.0072,-5.9861,-6.0058,-6.029,-6.0078,-6.0273,-6.0645,-6.1282,-6.1565,-6.199,-6.3123,-6.33,-6.3229,-6.3654,-6.3441,-6.3215,-6.35,-6.3346,-6.3538,-6.4824,-6.4737,-6.452,-6.4737,-6.3651,-6.2747,-6.2964,-6.2191,-6.1651,-6.2009,-6.1199,-6.0867,-6.1787,-6.1353,-6.1136,-6.1534,-6.0624,-6.016,-6.0518,-6.0356,-6.022,-6.022,-5.9752,-5.9761,-6.029,-5.9608,-5.9545,-6.0072,-6.0107,-6.0107,-6.0107,-6.0107,-6.0135,-6.0325,-6.0325,-6.045,-6.2404,-6.4667,-6.6308,-6.7065,-6.8162,-6.8618,-6.7256,-6.709,-6.6461,-6.3863,-6.1722,0.0,0.0,0.0,0.0,0.0,0.0,0.0,-6.7796,-6.9551,-7.0604,0.0,-7.071,0.0,-7.1166,-7.078,-7.0991,0.0,-7.1763,-7.1903,-7.2746,-7.2325,-7.2079,-7.2184,-7.0604,-6.9832,-7.0007,-6.8814,-6.8041,-6.7655,-6.6461,-6.5303,-6.4179,-6.3407,-6.2424,-6.1265,0.0,-6.0528,-6.0107,-6.0107,-6.0107,-6.0107,-6.0107,-6.0107,-6.0107,-6.0107,-6.0107,-6.0107,-6.0107,-6.0107,-6.0107,-6.0107,-6.0352,-6.0704,-6.116,-6.1757,-6.2424,-6.2915,-6.3231,-6.3442,-6.3547,-6.3512,-6.3474,-6.3836,-6.3902,-6.4137,-6.4912,-6.4858,-6.4536,-6.4143,-6.3357,-6.2724,-6.2724,-6.2124,-6.1663,-6.1769,-6.1136,-6.0713,-6.1058,-6.0711,-6.0603,-6.1068,-6.0391,-6.0078,-6.0564,-6.0262,-6.0107,-6.0107,-5.9721,-5.9685,-6.0072,-5.9685,-5.9545,-5.9615,-5.9931,-5.9931,-5.9615,-5.9931,-6.0107,-6.0107,-6.0107,-6.0107,-6.4177,-6.5595,-6.6391,-6.7073,-6.7662,-6.7307,-6.4334,-6.4565,-6.4251,-6.0358,0.0,0.0,-5.7509,0.0,-5.8983,-5.9405,0.0,-6.5233,-6.6216,-6.7796,-6.8989,-6.9481,-7.0394,-7.092,-7.0815,-7.092,-7.1517,-7.2851,-7.2957,-7.2957,-7.2957,-7.3518,-7.3448,-7.2535,-7.1974,-7.092,-6.9235,-6.8428,-6.7655,-6.6848,-6.6075,-6.4917,-6.3407,-6.2705,-6.1932,-6.109,-6.0388,0.0,-6.0107,-6.0107,-6.0107,-6.0107,-6.0107,-6.0107,-6.0107,-6.0107,-6.0107,-6.0107,-6.0107,-6.0107,-6.0107,-6.0107,-6.0563,-6.116,-6.1265,-6.2213,-6.3196,-6.2705,-6.3442,-6.4285,-6.3863,-6.4144,-6.4601,-6.4706,-6.4706,-6.4706,-6.4706,-6.4214,-6.3512,-6.2705,-6.2459,-6.2389,-6.2389,-6.2319,-6.2073,-6.1511,-6.1371,-6.109,-6.0493,-6.0317,-6.0212,-6.0107,-6.0282,-6.0317,-6.0107,-6.0212,-6.0212,-6.0107,-6.0107,-6.0107,-6.0107,-6.0107,-5.9791,-5.9159,-5.9756,-5.9791,-5.9159,-5.9791,-6.0107,-6.0107,-6.0107,-6.0107,-6.4214,-6.5411,-6.6407,-6.6542,-6.6602,-6.6073,-6.3673,-6.2706,0.0,0.0,0.0,-5.6596,-5.5191,0.0,0.0,-6.1406,0.0,0.0,0.0,0.0,-7.1587,0.0,0.0,0.0,0.0,0.0,0.0,0.0,0.0,-7.3799,-7.3799,-7.3308,-7.236,-7.0955,-7.1447,-7.0639,-6.8428,-6.762,-6.6848,-6.6075,-6.5303,-6.4109,-6.2599,-6.2459,-6.1616,-6.0282,-6.0142,0.0,-6.0107,-6.0107,-6.0107,-6.0107,-6.0107,-6.0107,-6.0107,-6.0107,-6.0107,-6.0107,-6.0107,-6.0107,-6.0107,-6.0107,-6.0177,-6.0423,-6.109,-6.1476,-6.1932,-6.3056,-6.3091,-6.3056,-6.4214,-6.4144,-6.3934,-6.4566,-6.4706,-6.4706,-6.4706,-6.4601,-6.4285,-6.3547,-6.2845,-6.2389,-6.2389,-6.1897,-6.1652,-6.2143,-6.1687,-6.1476,-6.1932,-6.1476,-6.0844,-6.0177,-6.123,-6.1476,-6.0212,-6.0704,-6.0809,-6.0142,-6.0107,-6.0107,-6.0107,-6.0107,-6.0036,-5.9896,-6.0036,-6.0036,-5.9896,-6.0036,-6.0107,-6.0107,-6.0107,-6.0107,-6.463,-6.5392,-6.5821,-6.5454,-6.4992,-6.3758,-6.0299,0.0,0.0,0.0,0.0,-5.407,-5.3938,0.0,0.0,0.0,0.0,0.0,0.0,0.0,0.0,0.0,0.0,0.0,0.0,0.0,0.0,0.0,0.0,-7.401,-7.401,-7.3238,-7.229,-7.1166,-7.1096,-7.0148,-6.8217,-6.7409,-6.6637,-6.5865,-6.5092,-6.3898,-6.2389,-6.281,-6.1932,-6.0107,-6.0528,0.0,-6.0107,-6.0107,-6.0107,-6.0107,-6.0107,-6.0107,-6.0107,-6.0107,-6.0352,-6.0704,-6.0704,-6.0704,-6.0704,-6.0704,-6.0704,-6.0809,-6.1195,-6.1862,-6.2564,-6.288,-6.3267,-6.3688,-6.4039,-6.4144,-6.425,-6.4636,-6.4706,-6.4601,-6.4214,-6.4425,-6.4355,-6.3196,-6.2986,-6.3021,-6.3021,-6.274,-6.2599,-6.2951,-6.2705,-6.2459,-6.2389,-6.2073,-6.1581,-6.0809,-6.102,-6.0879,-6.0142,-6.0844,-6.1125,-6.0739,-6.0704,-6.0704,-6.0704,-6.0317,-5.9931,-5.9545,-5.9896,-5.9721,-5.8913,-5.9721,-5.9896,-5.9545,-5.9931,-6.0317,-6.4829,-6.5293,-6.526,-6.4564,-6.3666,-6.1723,-5.7189,-5.595,0.0,0.0,0.0,0.0,0.0,0.0,0.0,0.0,0.0,0.0,0.0,0.0,0.0,0.0,0.0,0.0,0.0,0.0,0.0,0.0,0.0,0.0,-7.3764,-7.3132,-7.2395,-7.1482,-7.0675,-6.9516,-6.7971,-6.7164,-6.6391,-6.5619,-6.5022,-6.3969,-6.267,-6.3302,-6.2389,-6.0388,-6.102,0.0,0.0,-6.0282,-6.0352,-6.0352,-6.0528,-6.0493,-6.0352,-6.0352,-6.0633,-6.1055,-6.1055,-6.116,-6.13,-6.13,-6.1195,-6.109,-6.1265,-6.2038,-6.2775,-6.2459,-6.3267,-6.4109,-6.3688,-6.4144,-6.4706,-6.4706,-6.4846,-6.4811,-6.4214,-6.4671,-6.4741,-6.3196,-6.3547,-6.4039,-6.3863,-6.3688,-6.3688,-6.4039,-6.3653,-6.3231,-6.2915,-6.2459,-6.2073,-6.1827,-6.1055,-6.0458,-6.0107,-6.0984,-6.1476,-6.13,-6.1441,-6.1546,-6.1546,-6.0914,-6.0317,-5.9756,-6.0282,-5.9931,-5.8562,-5.9756,-6.0072,-5.951,-6.0107,-6.0774,-6.4266,-6.4929,-6.526,-6.4564,-6.3358,-6.1103,-5.6691,0.0,0.0,0.0,0.0,0.0,0.0,0.0,0.0,0.0,0.0,0.0,0.0,0.0,0.0,0.0,0.0,0.0,0.0,0.0,0.0,0.0,0.0,0.0,-7.2957,-7.2851,-7.2114,-7.0675,-6.9867,-6.8708,-6.7129,-6.6356,-6.5584,-6.4811,-6.4741,-6.4285,-6.3477,-6.3547,-6.2705,-6.1195,-6.1265,0.0,0.0,-6.0879,-6.1195,-6.1265,-6.1932,-6.1757,-6.1195,-6.1195,-6.0774,-6.0212,-6.0212,-6.0668,-6.13,-6.13,-6.0809,-6.0352,-6.109,-6.0879,-6.0704,-6.2003,-6.2494,-6.274,-6.3407,-6.4144,-6.4706,-6.4706,-6.5268,-6.5759,-6.5689,-6.6251,-6.6356,-6.4811,-6.5127,-6.5443,-6.4741,-6.4039,-6.4074,-6.5478,-6.3863,-6.2986,-6.432,-6.2705,-6.1897,-6.3231,-6.267,-6.1616,-6.0212,-6.1441,-6.2003,-6.1336,-6.1932,-6.2283,-6.2283,-6.2213,-6.2143,-6.2073,-6.2143,-6.1792,-6.0984,-6.1125,-6.116,-6.109,-6.116,-6.1581,-6.3272,-6.4531,-6.5127,-6.4001,-6.2278,-5.9827,-5.5852,0.0,0.0,0.0,0.0,0.0,-5.1011,0.0,0.0,0.0,0.0,0.0,0.0,0.0,0.0,0.0,0.0,0.0,0.0,0.0,0.0,0.0,0.0,0.0,-7.2184,-7.2149,-7.1622,-7.0534,-6.9305,-6.8147,-6.7023,-6.6707,-6.5935,-6.4741,-6.5198,-6.4776,-6.3618,-6.4074,-6.3196,-6.1336,-6.1757,0.0,0.0,-6.116,-6.1546,-6.1932,-6.1792,-6.1546,-6.123,-6.0774,-6.0668,-6.0879,-6.1336,-6.1406,-6.1441,-6.2389,-6.1827,-6.0879,-6.1195,-6.1722,-6.2213,-6.2354,-6.3056,-6.3863,-6.4179,-6.4495,-6.4706,-6.4706,-6.4952,-6.5057,-6.4601,-6.5478,-6.5865,-6.4355,-6.5408,-6.6321,-6.5549,-6.5549,-6.5865,-6.6461,-6.5759,-6.5233,-6.5408,-6.4214,-6.3407,-6.3583,-6.2459,-6.1652,-6.1476,-6.2494,-6.2986,-6.2705,-6.2951,-6.3126,-6.3126,-6.2635,-6.2389,-6.2389,-6.1967,-6.1336,-6.0563,-6.1055,-6.1055,-6.0598,-6.1511,-6.2354,-6.1781,-6.367,-6.4796,-6.357,-6.1616,-5.9032,0.0,0.0,0.0,0.0,0.0,-4.8762,-5.0191,-5.0793,-5.153,-5.2909,0.0,-5.5179,0.0,0.0,0.0,0.0,0.0,0.0,0.0,0.0,0.0,0.0,0.0,0.0,-7.1412,-7.1342,-7.0991,-7.0183,-6.8673,-6.769,-6.7374,-6.6918,-6.6145,-6.5057,-6.5619,-6.5198,-6.3934,-6.446,-6.3723,-6.2003,-6.2529,0.0,0.0,-6.1862,-6.2143,-6.2354,-6.2073,-6.1827,-6.1546,-6.0984,-6.1125,-6.1652,-6.1967,-6.2038,-6.2108,-6.2951,-6.281,-6.2248,-6.2038,-6.2564,-6.3161,-6.2845,-6.3547,-6.4425,-6.4671,-6.4706,-6.4706,-6.4706,-6.4882,-6.4987,-6.4671,-6.5654,-6.6251,-6.5162,-6.6461,-6.748,-6.6707,-6.6813,-6.7164,-6.7655,-6.7129,-6.6637,-6.6567,-6.5689,-6.4952,-6.4636,-6.3442,-6.2599,-6.2389,-6.3126,-6.3583,-6.3583,-6.3793,-6.3934,-6.3934,-6.3161,-6.2845,-6.3091,-6.2354,-6.1687,-6.1125,-6.1476,-6.1336,-6.0809,-6.1652,-6.2494,-5.9628,-6.2179,-6.42,-6.3471,-6.1616,-5.9032,0.0,0.0,0.0,0.0,-4.8597,-4.9094,-4.9127,-5.0286,-5.128,-5.135,-5.198,-5.3423,-5.6212,0.0,0.0,0.0,0.0,0.0,0.0,0.0,0.0,0.0,0.0,0.0,-7.0604,-7.0534,-7.0183,-6.9411,-6.7866,-6.7409,-6.8182,-6.6672,-6.59,-6.5865,-6.59,-6.5478,-6.4706,-6.4706,-6.4285,0.0,0.0,0.0,0.0,-6.3231,-6.3091,-6.2459,-6.3267,-6.3091,-6.2389,-6.2354,-6.2354,-6.2283,-6.1546,-6.2319,-6.3442,-6.267,-6.3442,-6.453,-6.3793,-6.3021,-6.2564,-6.3372,-6.3583,-6.3793,-6.453,-6.4706,-6.4706,-6.4706,-6.5303,-6.6075,-6.6813,-6.762,-6.8182,-6.8182,-6.8814,-6.9095,-6.8322,-6.7515,-6.755,-6.913,-6.7374,-6.6461,-6.8006,-6.6848,-6.6145,-6.6883,-6.6286,-6.4917,-6.2599,-6.3126,-6.3583,-6.3583,-6.4285,-6.4706,-6.4706,-6.3969,-6.3934,-6.4671,-6.3934,-6.3547,-6.3547,-6.2775,-6.2354,-6.2354,-6.1652,-6.1722,-5.5852,-5.7674,-5.9065,-5.8833,-5.7111,-5.5057,-5.3434,0.0,0.0,0.0,-4.8531,-4.8663,-4.969,-4.9823,-5.0121,-5.1115,-5.1479,-5.2113,0.0,0.0,0.0,0.0,0.0,0.0,0.0,0.0,0.0,0.0,0.0,0.0,-6.9256,-6.9099,-6.9136,-6.9376,-6.8357,-6.7936,-6.8217,-6.7164,-6.6391,-6.59,-6.59,-6.5478,-6.4706,-6.4706,-6.432,0.0,0.0,0.0,0.0,-6.3477,-6.3758,-6.3969,-6.3688,-6.3442,-6.3126,-6.2599,-6.2389,-6.2424,-6.274,-6.281,-6.2915,-6.3723,-6.3969,-6.4004,-6.4285,-6.4179,-6.4039,-6.4285,-6.4355,-6.4425,-6.4671,-6.4706,-6.4706,-6.4706,-6.5303,-6.5935,-6.6181,-6.7269,-6.8217,-6.8217,-6.8849,-6.9305,-6.906,-6.8814,-6.8814,-6.9305,-6.8744,-6.8252,-6.8217,-6.7796,-6.7339,-6.7023,-6.6813,-6.6356,-6.5619,-6.5303,-6.5162,-6.5162,-6.5373,-6.5268,-6.4741,-6.4987,-6.5022,-6.4741,-6.3969,-6.3302,-6.2775,-6.2494,-6.2389,-6.2389,-6.2705,-6.2986,0.0,-5.4731,-5.6282,-5.6282,-5.5057,0.0,0.0,0.0,0.0,0.0,0.0,0.0,-4.926,-4.9458,-4.9823,-5.0717,-5.1115,-5.1645,0.0,0.0,0.0,0.0,0.0,0.0,0.0,0.0,0.0,0.0,0.0,0.0,-6.8159,-6.8086,-6.8241,-6.8628,-6.8068,-6.7901,-6.8217,-6.7129,-6.6356,-6.59,-6.59,-6.5478,-6.4706,-6.4706,-6.446,0.0,0.0,0.0,0.0,-6.4039,-6.4109,-6.425,-6.3793,-6.3583,-6.3547,-6.3021,-6.3021,-6.3302,-6.3512,-6.3442,-6.3372,-6.4074,-6.4179,-6.4109,-6.4566,-6.4706,-6.4706,-6.4706,-6.4706,-6.4706,-6.4706,-6.4706,-6.4706,-6.4706,-6.5303,-6.597,-6.6251,-6.7304,-6.8287,-6.8603,-6.906,-6.9376,-6.9376,-6.9376,-6.9376,-6.9376,-6.9376,-6.92,-6.8708,-6.8638,-6.8463,-6.7971,-6.7901,-6.7901,-6.7901,-6.6918,-6.6321,-6.6321,-6.6321,-6.597,-6.5198,-6.5338,-6.5198,-6.4741,-6.3969,-6.3477,-6.3267,-6.267,-6.2248,-6.2003,-6.2494,-6.288,0.0,-5.28,-5.4939,-5.5048,-5.4518,-5.3625,0.0,0.0,0.0,0.0,0.0,0.0,0.0,-4.916,-5.0088,-5.0121,-5.0684,-5.1645,0.0,0.0,0.0,0.0,0.0,0.0,0.0,0.0,0.0,0.0,0.0,0.0,-6.7277,-6.7291,-6.7257,-6.7257,-6.7023,-6.7265,-6.8036,-6.6495,-6.5794,-6.5794,-6.5759,-6.5338,-6.4637,-6.4706,-6.4706,0.0,0.0,0.0,0.0,-6.4671,-6.425,-6.3688,-6.3688,-6.3688,-6.3688,-6.3688,-6.4109,-6.4601,-6.3934,-6.4144,-6.4601,-6.3898,-6.4144,-6.4706,-6.4706,-6.4706,-6.4706,-6.4706,-6.4706,-6.4706,-6.4706,-6.4706,-6.4741,-6.4776,-6.5408,-6.6181,-6.6953,-6.7725,-6.8533,-6.9235,-6.9376,-6.9411,-6.9446,-6.9411,-6.9411,-6.9446,-6.9411,-6.9376,-6.9376,-6.9376,-6.9376,-6.9376,-6.9376,-6.9376,-6.9376,-6.7971,-6.7093,-6.7093,-6.7093,-6.6742,-6.6005,-6.5338,-6.4917,-6.4811,-6.4004,-6.3934,-6.4636,-6.3126,-6.2038,-6.1371,-6.1441,-6.1827,-4.5815,0.0,-4.8272,-4.9401,-4.9154,-4.8838,0.0,0.0,0.0,0.0,0.0,0.0,0.0,0.0,0.0,-4.9293,-4.9491,-5.032,0.0,0.0,0.0,0.0,0.0,0.0,0.0,0.0,0.0,0.0,0.0,-6.6089,-6.5834,-6.5867,-6.5782,-6.5782,-6.571,-6.5998,-6.6755,-6.5275,-6.4484,-6.4484,-6.4343,-6.4213,-6.4039,-6.4498,-6.4706,0.0,0.0,0.0,-6.4671,-6.4109,-6.4109,-6.446,-6.446,-6.446,-6.446,-6.446,-6.4566,-6.4706,-6.4495,-6.4566,-6.4671,-6.4495,-6.4566,-6.4706,-6.4706,-6.4706,-6.4706,-6.4706,-6.4706,-6.4706,-6.4706,-6.4706,-6.4882,-6.5478,-6.6181,-6.6953,-6.776,-6.8533,-6.9165,-6.934,-6.9376,-6.9551,-7.0148,-6.9762,-6.9586,-7.0148,-6.9762,-6.9376,-6.9376,-6.9376,-6.9376,-6.9376,-6.9376,-6.9376,-6.9376,-6.8498,-6.7936,-6.7936,-6.7936,-6.7585,-6.6777,-6.7164,-6.6813,-6.5619,-6.4285,-6.3688,-6.3863,-6.288,-6.2283,-6.2143,-6.2775,-6.3126,-4.3927,-4.4812,-4.5864,-4.6678,-4.6853,-4.713,-4.825,0.0,0.0,0.0,0.0,0.0,0.0,0.0,0.0,0.0,-4.9657,0.0,0.0,0.0,0.0,0.0,0.0,0.0,0.0,0.0,0.0,0.0,0.0,-6.5293,-6.4962,-6.488,-6.4738,-6.4404,-6.4001,-6.4288,-6.5255,-6.4093,-6.3512,-6.3512,-6.3405,-6.3348,-6.3422,-6.4039,-6.4252,0.0,0.0,0.0,-6.4671,-6.4285,-6.4355,-6.4671,-6.4355,-6.4214,-6.4144,-6.3793,-6.3898,-6.4214,-6.4214,-6.4214,-6.425,-6.4601,-6.4495,-6.425,-6.4601,-6.4706,-6.4706,-6.4706,-6.4706,-6.4706,-6.4706,-6.4706,-6.4917,-6.5689,-6.6461,-6.7234,-6.8041,-6.8814,-6.9376,-6.9376,-6.9656,-6.9902,-6.9972,-6.9937,-6.9937,-6.9972,-6.9656,-6.9516,-6.9867,-6.9902,-6.9902,-6.9902,-7.0218,-7.0148,-6.9446,-6.9305,-6.913,-6.8779,-6.8744,-6.8392,-6.7585,-6.762,-6.7093,-6.59,-6.4706,-6.4109,-6.4109,-6.3337,-6.2951,-6.2951,-6.3758,-6.4285,-4.3329,-4.4282,-4.5332,-4.5478,-4.5992,-4.6655,0.0,0.0,0.0,0.0,0.0,0.0,0.0,0.0,0.0,0.0,0.0,0.0,0.0,0.0,0.0,0.0,0.0,0.0,0.0,0.0,0.0,0.0,0.0,-6.4829,-6.4233,-6.41,-6.3769,-6.314,-6.251,-6.2598,-6.3485,-6.2863,-6.2625,-6.2625,-6.2702,-6.2745,-6.2745,-6.3319,-6.347,-6.3543,0.0,0.0,-6.4253,-6.4253,-6.4288,-6.4323,-6.3589,-6.3448,-6.3517,-6.2711,-6.2989,-6.3758,-6.369,-6.3622,-6.3727,-6.4288,-6.4043,-6.3727,-6.4357,-6.4637,-6.4706,-6.4706,-6.4706,-6.4706,-6.4706,-6.4811,-6.5092,-6.5865,-6.6637,-6.7409,-6.8217,-6.8919,-6.9376,-6.9376,-7.0007,-7.0288,-6.9656,-7.0183,-7.0464,-6.9832,-6.9727,-6.9972,-7.0604,-7.0675,-7.0675,-7.0675,-7.1307,-7.1131,-6.9691,-7.0148,-7.0183,-6.9446,-6.9376,-6.9095,-6.8428,-6.762,-6.6883,-6.6251,-6.5478,-6.5022,-6.4882,-6.425,-6.3934,-6.3969,-6.4601,-6.5303,-4.3329,-4.3488,-4.3849,-4.451,-4.4754,-4.5042,0.0,0.0,0.0,0.0,0.0,0.0,0.0,0.0,0.0,0.0,0.0,0.0,0.0,0.0,0.0,0.0,0.0,0.0,0.0,0.0,0.0,0.0,0.0,-6.357,-6.3438,-6.2842,-6.2444,-6.2345,-6.2245,-6.1667,-6.0651,-6.115,-6.1417,-6.1417,-6.1917,-6.2156,-6.2122,-6.2097,-6.209,-6.2056,0.0,-6.1689,-6.2238,-6.2164,-6.2541,-6.3056,-6.2375,-6.2772,-6.369,-6.2891,-6.3485,-6.4462,-6.3937,-6.3794,-6.3722,-6.3314,-6.3427,-6.3794,-6.3898,-6.4252,-6.4706,-6.4706,-6.4706,-6.4706,-6.4706,-6.5198,-6.59,-6.6637,-6.7445,-6.8252,-6.9024,-6.9305,-6.9376,-6.9376,-7.0007,-7.0464,-7.0359,-7.0991,-7.1482,-7.1377,-7.1342,-7.1412,-7.1517,-7.1517,-7.1517,-7.1517,-7.1622,-7.1342,-7.0429,-7.0429,-7.0183,-6.9446,-6.9376,-6.934,-6.92,-6.8428,-6.7971,-6.7866,-6.7058,-6.6356,-6.5689,-6.5584,-6.5549,-6.5549,-6.5654,-6.611,-4.3329,-4.3329,-4.3498,-4.4225,-4.4122,-4.4082,0.0,0.0,0.0,0.0,0.0,0.0,0.0,0.0,0.0,0.0,0.0,0.0,0.0,0.0,0.0,0.0,0.0,0.0,0.0,0.0,0.0,0.0,0.0,0.0,-6.2709,-6.2345,-6.198,-6.1616,-6.1218,-6.0688,-6.0026,-5.9926,-6.0125,-6.0523,-6.0817,-6.0946,-6.0946,-6.1177,-6.1113,-6.074,0.0,-6.1223,-6.1297,-6.2043,-6.2112,-6.1667,-6.1326,-6.1615,-6.2144,-6.2178,-6.2565,-6.3021,-6.2802,-6.2729,-6.2655,-6.2358,-6.2432,-6.2724,-6.3136,-6.3496,-6.375,-6.375,-6.4182,-6.4811,-6.5233,-6.5619,-6.6181,-6.7374,-6.7936,-6.8428,-6.92,-6.9376,-6.9516,-6.9902,-7.0639,-7.1166,-7.1166,-7.1798,-7.2149,-7.1763,-7.1728,-7.1868,-7.2254,-7.229,-7.229,-7.229,-7.2676,-7.229,-7.0639,-7.092,-7.0639,-6.9446,-6.9376,-6.92,-6.8779,-6.8392,-6.8217,-6.8217,-6.7409,-6.7058,-6.7129,-6.6707,-6.6497,-6.6497,-6.6953,-6.7339,-4.3329,-4.3329,-4.3449,-4.3958,0.0,0.0,0.0,0.0,0.0,0.0,0.0,0.0,0.0,0.0,0.0,0.0,0.0,0.0,0.0,0.0,0.0,0.0,0.0,0.0,0.0,0.0,0.0,0.0,0.0,0.0,-6.1947,-6.1748,-6.1417,-6.0854,-6.0125,-5.9661,-5.9496,-5.8933,-5.9098,-5.9993,-5.9827,-5.9827,-5.9993,-6.0324,-5.998,-5.942,-6.0588,-6.0714,-6.0102,-6.1461,-6.1325,-6.0272,-6.0306,-6.0483,-6.087,-6.1661,-6.2009,-6.1934,-6.1893,-6.1817,-6.1783,-6.1664,-6.1741,-6.1919,-6.2498,-6.2779,-6.2897,-6.2897,-6.3708,-6.4671,-6.5513,-6.5933,-6.6565,-6.7864,-6.8357,-6.8638,-6.9235,-6.9516,-6.9797,-7.0394,-7.1307,-7.1903,-7.1728,-7.2465,-7.2816,-7.2079,-7.2114,-7.243,-7.3027,-7.3062,-7.3062,-7.3062,-7.3448,-7.2851,-7.0675,-7.092,-7.0675,-6.9446,-6.9376,-6.9095,-6.8533,-6.8498,-6.8498,-6.8498,-6.7866,-6.776,-6.8217,-6.7585,-6.7304,-6.7304,-6.7936,-6.8322,-4.3329,-4.3329,0.0,0.0,0.0,0.0,0.0,0.0,0.0,0.0,0.0,0.0,0.0,0.0,0.0,0.0,0.0,0.0,0.0,0.0,0.0,0.0,0.0,0.0,0.0,0.0,0.0,0.0,0.0,0.0,-6.1218,-6.0523,-6.0125,-6.0092,-5.9363,-5.8634,-5.7972,-5.7906,-5.8601,-5.9993,-5.9297,-5.933,-5.9993,-5.9378,-5.8648,-5.7984,-5.8794,-5.8694,-5.8063,-5.886,-5.9159,-5.9059,-5.9059,-5.9822,-6.1042,-6.2327,-6.2829,-6.2753,-6.2212,-6.1975,-6.1929,-6.1317,-6.1561,-6.2009,-6.2043,-6.2469,-6.2897,-6.2897,-6.3444,-6.4221,-6.4893,-6.6081,-6.7307,-6.8036,-6.8779,-6.9305,-6.9376,-6.9937,-7.0429,-7.0499,-7.1693,-7.25,-7.1833,-7.2922,-7.3624,-7.2851,-7.3343,-7.3869,-7.3905,-7.3905,-7.3905,-7.3905,-7.3308,-7.2254,-7.0639,-6.9902,-6.9516,-6.9376,-6.9376,-6.934,-6.9305,-6.9305,-6.9305,-6.9305,-6.9235,-6.8884,-6.8217,-6.8147,-6.8112,-6.8147,-6.8182,-6.8603,-4.3329,-4.3468,0.0,0.0,0.0,0.0,0.0,0.0,0.0,0.0,0.0,0.0,0.0,0.0,0.0,0.0,0.0,0.0,0.0,0.0,0.0,0.0,0.0,0.0,0.0,0.0,0.0,0.0,0.0,0.0,-6.1119,-6.039,-5.9993,-5.9993,-5.8833,-5.8071,-5.7806,-5.7342,-5.7608,-5.8634,-5.8336,-5.8369,-5.8601,-5.8336,-5.7806,-5.7144,-5.7906,-5.7806,-5.721,-5.8403,-5.8369,-5.7608,-5.8535,-5.9491,-6.0465,-6.1441,-6.179,-6.1642,-6.1013,-6.1098,-6.1317,-6.0638,-6.0886,-6.1383,-6.1383,-6.1628,-6.179,-6.179,-6.2662,-6.3814,-6.482,-6.5808,-6.678,-6.7532,-6.7955,-6.8162,-6.8162,-6.8749,-6.9405,-6.9854,-7.0786,-7.1581,-7.1788,-7.2306,-7.2582,-7.2306,-7.2845,-7.3299,-7.3299,-7.3737,-7.3817,-7.338,-7.1792,-7.0579,-6.9992,-6.8853,-6.8527,-6.9401,-6.9398,-6.9376,-6.9376,-6.9376,-6.9376,-6.9376,-6.9376,-6.9235,-6.8954,-6.8954,-6.8954,-6.8954,-6.8954,-6.9095,-4.325,-4.3418,-4.376,-4.4442,0.0,0.0,0.0,0.0,0.0,0.0,0.0,0.0,0.0,0.0,0.0,0.0,0.0,0.0,0.0,0.0,0.0,0.0,0.0,0.0,0.0,0.0,0.0,0.0,0.0,0.0,0.0,-5.9694,-5.9297,-5.9297,-5.8104,-5.7442,-5.7442,-5.6945,-5.6945,-5.7442,-5.7442,-5.7574,-5.7806,-5.7806,-5.7376,-5.6713,-5.7475,-5.7376,-5.6779,-5.7773,-5.774,-5.7177,-5.8668,-5.9562,-6.0092,-6.0854,-6.1119,-6.1053,-6.0523,-6.0688,-6.102,-6.0523,-6.0688,-6.1119,-6.1119,-6.1251,-6.145,-6.145,-6.251,-6.3862,-6.4754,-6.559,-6.6514,-6.7223,-6.7407,-6.7407,-6.7407,-6.8193,-6.9013,-6.9525,-7.0414,-7.1268,-7.1814,-7.1917,-7.1917,-7.1917,-7.2262,-7.2567,-7.2567,-7.3018,-7.3031,-7.234,-7.0633,-6.9628,-6.9628,-6.8466,-6.8152,-6.9153,-6.9366,-6.9503,-6.9727,-6.9516,-6.9376,-6.9376,-6.9376,-6.9376,-6.9376,-6.9376,-6.9376,-6.9376,-6.9621,-6.9727,-4.301,-4.285,-4.2865,0.0,0.0,0.0,0.0,0.0,0.0,0.0,0.0,0.0,0.0,0.0,0.0,0.0,0.0,0.0,0.0,0.0,0.0,0.0,0.0,0.0,0.0,0.0,0.0,0.0,0.0,0.0,0.0,-5.8204,-5.7806,-5.7806,-5.7077,-5.668,-5.668,-5.668,-5.668,-5.668,-5.668,-5.7077,-5.7773,-5.7773,-5.7376,-5.6713,-5.7475,-5.7376,-5.668,-5.668,-5.7111,-5.7939,-5.9396,-5.9993,-6.0092,-6.0821,-6.1086,-6.1119,-6.1086,-6.1086,-6.1119,-6.1119,-6.1119,-6.1119,-6.1119,-6.1616,-6.2146,-6.2146,-6.3239,-6.4365,-6.4365,-6.5387,-6.6576,-6.7243,-6.7407,-6.7407,-6.7407,-6.8569,-6.9594,-6.9594,-7.0858,-7.1917,-7.1917,-7.1917,-7.1917,-7.1917,-7.1917,-7.1917,-7.1917,-7.1917,-7.1609,-7.0738,-7.0072,-6.9628,-6.9543,-6.8861,-6.85,-6.85,-6.9107,-6.9776,-7.0424,-6.9762,-6.9376,-6.9376,-6.9376,-6.9376,-6.9376,-6.9376,-6.9376,-6.9411,-7.0183,-7.0534,-4.3575,0.0,0.0,0.0,0.0,0.0,0.0,0.0,0.0,0.0,0.0,0.0,0.0,0.0,0.0,0.0,0.0,0.0,0.0,0.0,0.0,0.0,0.0,0.0,0.0,0.0,0.0,0.0,0.0,0.0,0.0,-5.8204,-5.7806,-5.7806,-5.6581,-5.6183,-5.668,-5.6183,-5.6183,-5.668,-5.668,-5.6812,-5.7011,-5.7011,-5.6912,-5.6713,-5.6912,-5.6879,-5.668,-5.668,-5.7111,-5.7839,-5.827,-5.9098,-5.996,-5.9661,-6.0225,-6.1053,-6.0523,-6.0688,-6.1119,-6.1119,-6.1119,-6.1119,-6.1119,-6.1251,-6.1417,-6.1417,-6.2477,-6.3603,-6.3603,-6.4673,-6.5746,-6.5922,-6.6009,-6.6009,-6.6009,-6.7146,-6.8216,-6.8216,-6.9386,-7.0423,-7.0423,-7.0423,-7.0423,-7.0423,-7.0815,-7.1355,-7.183,-7.1036,-7.0364,-7.0039,-6.892,-6.7982,-6.748,-6.7212,-6.7255,-6.7861,-6.7523,-6.7796,-6.8976,-6.9258,-6.9376,-6.9376,-6.9376,-6.9376,-6.9376,-6.9902,-7.0183,-7.0183,-7.0991,-7.1342,-4.3567,0.0,0.0,0.0,0.0,0.0,0.0,0.0,0.0,0.0,0.0,0.0,0.0,0.0,0.0,0.0,0.0,0.0,0.0,0.0,0.0,0.0,0.0,0.0,0.0,0.0,0.0,0.0,0.0,0.0,0.0,-5.7177,-5.6945,-5.6945,-5.5786,-5.5388,-5.5819,-5.5388,-5.5388,-5.5819,-5.5819,-5.5984,-5.6282,-5.6547,-5.668,-5.668,-5.668,-5.668,-5.6713,-5.7011,-5.721,-5.7409,-5.8005,-5.8601,-5.9131,-5.9264,-5.9893,-6.0655,-6.049,-6.0721,-6.1119,-6.1119,-6.1119,-6.1119,-6.1119,-6.1318,-6.155,-6.155,-6.2577,-6.3703,-6.3703,-6.4564,-6.5425,-6.5425,-6.5425,-6.5425,-6.5425,-6.6353,-6.7281,-6.7579,-6.8572,-6.9434,-6.9732,-6.9798,-6.9798,-6.9798,-7.011,-7.0574,-7.103,-7.0028,-6.9319,-6.9319,-6.8053,-6.7115,-6.6982,-6.6684,-6.6699,-6.7112,-6.694,-6.7049,-6.7569,-6.8241,-6.8628,-6.8628,-6.8628,-6.8802,-6.9003,-6.9454,-6.9836,-7.0149,-7.0948,-7.1454,0.0,0.0,0.0,0.0,0.0,0.0,0.0,0.0,0.0,0.0,0.0,0.0,0.0,0.0,0.0,0.0,0.0,0.0,0.0,0.0,0.0,0.0,0.0,0.0,0.0,0.0,0.0,0.0,0.0,0.0,0.0,-5.5521,-5.5521,-5.5521,-5.4792,-5.446,-5.4527,-5.446,-5.446,-5.4527,-5.4527,-5.4924,-5.5653,-5.6282,-5.6581,-5.6581,-5.6647,-5.6647,-5.6647,-5.7376,-5.7276,-5.6812,-5.8171,-5.8336,-5.7939,-5.9297,-5.9893,-6.0092,-6.0788,-6.1053,-6.1119,-6.1119,-6.1119,-6.1119,-6.1119,-6.155,-6.208,-6.208,-6.314,-6.4266,-6.4266,-6.4862,-6.5425,-6.5425,-6.5425,-6.5425,-6.5425,-6.5989,-6.6751,-6.7479,-6.8208,-6.8904,-6.9666,-6.9798,-6.9798,-6.9798,-6.9798,-6.9798,-6.9798,-6.9136,-6.8672,-6.8606,-6.7413,-6.685,-6.738,-6.6883,-6.6485,-6.6419,-6.7012,-6.7026,-6.6354,-6.6995,-6.7407,-6.7407,-6.7475,-6.7851,-6.85,-6.8637,-6.9081,-6.968,-7.0431,-7.1198,0.0,0.0,0.0,0.0,0.0,0.0,0.0,0.0,0.0,0.0,0.0,0.0,0.0,0.0,0.0,0.0,0.0,0.0,0.0,0.0,0.0,0.0,0.0,0.0,0.0,0.0,0.0,0.0,0.0,0.0,-5.4759,-5.4759,-5.4759,-5.4759,-5.403,-5.393,-5.4527,-5.393,-5.3964,0.0,-5.4527,-5.4924,-5.562,-5.5786,-5.5852,-5.5885,-5.6448,-5.6382,-5.5918,-5.6614,-5.6812,-5.6713,-5.7044,-5.7409,-5.7839,-5.8171,-5.8999,-6.0026,-6.0191,-6.0622,-6.1119,-6.1119,-6.1119,-6.1119,-6.1119,-6.1218,-6.1351,-6.1351,-6.2378,-6.3504,-6.3504,-6.4465,-6.5425,-6.5425,-6.5425,-6.5425,-6.5425,-6.5989,-6.6751,-6.7479,-6.8208,-6.8904,-6.9666,-6.9798,-6.9798,-6.9798,-6.9798,-6.9798,-6.9798,-6.9136,-6.8473,-6.791,-6.7579,-6.6982,-6.5989,-6.6287,-6.6254,-6.569,-6.5747,-6.5736,-6.557,-6.6745,-6.7407,-6.7407,-6.7988,-6.8364,-6.85,-6.9696,-7.0345,-7.0431,-7.1268,-7.173,0.0,0.0,0.0,0.0,0.0,0.0,0.0,0.0,0.0,0.0,0.0,0.0,0.0,0.0,0.0,0.0,0.0,0.0,0.0,0.0,0.0,0.0,0.0,0.0,0.0,0.0,0.0,0.0,0.0,-5.3923,-5.37,-5.3849,-5.3997,-5.3997,-5.3301,-5.3102,-5.35,-5.3102,-5.3102,-5.35,-5.35,-5.3864,-5.4593,-5.5322,-5.5819,-5.615,-5.6183,-5.615,-5.615,-5.6514,-5.668,-5.668,-5.668,-5.6912,-5.7342,-5.8071,-5.88,-5.9562,-6.0291,-6.0788,-6.1119,-6.1119,-6.1119,-6.1119,-6.1119,-6.1119,-6.1185,-6.1516,-6.2411,-6.3372,-6.3703,-6.4597,-6.5425,-6.5425,-6.5425,-6.5425,-6.5425,-6.5724,-6.632,-6.7413,-6.791,-6.8506,-6.9599,-6.9798,-6.9798,-6.9798,-6.9798,-6.9798,-6.9798,-6.9136,-6.8407,-6.7711,-6.7314,-6.6651,-6.5525,-6.6088,-6.6353,-6.5955,-6.6287,-6.6485,-6.6485,-6.7167,-6.7315,-6.6978,-6.7315,-6.7853,-6.856,-6.9334,-6.9906,-7.0276,-7.0737,-7.1086,0.0,0.0,0.0,0.0,0.0,0.0,0.0,0.0,0.0,0.0,0.0,0.0,0.0,0.0,0.0,0.0,0.0,0.0,0.0,0.0,0.0,0.0,0.0,0.0,0.0,0.0,0.0,0.0,0.0,-5.2942,-5.2539,-5.2836,-5.3089,-5.3089,-5.2528,-5.223,-5.2373,-5.2302,-5.2302,-5.2373,-5.2506,-5.287,-5.3467,-5.4692,-5.5554,-5.6117,-5.5752,-5.5885,-5.6349,-5.6581,-5.668,-5.668,-5.668,-5.668,-5.6879,-5.8336,-5.8833,-5.8933,-6.039,-6.092,-6.092,-6.092,-6.102,-6.1119,-6.1119,-6.1119,-6.1218,-6.1815,-6.261,-6.3405,-6.4034,-6.4796,-6.5425,-6.5425,-6.5425,-6.5425,-6.5425,-6.5425,-6.5823,-6.7181,-6.7645,-6.8241,-6.9566,-6.9798,-6.9798,-6.9798,-6.9798,-6.9798,-6.9798,-6.9268,-6.8572,-6.7711,-6.7082,-6.6419,-6.5657,-6.6154,-6.6585,-6.6717,-6.7281,-6.7612,-6.7612,-6.7612,-6.738,-6.6916,-6.6883,-6.7479,-6.8672,-6.8804,-6.9202,-6.9798,-6.9798,-7.0143,0.0,0.0,0.0,0.0,0.0,0.0,0.0,0.0,0.0,0.0,0.0,0.0,0.0,0.0,0.0,0.0,0.0,0.0,0.0,0.0,0.0,0.0,0.0,0.0,0.0,0.0,0.0,0.0,-5.168,-5.1819,-5.134,-5.1415,-5.1564,-5.1999,-5.1573,-5.1655,-5.2373,-5.2086,-5.2086,-5.2373,-5.3003,-5.3334,-5.3434,-5.3632,-5.3765,-5.393,-5.5123,-5.5322,-5.4891,-5.615,-5.668,-5.668,-5.668,-5.668,-5.6879,-5.8336,-5.8502,-5.8171,-5.9628,-6.0158,-6.0158,-6.0158,-6.0589,-6.1119,-6.1119,-6.1119,-6.1119,-6.1218,-6.2245,-6.3305,-6.3405,-6.4399,-6.5425,-6.5425,-6.5425,-6.5425,-6.5425,-6.5425,-6.5657,-6.6485,-6.7678,-6.8804,-6.9666,-6.9798,-6.9798,-6.9798,-6.9798,-6.9798,-6.9798,-6.9699,-6.9136,-6.7777,-6.7546,-6.7181,-6.6452,-6.6452,-6.6784,-6.7446,-6.7579,-6.7612,-6.7612,-6.7612,-6.7877,-6.8407,-6.8407,-6.8473,-6.8672,-6.9334,-6.9699,-6.9798,-6.9798,-6.9893,0.0,0.0,0.0,0.0,0.0,0.0,0.0,0.0,0.0,0.0,0.0,0.0,0.0,0.0,0.0,0.0,0.0,0.0,0.0,0.0,0.0,0.0,0.0,0.0,0.0,0.0,0.0,0.0,-5.0951,-5.121,-5.0832,-5.0951,-5.121,-5.1359,-5.121,-5.1285,-5.1655,-5.1762,-5.1868,-5.2086,-5.26,-5.2765,-5.2547,-5.2765,-5.3268,-5.4063,-5.4725,-5.5057,-5.5189,-5.5819,-5.6316,-5.6647,-5.6249,-5.6349,-5.6812,-5.7873,-5.8071,-5.7939,-5.9032,-5.9661,-5.9993,-5.9993,-6.0523,-6.1119,-6.1119,-6.1119,-6.1185,-6.1583,-6.2477,-6.3372,-6.3802,-6.463,-6.5425,-6.5425,-6.5425,-6.5425,-6.5425,-6.5425,-6.5624,-6.6386,-6.7678,-6.8804,-6.9103,-6.9533,-6.9798,-6.9798,-6.9798,-6.9798,-6.9798,-6.9798,-6.9401,-6.8341,-6.8241,-6.7943,-6.7214,-6.7512,-6.7877,-6.8208,-6.8606,-6.8837,-6.8837,-6.8837,-6.9003,-6.9301,-6.8904,-6.8904,-6.9301,-6.9633,-6.9798,-6.9798,-6.9798,-6.9798,0.0,0.0,0.0,0.0,0.0,0.0,0.0,0.0,0.0,0.0,0.0,0.0,0.0,0.0,0.0,0.0,0.0,0.0,0.0,0.0,0.0,0.0,0.0,0.0,0.0,0.0,0.0,0.0,-5.0229,-5.057,-5.037,-5.0679,-5.0832,-5.0951,-5.0832,-5.0876,-5.1102,-5.1434,-5.1614,-5.1614,-5.1908,-5.198,-5.1794,-5.2086,-5.2897,-5.3997,-5.4162,-5.456,-5.509,-5.5256,-5.5653,-5.6084,-5.5752,-5.5951,-5.6514,-5.7442,-5.7674,-5.7608,-5.8369,-5.9098,-5.9728,-5.9728,-6.0357,-6.1119,-6.1119,-6.1119,-6.1218,-6.1748,-6.2577,-6.3405,-6.3968,-6.4763,-6.5425,-6.5425,-6.5425,-6.5425,-6.5425,-6.5425,-6.5624,-6.6386,-6.7546,-6.8473,-6.8672,-6.9301,-6.9798,-6.9798,-6.9798,-6.9798,-6.9798,-6.9798,-6.95,-6.8771,-6.8672,-6.8473,-6.7943,-6.8374,-6.8771,-6.897,-6.95,-6.9798,-6.9798,-6.9798,-6.9798,-6.9798,-6.9235,-6.9235,-6.9798,-6.9798,-6.9798,-6.9798,-6.9798,-6.9798,0.0,0.0,0.0,0.0,0.0,0.0,0.0,0.0,0.0,0.0,0.0,0.0,0.0,0.0,0.0,0.0,0.0,0.0,0.0,0.0,0.0,0.0,0.0,0.0,0.0,0.0,0.0,0.0,-4.9358,-4.9678,-4.9931,-4.9931,-5.0136,-5.0525,-5.0136,-5.0292,-5.1102,-5.1102,-5.1135,-5.1135,-5.121,-5.1359,-5.1794,-5.1868,-5.2046,-5.2539,-5.3169,-5.35,-5.3599,-5.4295,-5.4593,-5.4692,-5.5355,-5.5653,-5.5852,-5.7276,-5.7342,-5.6846,-5.7574,-5.8336,-5.8966,-5.8966,-5.9926,-6.1119,-6.1119,-6.1119,-6.1119,-6.1152,-6.2179,-6.3272,-6.3338,-6.4365,-6.5425,-6.5425,-6.5425,-6.5425,-6.5425,-6.5425,-6.5624,-6.6386,-6.7148,-6.791,-6.8572,-6.9301,-6.9798,-6.9798,-6.9798,-6.9798,-6.9798,-6.9798,-6.95,-6.8771,-6.8672,-6.8672,-6.8639,-6.8672,-6.9003,-6.9699,-6.9765,-6.9798,-6.9798,-6.9798,-6.9798,-6.9798,-6.9765,-6.9765,-6.9798,-6.9798,-6.9798,-6.9798,-6.9798,-6.9798,0.0,0.0,0.0,0.0,0.0,0.0,0.0,0.0,0.0,0.0,0.0,0.0,0.0,0.0,0.0,0.0,0.0,0.0,0.0,0.0,0.0,0.0,0.0,0.0,0.0,0.0,0.0,0.0,0.0,-4.939,-4.9852,-4.9931,-5.001,-5.0136,-5.001,-5.0136,-5.0755,-5.0755,-5.0755,-5.0755,-5.0984,-5.1059,-5.0984,-5.121,-5.1434,-5.1614,-5.1843,-5.2532,-5.3467,-5.4229,-5.4527,-5.4593,-5.5322,-5.562,-5.5752,-5.6713,-5.6912,-5.6713,-5.6978,-5.7574,-5.827,-5.8734,-5.9595,-6.049,-6.0953,-6.1119,-6.1119,-6.1119,-6.2146,-6.3272,-6.3272,-6.4332,-6.5425,-6.5425,-6.5425,-6.5425,-6.5425,-6.5425,-6.5492,-6.5757,-6.6784,-6.7711,-6.7976,-6.9003,-6.9798,-6.9798,-6.9798,-6.9798,-6.9798,-6.9798,-6.9699,-6.9434,-6.9401,-6.9401,-6.9401,-6.9401,-6.95,-6.9765,-6.9798,-6.9798,-6.9798,-6.9798,-6.9798,-6.9798,-6.9798,-6.9798,-6.9798,-6.9798,-6.9798,-6.9798,-6.9798,-6.9798,-3.9218,0.0,0.0,0.0,0.0,0.0,0.0,0.0,0.0,0.0,0.0,0.0,0.0,0.0,0.0,0.0,0.0,0.0,0.0,0.0,0.0,0.0,0.0,0.0,0.0,0.0,0.0,0.0,0.0,0.0,-4.9501,-4.9741,-4.9931,-4.9931,-4.9931,-5.001,-5.0292,-5.0292,-5.0292,-5.0292,-5.0602,-5.0602,-5.0525,-5.0832,-5.0951,-5.1102,-5.1102,-5.1769,-5.2884,-5.3379,-5.3651,-5.3864,-5.4593,-5.5024,-5.5355,-5.6051,-5.6481,-5.668,-5.668,-5.7177,-5.7906,-5.8668,-5.9396,-6.0158,-6.0887,-6.1119,-6.1119,-6.1119,-6.2146,-6.3272,-6.3272,-6.4332,-6.5425,-6.5425,-6.5425,-6.5425,-6.5425,-6.5425,-6.5425,-6.5425,-6.6618,-6.7612,-6.7612,-6.8837,-6.9798,-6.9798,-6.9798,-6.9798,-6.9798,-6.9798,-6.9798,-6.9798,-6.9798,-6.9798,-6.9798,-6.9798,-6.9798,-6.9798,-6.9798,-6.9798,-6.9798,-6.9798,-6.9798,-6.9798,-6.9798,-6.9798,-6.9798,-6.9798,-6.9798,-6.9798,-6.9798,-6.9798,0.0,0.0,0.0,0.0,0.0,0.0,0.0,0.0,0.0,0.0,0.0,0.0,0.0,0.0,0.0,0.0,0.0,0.0,0.0,0.0,0.0,0.0,0.0,0.0,0.0,0.0,0.0,0.0,-4.7508,-4.8157,-4.879,-4.9501,-4.9852,-4.9852,-4.9852,-4.9852,-4.9852,-4.9931,-4.9931,-4.9931,-4.9931,-5.0058,-5.0448,-5.0448,-5.0679,-5.1027,-5.1027,-5.1359,-5.1762,-5.1794,-5.2013,-5.244,-5.3202,-5.3897,-5.4551,-5.5312,-5.6084,-5.668,-5.668,-5.7144,-5.7873,-5.8634,-5.9396,-6.0125,-6.0887,-6.1119,-6.1119,-6.1119,-6.2146,-6.3272,-6.3338,-6.4365,-6.5425,-6.5425,-6.5425,-6.5425,-6.5425,-6.5425,-6.5425,-6.5425,-6.6618,-6.7612,-6.7612,-6.8837,-6.9798,-6.9798,-6.9798,-6.9798,-6.9798,-6.9798,-6.9798,-6.9798,-6.9798,-6.9798,-6.9798,-6.9798,-6.9798,-6.9798,-6.9798,-6.9798,-6.9798,-6.9798,-6.9798,-6.9798,-6.9798,-6.9798,-6.9798,-6.9798,-6.9798,-6.9798,-6.9798,-6.9798,-3.8202,0.0,0.0,0.0,0.0,0.0,0.0,-4.1424,0.0,0.0,0.0,0.0,0.0,0.0,0.0,0.0,0.0,0.0,0.0,0.0,0.0,0.0,0.0,0.0,0.0,0.0,0.0,0.0,-4.7076,-4.7508,-4.8157,-4.8324,-4.8407,-4.8407,-4.8903,-4.9147,-4.9147,-4.9661,-4.9931,-4.9931,-4.9931,-5.001,-5.0058,-5.0058,-5.0136,-5.0214,-5.0214,-5.0448,-5.094,-5.1761,-5.1847,-5.1671,-5.377,-5.4339,-5.4207,-5.5489,-5.6282,-5.668,-5.6402,-5.6579,-5.721,-5.8502,-5.9032,-5.9429,-6.0721,-6.1119,-6.1119,-6.1119,-6.2146,-6.3504,-6.4564,-6.5127,-6.5425,-6.5425,-6.5425,-6.5425,-6.5425,-6.5425,-6.5425,-6.5425,-6.6618,-6.7612,-6.7612,-6.8837,-6.9798,-6.9798,-6.9798,-6.9798,-6.9798,-6.9798,-6.9798,-6.9798,-6.9798,-6.9798,-6.9798,-6.9798,-6.9798,-6.9798,-6.9798,-6.9798,-6.9798,-6.9798,-6.9798,-6.9798,-6.9798,-6.9798,-6.9798,-6.9798,-6.9798,-6.9798,-6.9798,-6.9798,0.0,0.0,0.0,0.0,0.0,0.0,-3.9567,-4.0205,-4.1163,0.0,0.0,0.0,0.0,0.0,0.0,0.0,0.0,0.0,0.0,0.0,0.0,0.0,0.0,0.0,0.0,-4.5895,-4.6046,-4.6491,-4.6756,-4.7163,-4.7819,-4.7904,-4.7904,-4.7904,-4.8324,-4.849,-4.849,-4.8903,-4.9259,-4.9501,-4.9501,-4.9661,-4.9931,-4.9931,-4.9931,-4.9931,-4.9931,-4.9979,-5.0324,-5.0973,-5.1186,-5.1264,-5.3083,-5.3791,-5.3791,-5.4966,-5.5712,-5.6132,-5.5894,-5.5974,-5.6441,-5.8082,-5.8624,-5.8921,-6.0572,-6.1119,-6.1119,-6.1119,-6.2146,-6.3603,-6.5028,-6.5425,-6.5425,-6.5425,-6.5425,-6.5425,-6.5425,-6.5425,-6.5425,-6.5425,-6.6618,-6.7612,-6.7612,-6.8837,-6.9798,-6.9798,-6.9798,-6.9798,-6.9798,-6.9798,-6.9798,-6.9798,-6.9798,-6.9798,-6.9798,-6.9798,-6.9798,-6.9798,-6.9798,-6.9798,-6.9798,-6.9798,-6.9798,-6.9798,-6.9798,-6.9798,-6.9798,-6.9798,-6.9798,-6.9798,-6.9798,-6.9798,0.0,0.0,0.0,0.0,0.0,0.0,-3.9044,-3.9567,-4.0292,0.0,0.0,0.0,0.0,0.0,0.0,0.0,0.0,0.0,0.0,0.0,0.0,0.0,0.0,0.0,-4.5895,-4.5895,-4.5895,-4.5895,-4.6491,-4.7076,-4.7649,-4.7649,-4.7649,-4.7649,-4.7734,-4.7819,-4.7819,-4.7819,-4.824,-4.8821,-4.8903,-4.9228,-4.9741,-4.9852,-4.9931,-4.9931,-4.9931,-4.9931,-4.9931,-4.9931,-5.0292,-5.1048,-5.1791,-5.2579,-5.3291,-5.4002,-5.4713,-5.5409,-5.5328,-5.5328,-5.5718,-5.7462,-5.815,-5.856,-6.039,-6.0969,-6.1119,-6.1218,-6.2212,-6.3517,-6.4929,-6.5359,-6.5425,-6.5425,-6.5425,-6.5425,-6.5425,-6.5425,-6.5425,-6.5425,-6.6552,-6.7512,-6.7612,-6.8771,-6.9699,-6.9765,-6.9798,-6.9798,-6.9798,-6.9798,-6.9798,-6.9798,-6.9798,-6.9798,-6.9798,-6.9798,-6.9798,-6.9798,-6.9798,-6.9798,-6.9798,-6.9798,-6.9798,-6.9798,-6.9798,-6.9798,-6.9798,-6.9798,-6.9798,-6.9798,-6.9798,-6.9798,0.0,0.0,0.0,0.0,0.0,0.0,-3.9044,-3.887,-3.9102,0.0,0.0,0.0,0.0,0.0,0.0,0.0,0.0,0.0,0.0,0.0,0.0,0.0,0.0,0.0,-4.5895,-4.5895,-4.5895,-4.5895,-4.6046,-4.6135,-4.6314,-4.6314,-4.6314,-4.6314,-4.6814,-4.7076,-4.7076,-4.7649,-4.7988,-4.8072,-4.8656,-4.8984,-4.9147,-4.9661,-4.9931,-4.9931,-4.9931,-4.9931,-4.9931,-4.9931,-4.9979,-5.0231,-5.1325,-5.2187,-5.2893,-5.36,-5.4469,-5.5328,-5.4998,-5.5081,-5.5571,-5.6496,-5.7477,-5.8379,-5.9348,-6.0373,-6.1218,-6.1815,-6.2352,-6.3035,-6.4211,-6.4962,-6.5425,-6.5425,-6.5425,-6.5425,-6.5425,-6.5425,-6.5425,-6.5425,-6.6121,-6.6916,-6.7512,-6.8341,-6.9103,-6.9699,-6.9798,-6.9798,-6.9798,-6.9798,-6.9798,-6.9798,-6.9798,-6.9798,-6.9798,-6.9798,-6.9798,-6.9798,-6.9798,-6.9798,-6.9798,-6.9798,-6.9798,-6.9798,-6.9798,-6.9798,-6.9798,-6.9798,-6.9798,-6.9798,-6.9798,-6.9798,0.0,0.0,0.0,-3.8696,0.0,0.0,0.0,-3.8434,-3.8667,0.0,0.0,0.0,0.0,0.0,0.0,0.0,0.0,0.0,0.0,0.0,0.0,0.0,0.0,0.0,-4.5895,-4.5895,-4.5895,-4.5895,-4.5895,-4.5895,-4.5895,-4.5895,-4.5895,-4.5895,-4.6225,-4.6403,-4.6403,-4.6726,-4.7076,-4.7422,-4.7734,-4.824,-4.8903,-4.9228,-4.9582,-4.9931,-4.9931,-4.9931,-4.9931,-4.9931,-4.9931,-4.9995,-5.093,-5.1709,-5.2409,-5.314,-5.4007,-5.4749,-5.4497,-5.4581,-5.4941,-5.6252,-5.7086,-5.7826,-5.9324,-6.0285,-6.0915,-6.1349,-6.1721,-6.2267,-6.3166,-6.4156,-6.4895,-6.4895,-6.516,-6.5425,-6.5425,-6.5425,-6.5425,-6.5425,-6.5724,-6.632,-6.7446,-6.8208,-6.8937,-6.9666,-6.9798,-6.9798,-6.9798,-6.9798,-6.9798,-6.9798,-6.9798,-6.9798,-6.9798,-6.9798,-6.9798,-6.9798,-6.9798,-6.9798,-6.9798,-6.9798,-6.9798,-6.9798,-6.9798,-6.9798,-6.9798,-6.9798,-6.9798,-6.9798,-6.9798,-6.9798,0.0,0.0,0.0,0.0,0.0,-3.974,0.0,0.0,0.0,0.0,0.0,0.0,0.0,0.0,0.0,0.0,0.0,0.0,0.0,0.0,0.0,0.0,0.0,0.0,0.0,-4.5808,-4.5895,-4.5895,-4.5895,-4.5895,-4.5895,-4.5895,-4.5895,-4.5895,-4.5895,-4.5895,-4.5895,-4.5895,-4.6135,-4.6756,-4.6844,-4.7508,-4.8573,-4.8656,-4.8984,-4.9501,-4.9661,-4.9741,-4.9741,-4.9852,-4.9931,-4.9995,-5.0563,-5.129,-5.208,-5.2681,-5.3408,-5.4103,-5.4103,-5.4103,-5.4378,-5.5834,-5.6582,-5.729,-5.9447,-6.0108,-6.0163,-6.0485,-6.0922,-6.1392,-6.2199,-6.3364,-6.4311,-6.4443,-6.4906,-6.5425,-6.5425,-6.5425,-6.5425,-6.5425,-6.5425,-6.5889,-6.738,-6.8109,-6.8771,-6.9666,-6.9798,-6.9798,-6.9798,-6.9798,-6.9798,-6.9798,-6.9798,-6.9798,-6.9798,-6.9798,-6.9798,-6.9798,-6.9798,-6.9798,-6.9798,-6.9798,-6.9798,-6.9798,-6.9798,-6.9798,-6.9798,-6.9798,-6.9798,-6.9798,-6.9798,-6.9798,0.0,0.0,0.0,0.0,-4.2159,0.0,0.0,0.0,0.0,0.0,0.0,0.0,0.0,0.0,0.0,0.0,0.0,0.0,0.0,0.0,0.0,0.0,0.0,0.0,0.0,-4.5547,-4.5895,-4.5895,-4.5895,-4.5895,-4.5895,-4.5895,-4.5895,-4.5895,-4.5895,-4.5895,-4.5895,-4.5895,-4.5985,-4.6075,-4.658,-4.7019,-4.7163,-4.7734,-4.8072,-4.8157,-4.8738,-4.8984,-4.9066,-4.9661,-4.9931,-4.9931,-4.9995,-5.0848,-5.2017,-5.2112,-5.2965,-5.4103,-5.4103,-5.4103,-5.4134,-5.4378,-5.5525,-5.7108,-5.84,-5.8991,-5.9274,-5.9693,-6.0,-6.0495,-6.1627,-6.2795,-6.3875,-6.4498,-6.5,-6.5425,-6.5425,-6.5425,-6.5425,-6.5425,-6.5425,-6.5889,-6.738,-6.7678,-6.8208,-6.9599,-6.9798,-6.9798,-6.9798,-6.9798,-6.9798,-6.9798,-6.9798,-6.9798,-6.9798,-6.9798,-6.9798,-6.9798,-6.9798,-6.9798,-6.9798,-6.9798,-6.9798,-6.9798,-6.9798,-6.9798,-6.9798,-6.9798,-6.9798,-6.9798,-6.9798,-6.9798,0.0,0.0,0.0,0.0,0.0,0.0,-4.1331,0.0,-4.0641,0.0,0.0,0.0,0.0,0.0,0.0,0.0,-4.3456,0.0,0.0,0.0,0.0,0.0,0.0,0.0,0.0,0.0,0.0,0.0,-4.5895,-4.5895,-4.5895,-4.5895,-4.5895,-4.5895,-4.5895,-4.5895,-4.5895,-4.5895,-4.5895,-4.5895,-4.6135,-4.6491,-4.6931,-4.7163,-4.7508,-4.7904,-4.824,-4.8324,-4.8407,-4.9066,-4.9309,-4.9309,-4.9741,-5.0785,-5.2017,-5.2017,-5.2902,-5.4103,-5.4103,-5.4103,-5.4229,-5.5051,-5.632,-5.7596,-5.8211,-5.8659,-5.9004,-5.8882,-5.9196,-5.9607,-6.0077,-6.131,-6.2704,-6.3302,-6.426,-6.5066,-6.5336,-6.5425,-6.5425,-6.5425,-6.5757,-6.6254,-6.6883,-6.7347,-6.8109,-6.9566,-6.9798,-6.9798,-6.9798,-6.9798,-6.9798,-6.9798,-6.9798,-6.9798,-6.9798,-6.9798,-6.9798,-6.9798,-6.9798,-6.9798,-6.9798,-6.9798,-6.9798,-6.9798,-6.9798,-6.9798,-6.9798,-6.9798,-6.9798,-6.9798,-6.9798,-6.9798,-4.0575,0.0,0.0,0.0,0.0,0.0,0.0,0.0,0.0,0.0,0.0,0.0,0.0,0.0,0.0,0.0,0.0,-4.4037,0.0,0.0,0.0,0.0,0.0,0.0,0.0,0.0,0.0,-4.5605,-4.5605,-4.5605,-4.5605,-4.5779,-4.5895,-4.5895,-4.5895,-4.5895,-4.5895,-4.5895,-4.5895,-4.5895,-4.5895,-4.6135,-4.6668,-4.6668,-4.6901,-4.7392,-4.7563,-4.7679,-4.7649,-4.8324,-4.8656,-4.8656,-4.9147,-5.0184,-5.1487,-5.1852,-5.2902,-5.4103,-5.4103,-5.4103,-5.4261,-5.5272,-5.6455,-5.7459,-5.7639,-5.8233,-5.8733,-5.8367,-5.855,-5.8855,-5.9047,-6.034,-6.1763,-6.2353,-6.3512,-6.4577,-6.4943,-6.5033,-6.5033,-6.5033,-6.5552,-6.6171,-6.6568,-6.7354,-6.8274,-6.9334,-6.9666,-6.9798,-6.9798,-6.9798,-6.9798,-6.9798,-6.9798,-6.9798,-6.9798,-6.9798,-6.9798,-6.9798,-6.9798,-6.9798,-6.9798,-6.9798,-6.9798,-6.9798,-6.9798,-6.9798,-6.9798,-6.9798,-6.9798,-6.9798,-6.9798,-6.9798,0.0,0.0,0.0,-4.6395,0.0,0.0,0.0,0.0,-4.356,0.0,0.0,0.0,0.0,0.0,-4.3195,-4.3863,-4.3456,0.0,0.0,0.0,0.0,0.0,0.0,0.0,0.0,0.0,0.0,-4.4908,-4.4908,-4.4908,-4.4908,-4.5547,-4.5895,-4.5895,-4.5895,-4.5895,-4.5895,-4.5895,-4.5895,-4.5895,-4.5895,-4.5895,-4.5985,-4.5985,-4.5985,-4.5985,-4.6668,-4.6931,-4.6989,-4.7649,-4.7904,-4.7904,-4.7988,-4.8809,-5.0171,-5.1487,-5.2902,-5.4103,-5.4103,-5.4103,-5.4103,-5.4134,-5.5083,-5.622,-5.6252,-5.72,-5.8367,-5.8274,-5.8274,-5.8432,-5.9096,-6.0168,-6.1338,-6.1916,-6.3,-6.3894,-6.3894,-6.3988,-6.3988,-6.3988,-6.4426,-6.5193,-6.6602,-6.7895,-6.8672,-6.8705,-6.9334,-6.9798,-6.9798,-6.9798,-6.9798,-6.9798,-6.9798,-6.9798,-6.9798,-6.9798,-6.9798,-6.9798,-6.9798,-6.9798,-6.9798,-6.9798,-6.9798,-6.9798,-6.9798,-6.9798,-6.9798,-6.9798,-6.9798,-6.9798,-6.9798,-6.9798,0.0,0.0,-4.3337,-4.4634,0.0,0.0,0.0,0.0,0.0,0.0,0.0,0.0,0.0,0.0,-4.334,-4.4414,-4.4385,-4.4095,0.0,0.0,-4.4066,0.0,0.0,0.0,0.0,0.0,0.0,-4.5518,-4.514,-4.5082,-4.5518,-4.5779,-4.5895,-4.5895,-4.5895,-4.5895,-4.5895,-4.5895,-4.5895,-4.5895,-4.5895,-4.5895,-4.5895,-4.5895,-4.5895,-4.5895,-4.6135,-4.6225,-4.6314,-4.6989,-4.7249,-4.7249,-4.7734,-4.8723,-4.9995,-5.0432,-5.1816,-5.3465,-5.3931,-5.4103,-5.4166,-5.464,-5.5114,-5.5651,-5.6599,-5.72,-5.7674,-5.8148,-5.859,-5.9001,-5.9254,-6.0266,-6.1472,-6.1949,-6.2748,-6.3548,-6.38,-6.3894,-6.3894,-6.3894,-6.4471,-6.5085,-6.5606,-6.7064,-6.8492,-6.9334,-6.9633,-6.9798,-6.9798,-6.9798,-6.9798,-6.9798,-6.9798,-6.9798,-6.9798,-6.9798,-6.9798,-6.9798,-6.9798,-6.9798,-6.9798,-6.9798,-6.9798,-6.9798,-6.9798,-6.9798,-6.9798,-6.9798,-6.9798,-6.9798,-6.9798,-6.9798,-4.1599,-4.2266,0.0,-4.4381,-4.5135,0.0,-4.704,0.0,0.0,0.0,0.0,0.0,0.0,0.0,-4.3747,-4.5024,-4.5053,-4.4763,0.0,-4.4124,-4.4211,0.0,0.0,0.0,0.0,0.0,-4.485,-4.5488,-4.4705,-4.4589,0.0,0.0,-4.5634,-4.5866,-4.5895,-4.5895,-4.5895,-4.5895,-4.5895,-4.5895,-4.5895,-4.5895,-4.5895,-4.5895,-4.5895,-4.5895,-4.5895,-4.5895,-4.5985,-4.6403,-4.658,-4.658,-4.6989,-4.7939,-4.9194,-4.973,-5.1203,-5.3113,-5.3552,-5.3899,-5.4198,-5.4893,-5.5146,-5.5399,-5.6789,-5.7231,-5.7421,-5.8369,-5.878,-5.9064,-5.9538,-6.0329,-6.1152,-6.1695,-6.2396,-6.3002,-6.326,-6.3357,-6.3357,-6.3357,-6.3902,-6.4481,-6.5029,-6.6355,-6.7718,-6.8888,-6.9537,-6.9798,-6.9798,-6.9798,-6.9798,-6.9798,-6.9798,-6.9798,-6.9798,-6.9798,-6.9798,-6.9798,-6.9798,-6.9798,-6.9798,-6.9798,-7.003,-7.056,-7.0063,-7.0063,-7.0593,-7.0063,-6.9798,-6.9798,-6.9798,-6.9798]}]]